<?xml version="1.0" encoding="UTF-8" standalone="no" ?>
<gpx xmlns="http://www.topografix.com/GPX/1/1" xmlns:xsi="http://www.w3.org/2001/XMLSchema-instance" xsi:schemaLocation="http://www.topografix.com/GPX/1/1 http://www.topografix.com/GPX/1/1/gpx.xsd" version="1.1" creator="VisuGPX - https://www.visugpx.com">
  <metadata>
    <name>Petit Trip VTT de Pâques</name>
    <desc><![CDATA[Des coteaux, des bords d\'Ariège et du soleil...]]></desc>
  </metadata>
  <trk>
    <name><![CDATA[2015-04-05 11:28 1 Rue Rigal]]></name>
    <desc><![CDATA[]]></desc>
    <trkseg>
      <trkpt lat="43.49137" lon="1.51572">
        <ele>192.5</ele>
        <time>2015-04-05T09:28:59.903Z</time>
      </trkpt>
      <trkpt lat="43.49141" lon="1.51571">
        <ele>193.4</ele>
        <time>2015-04-05T09:30:07.770Z</time>
      </trkpt>
      <trkpt lat="43.49156" lon="1.5155">
        <ele>194.1</ele>
        <time>2015-04-05T09:30:13.767Z</time>
      </trkpt>
      <trkpt lat="43.49164" lon="1.5154">
        <ele>196</ele>
        <time>2015-04-05T09:30:19.767Z</time>
      </trkpt>
      <trkpt lat="43.49159" lon="1.51524">
        <ele>197.4</ele>
        <time>2015-04-05T09:30:25.761Z</time>
      </trkpt>
      <trkpt lat="43.49147" lon="1.51515">
        <ele>202.1</ele>
        <time>2015-04-05T09:30:31.766Z</time>
      </trkpt>
      <trkpt lat="43.49133" lon="1.51506">
        <ele>206.7</ele>
        <time>2015-04-05T09:30:37.768Z</time>
      </trkpt>
      <trkpt lat="43.49119" lon="1.51498">
        <ele>209.7</ele>
        <time>2015-04-05T09:30:43.757Z</time>
      </trkpt>
      <trkpt lat="43.49106" lon="1.51491">
        <ele>214.6</ele>
        <time>2015-04-05T09:30:48.785Z</time>
      </trkpt>
      <trkpt lat="43.49086" lon="1.51479">
        <ele>219.3</ele>
        <time>2015-04-05T09:30:54.765Z</time>
      </trkpt>
      <trkpt lat="43.49068" lon="1.51469">
        <ele>223.4</ele>
        <time>2015-04-05T09:30:59.825Z</time>
      </trkpt>
      <trkpt lat="43.4905" lon="1.51452">
        <ele>228.3</ele>
        <time>2015-04-05T09:31:05.823Z</time>
      </trkpt>
      <trkpt lat="43.49037" lon="1.51431">
        <ele>231.3</ele>
        <time>2015-04-05T09:31:11.823Z</time>
      </trkpt>
      <trkpt lat="43.49018" lon="1.51416">
        <ele>235.5</ele>
        <time>2015-04-05T09:31:17.837Z</time>
      </trkpt>
      <trkpt lat="43.48997" lon="1.51402">
        <ele>238.7</ele>
        <time>2015-04-05T09:31:23.832Z</time>
      </trkpt>
      <trkpt lat="43.48976" lon="1.51378">
        <ele>225.9</ele>
        <time>2015-04-05T09:31:29.828Z</time>
      </trkpt>
      <trkpt lat="43.48963" lon="1.51389">
        <ele>220.6</ele>
        <time>2015-04-05T09:31:35.002Z</time>
      </trkpt>
      <trkpt lat="43.48952" lon="1.51402">
        <ele>219.1</ele>
        <time>2015-04-05T09:31:40.836Z</time>
      </trkpt>
      <trkpt lat="43.48946" lon="1.51415">
        <ele>217.6</ele>
        <time>2015-04-05T09:31:46.836Z</time>
      </trkpt>
      <trkpt lat="43.48946" lon="1.51418">
        <ele>216.7</ele>
        <time>2015-04-05T09:33:08.836Z</time>
      </trkpt>
      <trkpt lat="43.48937" lon="1.51424">
        <ele>203.6</ele>
        <time>2015-04-05T09:33:14.836Z</time>
      </trkpt>
      <trkpt lat="43.48932" lon="1.51429">
        <ele>203.4</ele>
        <time>2015-04-05T09:33:20.830Z</time>
      </trkpt>
      <trkpt lat="43.4892" lon="1.51421">
        <ele>203.2</ele>
        <time>2015-04-05T09:33:26.836Z</time>
      </trkpt>
      <trkpt lat="43.48906" lon="1.51404">
        <ele>204.6</ele>
        <time>2015-04-05T09:33:32.830Z</time>
      </trkpt>
      <trkpt lat="43.48893" lon="1.5139">
        <ele>206.8</ele>
        <time>2015-04-05T09:33:38.837Z</time>
      </trkpt>
      <trkpt lat="43.48879" lon="1.51378">
        <ele>210.9</ele>
        <time>2015-04-05T09:33:44.837Z</time>
      </trkpt>
      <trkpt lat="43.48867" lon="1.51365">
        <ele>214.6</ele>
        <time>2015-04-05T09:33:50.838Z</time>
      </trkpt>
      <trkpt lat="43.48859" lon="1.5135">
        <ele>217.6</ele>
        <time>2015-04-05T09:33:56.838Z</time>
      </trkpt>
      <trkpt lat="43.48849" lon="1.51333">
        <ele>220.6</ele>
        <time>2015-04-05T09:34:02.834Z</time>
      </trkpt>
      <trkpt lat="43.48839" lon="1.51316">
        <ele>224.7</ele>
        <time>2015-04-05T09:34:08.838Z</time>
      </trkpt>
      <trkpt lat="43.48825" lon="1.51302">
        <ele>228.7</ele>
        <time>2015-04-05T09:34:14.837Z</time>
      </trkpt>
      <trkpt lat="43.48807" lon="1.51289">
        <ele>228.8</ele>
        <time>2015-04-05T09:34:20.829Z</time>
      </trkpt>
      <trkpt lat="43.48796" lon="1.51288">
        <ele>229.7</ele>
        <time>2015-04-05T09:34:26.838Z</time>
      </trkpt>
      <trkpt lat="43.48792" lon="1.51291">
        <ele>230.3</ele>
        <time>2015-04-05T09:34:32.837Z</time>
      </trkpt>
      <trkpt lat="43.48783" lon="1.51299">
        <ele>233.6</ele>
        <time>2015-04-05T09:34:38.828Z</time>
      </trkpt>
      <trkpt lat="43.48763" lon="1.51298">
        <ele>238.6</ele>
        <time>2015-04-05T09:34:44.838Z</time>
      </trkpt>
      <trkpt lat="43.48744" lon="1.51284">
        <ele>241.2</ele>
        <time>2015-04-05T09:34:50.829Z</time>
      </trkpt>
      <trkpt lat="43.48724" lon="1.51269">
        <ele>241.3</ele>
        <time>2015-04-05T09:34:56.827Z</time>
      </trkpt>
      <trkpt lat="43.48702" lon="1.51257">
        <ele>238.7</ele>
        <time>2015-04-05T09:35:02.838Z</time>
      </trkpt>
      <trkpt lat="43.48681" lon="1.51243">
        <ele>237.4</ele>
        <time>2015-04-05T09:35:08.837Z</time>
      </trkpt>
      <trkpt lat="43.4866" lon="1.51232">
        <ele>235.3</ele>
        <time>2015-04-05T09:35:14.829Z</time>
      </trkpt>
      <trkpt lat="43.48644" lon="1.51221">
        <ele>233.5</ele>
        <time>2015-04-05T09:35:19.853Z</time>
      </trkpt>
      <trkpt lat="43.48624" lon="1.51208">
        <ele>231.5</ele>
        <time>2015-04-05T09:35:25.831Z</time>
      </trkpt>
      <trkpt lat="43.48609" lon="1.51199">
        <ele>231</ele>
        <time>2015-04-05T09:35:30.836Z</time>
      </trkpt>
      <trkpt lat="43.48592" lon="1.51186">
        <ele>230.6</ele>
        <time>2015-04-05T09:35:36.834Z</time>
      </trkpt>
      <trkpt lat="43.48575" lon="1.51175">
        <ele>230.2</ele>
        <time>2015-04-05T09:35:42.835Z</time>
      </trkpt>
      <trkpt lat="43.48557" lon="1.51163">
        <ele>231.7</ele>
        <time>2015-04-05T09:35:48.836Z</time>
      </trkpt>
      <trkpt lat="43.48542" lon="1.51152">
        <ele>233.2</ele>
        <time>2015-04-05T09:35:53.836Z</time>
      </trkpt>
      <trkpt lat="43.48525" lon="1.5114">
        <ele>234.1</ele>
        <time>2015-04-05T09:35:59.827Z</time>
      </trkpt>
      <trkpt lat="43.48511" lon="1.5113">
        <ele>235.2</ele>
        <time>2015-04-05T09:36:04.828Z</time>
      </trkpt>
      <trkpt lat="43.48493" lon="1.51119">
        <ele>234.5</ele>
        <time>2015-04-05T09:36:10.836Z</time>
      </trkpt>
      <trkpt lat="43.48478" lon="1.51107">
        <ele>235.9</ele>
        <time>2015-04-05T09:36:16.827Z</time>
      </trkpt>
      <trkpt lat="43.48469" lon="1.51095">
        <ele>237.9</ele>
        <time>2015-04-05T09:36:21.855Z</time>
      </trkpt>
      <trkpt lat="43.48459" lon="1.5108">
        <ele>239.6</ele>
        <time>2015-04-05T09:36:27.835Z</time>
      </trkpt>
      <trkpt lat="43.48455" lon="1.51064">
        <ele>243.9</ele>
        <time>2015-04-05T09:36:32.826Z</time>
      </trkpt>
      <trkpt lat="43.48453" lon="1.51044">
        <ele>248.1</ele>
        <time>2015-04-05T09:36:38.838Z</time>
      </trkpt>
      <trkpt lat="43.48453" lon="1.51023">
        <ele>251.5</ele>
        <time>2015-04-05T09:36:44.833Z</time>
      </trkpt>
      <trkpt lat="43.48451" lon="1.51004">
        <ele>253.5</ele>
        <time>2015-04-05T09:36:49.838Z</time>
      </trkpt>
      <trkpt lat="43.48447" lon="1.50981">
        <ele>252.8</ele>
        <time>2015-04-05T09:36:55.835Z</time>
      </trkpt>
      <trkpt lat="43.48445" lon="1.50957">
        <ele>252.4</ele>
        <time>2015-04-05T09:37:01.835Z</time>
      </trkpt>
      <trkpt lat="43.48443" lon="1.50935">
        <ele>253.3</ele>
        <time>2015-04-05T09:37:07.836Z</time>
      </trkpt>
      <trkpt lat="43.4844" lon="1.50913">
        <ele>254.8</ele>
        <time>2015-04-05T09:37:13.828Z</time>
      </trkpt>
      <trkpt lat="43.48439" lon="1.50895">
        <ele>256.1</ele>
        <time>2015-04-05T09:37:18.953Z</time>
      </trkpt>
      <trkpt lat="43.48437" lon="1.50873">
        <ele>258.3</ele>
        <time>2015-04-05T09:37:24.828Z</time>
      </trkpt>
      <trkpt lat="43.48433" lon="1.50851">
        <ele>259.3</ele>
        <time>2015-04-05T09:37:30.833Z</time>
      </trkpt>
      <trkpt lat="43.4843" lon="1.5083">
        <ele>261.4</ele>
        <time>2015-04-05T09:37:36.836Z</time>
      </trkpt>
      <trkpt lat="43.48426" lon="1.50807">
        <ele>261.6</ele>
        <time>2015-04-05T09:37:42.828Z</time>
      </trkpt>
      <trkpt lat="43.4842" lon="1.50783">
        <ele>263.5</ele>
        <time>2015-04-05T09:37:48.836Z</time>
      </trkpt>
      <trkpt lat="43.48415" lon="1.50757">
        <ele>263.8</ele>
        <time>2015-04-05T09:37:54.826Z</time>
      </trkpt>
      <trkpt lat="43.4841" lon="1.5073">
        <ele>263.7</ele>
        <time>2015-04-05T09:38:00.828Z</time>
      </trkpt>
      <trkpt lat="43.48402" lon="1.507">
        <ele>261.2</ele>
        <time>2015-04-05T09:38:06.828Z</time>
      </trkpt>
      <trkpt lat="43.48392" lon="1.50667">
        <ele>258.9</ele>
        <time>2015-04-05T09:38:11.836Z</time>
      </trkpt>
      <trkpt lat="43.4838" lon="1.50631">
        <ele>256.6</ele>
        <time>2015-04-05T09:38:17.827Z</time>
      </trkpt>
      <trkpt lat="43.4837" lon="1.50594">
        <ele>255.4</ele>
        <time>2015-04-05T09:38:23.834Z</time>
      </trkpt>
      <trkpt lat="43.48358" lon="1.50563">
        <ele>254.8</ele>
        <time>2015-04-05T09:38:28.835Z</time>
      </trkpt>
      <trkpt lat="43.48342" lon="1.50524">
        <ele>253.4</ele>
        <time>2015-04-05T09:38:34.834Z</time>
      </trkpt>
      <trkpt lat="43.4833" lon="1.50488">
        <ele>252.4</ele>
        <time>2015-04-05T09:38:39.834Z</time>
      </trkpt>
      <trkpt lat="43.48313" lon="1.50454">
        <ele>251.4</ele>
        <time>2015-04-05T09:38:44.836Z</time>
      </trkpt>
      <trkpt lat="43.48295" lon="1.50419">
        <ele>250.6</ele>
        <time>2015-04-05T09:38:50.836Z</time>
      </trkpt>
      <trkpt lat="43.48276" lon="1.50392">
        <ele>250.7</ele>
        <time>2015-04-05T09:38:56.836Z</time>
      </trkpt>
      <trkpt lat="43.48296" lon="1.50364">
        <ele>252.2</ele>
        <time>2015-04-05T09:39:02.829Z</time>
      </trkpt>
      <trkpt lat="43.48321" lon="1.50346">
        <ele>252.5</ele>
        <time>2015-04-05T09:39:08.829Z</time>
      </trkpt>
      <trkpt lat="43.48348" lon="1.50328">
        <ele>252.4</ele>
        <time>2015-04-05T09:39:14.837Z</time>
      </trkpt>
      <trkpt lat="43.48371" lon="1.50308">
        <ele>253.8</ele>
        <time>2015-04-05T09:39:20.826Z</time>
      </trkpt>
      <trkpt lat="43.48395" lon="1.5029">
        <ele>254.9</ele>
        <time>2015-04-05T09:39:26.836Z</time>
      </trkpt>
      <trkpt lat="43.48419" lon="1.50272">
        <ele>254.7</ele>
        <time>2015-04-05T09:39:32.209Z</time>
      </trkpt>
      <trkpt lat="43.48442" lon="1.50256">
        <ele>254.9</ele>
        <time>2015-04-05T09:39:38.219Z</time>
      </trkpt>
      <trkpt lat="43.48468" lon="1.50242">
        <ele>255.4</ele>
        <time>2015-04-05T09:39:44.218Z</time>
      </trkpt>
      <trkpt lat="43.48492" lon="1.5023">
        <ele>256.8</ele>
        <time>2015-04-05T09:39:50.039Z</time>
      </trkpt>
      <trkpt lat="43.48516" lon="1.50219">
        <ele>257.8</ele>
        <time>2015-04-05T09:39:56.034Z</time>
      </trkpt>
      <trkpt lat="43.48539" lon="1.50206">
        <ele>259</ele>
        <time>2015-04-05T09:40:02.030Z</time>
      </trkpt>
      <trkpt lat="43.4856" lon="1.50194">
        <ele>259.7</ele>
        <time>2015-04-05T09:40:08.035Z</time>
      </trkpt>
      <trkpt lat="43.48582" lon="1.50181">
        <ele>260.9</ele>
        <time>2015-04-05T09:40:14.028Z</time>
      </trkpt>
      <trkpt lat="43.48606" lon="1.50163">
        <ele>261.8</ele>
        <time>2015-04-05T09:40:20.036Z</time>
      </trkpt>
      <trkpt lat="43.48628" lon="1.50145">
        <ele>263.4</ele>
        <time>2015-04-05T09:40:26.029Z</time>
      </trkpt>
      <trkpt lat="43.48648" lon="1.5013">
        <ele>264.1</ele>
        <time>2015-04-05T09:40:31.035Z</time>
      </trkpt>
      <trkpt lat="43.48672" lon="1.50111">
        <ele>265.9</ele>
        <time>2015-04-05T09:40:37.033Z</time>
      </trkpt>
      <trkpt lat="43.48697" lon="1.50093">
        <ele>265.8</ele>
        <time>2015-04-05T09:40:43.032Z</time>
      </trkpt>
      <trkpt lat="43.48723" lon="1.50076">
        <ele>265.3</ele>
        <time>2015-04-05T09:40:49.032Z</time>
      </trkpt>
      <trkpt lat="43.48749" lon="1.50058">
        <ele>265.8</ele>
        <time>2015-04-05T09:40:55.032Z</time>
      </trkpt>
      <trkpt lat="43.4877" lon="1.50043">
        <ele>265.5</ele>
        <time>2015-04-05T09:41:00.062Z</time>
      </trkpt>
      <trkpt lat="43.48794" lon="1.50025">
        <ele>266.1</ele>
        <time>2015-04-05T09:41:06.033Z</time>
      </trkpt>
      <trkpt lat="43.48819" lon="1.50008">
        <ele>266.7</ele>
        <time>2015-04-05T09:41:12.032Z</time>
      </trkpt>
      <trkpt lat="43.48845" lon="1.49996">
        <ele>267.6</ele>
        <time>2015-04-05T09:41:18.025Z</time>
      </trkpt>
      <trkpt lat="43.48866" lon="1.49987">
        <ele>268.1</ele>
        <time>2015-04-05T09:41:23.047Z</time>
      </trkpt>
      <trkpt lat="43.48892" lon="1.49976">
        <ele>266.9</ele>
        <time>2015-04-05T09:41:29.032Z</time>
      </trkpt>
      <trkpt lat="43.48912" lon="1.49965">
        <ele>266.6</ele>
        <time>2015-04-05T09:41:34.032Z</time>
      </trkpt>
      <trkpt lat="43.4893" lon="1.49949">
        <ele>266.3</ele>
        <time>2015-04-05T09:41:40.026Z</time>
      </trkpt>
      <trkpt lat="43.48937" lon="1.49925">
        <ele>266.5</ele>
        <time>2015-04-05T09:41:45.977Z</time>
      </trkpt>
      <trkpt lat="43.48928" lon="1.49903">
        <ele>267.7</ele>
        <time>2015-04-05T09:41:50.989Z</time>
      </trkpt>
      <trkpt lat="43.48917" lon="1.49864">
        <ele>267.7</ele>
        <time>2015-04-05T09:41:56.987Z</time>
      </trkpt>
      <trkpt lat="43.48903" lon="1.49827">
        <ele>268</ele>
        <time>2015-04-05T09:42:02.755Z</time>
      </trkpt>
      <trkpt lat="43.48886" lon="1.49779">
        <ele>267.4</ele>
        <time>2015-04-05T09:42:08.762Z</time>
      </trkpt>
      <trkpt lat="43.48869" lon="1.4973">
        <ele>266.6</ele>
        <time>2015-04-05T09:42:14.762Z</time>
      </trkpt>
      <trkpt lat="43.48852" lon="1.49684">
        <ele>266</ele>
        <time>2015-04-05T09:42:20.764Z</time>
      </trkpt>
      <trkpt lat="43.48835" lon="1.49641">
        <ele>265.1</ele>
        <time>2015-04-05T09:42:26.754Z</time>
      </trkpt>
      <trkpt lat="43.48818" lon="1.49599">
        <ele>264.4</ele>
        <time>2015-04-05T09:42:32.761Z</time>
      </trkpt>
      <trkpt lat="43.48804" lon="1.49557">
        <ele>264.3</ele>
        <time>2015-04-05T09:42:38.762Z</time>
      </trkpt>
      <trkpt lat="43.48791" lon="1.49518">
        <ele>265</ele>
        <time>2015-04-05T09:42:44.761Z</time>
      </trkpt>
      <trkpt lat="43.4878" lon="1.49483">
        <ele>265.8</ele>
        <time>2015-04-05T09:42:50.755Z</time>
      </trkpt>
      <trkpt lat="43.48772" lon="1.49453">
        <ele>266.3</ele>
        <time>2015-04-05T09:42:56.762Z</time>
      </trkpt>
      <trkpt lat="43.48764" lon="1.49424">
        <ele>267</ele>
        <time>2015-04-05T09:43:02.763Z</time>
      </trkpt>
      <trkpt lat="43.48755" lon="1.49389">
        <ele>267</ele>
        <time>2015-04-05T09:43:08.755Z</time>
      </trkpt>
      <trkpt lat="43.48747" lon="1.49336">
        <ele>265.7</ele>
        <time>2015-04-05T09:43:14.761Z</time>
      </trkpt>
      <trkpt lat="43.48743" lon="1.49267">
        <ele>263.5</ele>
        <time>2015-04-05T09:43:20.763Z</time>
      </trkpt>
      <trkpt lat="43.48748" lon="1.49193">
        <ele>261.8</ele>
        <time>2015-04-05T09:43:26.762Z</time>
      </trkpt>
      <trkpt lat="43.48758" lon="1.49123">
        <ele>259.7</ele>
        <time>2015-04-05T09:43:32.810Z</time>
      </trkpt>
      <trkpt lat="43.48763" lon="1.49048">
        <ele>257.3</ele>
        <time>2015-04-05T09:43:38.763Z</time>
      </trkpt>
      <trkpt lat="43.48765" lon="1.48972">
        <ele>254.9</ele>
        <time>2015-04-05T09:43:44.762Z</time>
      </trkpt>
      <trkpt lat="43.48756" lon="1.48899">
        <ele>253</ele>
        <time>2015-04-05T09:43:50.755Z</time>
      </trkpt>
      <trkpt lat="43.48739" lon="1.48837">
        <ele>251.6</ele>
        <time>2015-04-05T09:43:56.763Z</time>
      </trkpt>
      <trkpt lat="43.48734" lon="1.48783">
        <ele>251.4</ele>
        <time>2015-04-05T09:44:02.755Z</time>
      </trkpt>
      <trkpt lat="43.48736" lon="1.48739">
        <ele>251.5</ele>
        <time>2015-04-05T09:44:08.752Z</time>
      </trkpt>
      <trkpt lat="43.48738" lon="1.48699">
        <ele>252.8</ele>
        <time>2015-04-05T09:44:14.761Z</time>
      </trkpt>
      <trkpt lat="43.48738" lon="1.48663">
        <ele>253.9</ele>
        <time>2015-04-05T09:44:20.761Z</time>
      </trkpt>
      <trkpt lat="43.48734" lon="1.48625">
        <ele>254.8</ele>
        <time>2015-04-05T09:44:26.762Z</time>
      </trkpt>
      <trkpt lat="43.48723" lon="1.48592">
        <ele>255.8</ele>
        <time>2015-04-05T09:44:32.755Z</time>
      </trkpt>
      <trkpt lat="43.48712" lon="1.48567">
        <ele>258.4</ele>
        <time>2015-04-05T09:44:38.762Z</time>
      </trkpt>
      <trkpt lat="43.48702" lon="1.48544">
        <ele>261.2</ele>
        <time>2015-04-05T09:44:44.762Z</time>
      </trkpt>
      <trkpt lat="43.48709" lon="1.48525">
        <ele>264.3</ele>
        <time>2015-04-05T09:44:50.762Z</time>
      </trkpt>
      <trkpt lat="43.48717" lon="1.4851">
        <ele>266.9</ele>
        <time>2015-04-05T09:44:56.756Z</time>
      </trkpt>
      <trkpt lat="43.48728" lon="1.48491">
        <ele>269.5</ele>
        <time>2015-04-05T09:45:02.762Z</time>
      </trkpt>
      <trkpt lat="43.48736" lon="1.48473">
        <ele>271.3</ele>
        <time>2015-04-05T09:45:08.751Z</time>
      </trkpt>
      <trkpt lat="43.48745" lon="1.48459">
        <ele>273.1</ele>
        <time>2015-04-05T09:45:14.764Z</time>
      </trkpt>
      <trkpt lat="43.48752" lon="1.48443">
        <ele>274.6</ele>
        <time>2015-04-05T09:45:20.763Z</time>
      </trkpt>
      <trkpt lat="43.48759" lon="1.48422">
        <ele>275.1</ele>
        <time>2015-04-05T09:45:26.763Z</time>
      </trkpt>
      <trkpt lat="43.48769" lon="1.484">
        <ele>276.7</ele>
        <time>2015-04-05T09:45:32.755Z</time>
      </trkpt>
      <trkpt lat="43.48776" lon="1.48374">
        <ele>278</ele>
        <time>2015-04-05T09:45:38.763Z</time>
      </trkpt>
      <trkpt lat="43.48786" lon="1.48347">
        <ele>278</ele>
        <time>2015-04-05T09:45:44.755Z</time>
      </trkpt>
      <trkpt lat="43.48796" lon="1.48318">
        <ele>277.5</ele>
        <time>2015-04-05T09:45:50.807Z</time>
      </trkpt>
      <trkpt lat="43.48807" lon="1.48288">
        <ele>276.9</ele>
        <time>2015-04-05T09:45:56.755Z</time>
      </trkpt>
      <trkpt lat="43.48816" lon="1.48259">
        <ele>276.8</ele>
        <time>2015-04-05T09:46:02.762Z</time>
      </trkpt>
      <trkpt lat="43.48829" lon="1.48229">
        <ele>277.1</ele>
        <time>2015-04-05T09:46:08.756Z</time>
      </trkpt>
      <trkpt lat="43.48848" lon="1.48192">
        <ele>276.7</ele>
        <time>2015-04-05T09:46:14.761Z</time>
      </trkpt>
      <trkpt lat="43.48872" lon="1.48161">
        <ele>277.1</ele>
        <time>2015-04-05T09:46:20.761Z</time>
      </trkpt>
      <trkpt lat="43.48897" lon="1.48135">
        <ele>277.1</ele>
        <time>2015-04-05T09:46:26.493Z</time>
      </trkpt>
      <trkpt lat="43.48921" lon="1.481">
        <ele>276.7</ele>
        <time>2015-04-05T09:46:32.495Z</time>
      </trkpt>
      <trkpt lat="43.48935" lon="1.4806">
        <ele>275.3</ele>
        <time>2015-04-05T09:46:38.507Z</time>
      </trkpt>
      <trkpt lat="43.48947" lon="1.48024">
        <ele>274.8</ele>
        <time>2015-04-05T09:46:44.502Z</time>
      </trkpt>
      <trkpt lat="43.48961" lon="1.47984">
        <ele>274.4</ele>
        <time>2015-04-05T09:46:50.502Z</time>
      </trkpt>
      <trkpt lat="43.48982" lon="1.47948">
        <ele>273.6</ele>
        <time>2015-04-05T09:46:56.501Z</time>
      </trkpt>
      <trkpt lat="43.49008" lon="1.47929">
        <ele>273.1</ele>
        <time>2015-04-05T09:47:02.536Z</time>
      </trkpt>
      <trkpt lat="43.49028" lon="1.47898">
        <ele>272.4</ele>
        <time>2015-04-05T09:47:08.502Z</time>
      </trkpt>
      <trkpt lat="43.49036" lon="1.47849">
        <ele>270.9</ele>
        <time>2015-04-05T09:47:14.503Z</time>
      </trkpt>
      <trkpt lat="43.49046" lon="1.47803">
        <ele>268.4</ele>
        <time>2015-04-05T09:47:19.564Z</time>
      </trkpt>
      <trkpt lat="43.49052" lon="1.47757">
        <ele>265.8</ele>
        <time>2015-04-05T09:47:25.557Z</time>
      </trkpt>
      <trkpt lat="43.49029" lon="1.47737">
        <ele>261.7</ele>
        <time>2015-04-05T09:47:30.577Z</time>
      </trkpt>
      <trkpt lat="43.49003" lon="1.47716">
        <ele>257.3</ele>
        <time>2015-04-05T09:47:36.562Z</time>
      </trkpt>
      <trkpt lat="43.48976" lon="1.47691">
        <ele>251.9</ele>
        <time>2015-04-05T09:47:42.551Z</time>
      </trkpt>
      <trkpt lat="43.48952" lon="1.47672">
        <ele>247.9</ele>
        <time>2015-04-05T09:47:47.562Z</time>
      </trkpt>
      <trkpt lat="43.48942" lon="1.47657">
        <ele>244.8</ele>
        <time>2015-04-05T09:47:53.552Z</time>
      </trkpt>
      <trkpt lat="43.48952" lon="1.47623">
        <ele>242.1</ele>
        <time>2015-04-05T09:47:59.562Z</time>
      </trkpt>
      <trkpt lat="43.4896" lon="1.47582">
        <ele>240.4</ele>
        <time>2015-04-05T09:48:05.555Z</time>
      </trkpt>
      <trkpt lat="43.48963" lon="1.47542">
        <ele>238.9</ele>
        <time>2015-04-05T09:48:10.562Z</time>
      </trkpt>
      <trkpt lat="43.48971" lon="1.47491">
        <ele>237</ele>
        <time>2015-04-05T09:48:16.562Z</time>
      </trkpt>
      <trkpt lat="43.48979" lon="1.47446">
        <ele>236.2</ele>
        <time>2015-04-05T09:48:22.563Z</time>
      </trkpt>
      <trkpt lat="43.48996" lon="1.47403">
        <ele>235</ele>
        <time>2015-04-05T09:48:28.555Z</time>
      </trkpt>
      <trkpt lat="43.49017" lon="1.47359">
        <ele>233.3</ele>
        <time>2015-04-05T09:48:33.581Z</time>
      </trkpt>
      <trkpt lat="43.49052" lon="1.47318">
        <ele>231.2</ele>
        <time>2015-04-05T09:48:39.563Z</time>
      </trkpt>
      <trkpt lat="43.49098" lon="1.47307">
        <ele>229.2</ele>
        <time>2015-04-05T09:48:45.562Z</time>
      </trkpt>
      <trkpt lat="43.49138" lon="1.47285">
        <ele>227.7</ele>
        <time>2015-04-05T09:48:51.556Z</time>
      </trkpt>
      <trkpt lat="43.4916" lon="1.47254">
        <ele>227.2</ele>
        <time>2015-04-05T09:48:57.563Z</time>
      </trkpt>
      <trkpt lat="43.49183" lon="1.47211">
        <ele>226.6</ele>
        <time>2015-04-05T09:49:03.566Z</time>
      </trkpt>
      <trkpt lat="43.49211" lon="1.47168">
        <ele>225.8</ele>
        <time>2015-04-05T09:49:09.555Z</time>
      </trkpt>
      <trkpt lat="43.49242" lon="1.47128">
        <ele>224.4</ele>
        <time>2015-04-05T09:49:15.562Z</time>
      </trkpt>
      <trkpt lat="43.4927" lon="1.47089">
        <ele>223.4</ele>
        <time>2015-04-05T09:49:21.562Z</time>
      </trkpt>
      <trkpt lat="43.493" lon="1.47058">
        <ele>222.7</ele>
        <time>2015-04-05T09:49:27.555Z</time>
      </trkpt>
      <trkpt lat="43.49324" lon="1.47025">
        <ele>222.2</ele>
        <time>2015-04-05T09:49:33.562Z</time>
      </trkpt>
      <trkpt lat="43.49356" lon="1.46988">
        <ele>222.1</ele>
        <time>2015-04-05T09:49:39.562Z</time>
      </trkpt>
      <trkpt lat="43.49385" lon="1.4695">
        <ele>221.2</ele>
        <time>2015-04-05T09:49:45.562Z</time>
      </trkpt>
      <trkpt lat="43.49417" lon="1.46916">
        <ele>219.7</ele>
        <time>2015-04-05T09:49:51.562Z</time>
      </trkpt>
      <trkpt lat="43.49444" lon="1.46883">
        <ele>218.6</ele>
        <time>2015-04-05T09:49:57.553Z</time>
      </trkpt>
      <trkpt lat="43.49476" lon="1.46849">
        <ele>217.6</ele>
        <time>2015-04-05T09:50:03.552Z</time>
      </trkpt>
      <trkpt lat="43.49508" lon="1.46813">
        <ele>215.6</ele>
        <time>2015-04-05T09:50:09.563Z</time>
      </trkpt>
      <trkpt lat="43.49539" lon="1.46773">
        <ele>213.5</ele>
        <time>2015-04-05T09:50:15.562Z</time>
      </trkpt>
      <trkpt lat="43.49571" lon="1.4674">
        <ele>212.5</ele>
        <time>2015-04-05T09:50:21.562Z</time>
      </trkpt>
      <trkpt lat="43.49604" lon="1.46731">
        <ele>213.1</ele>
        <time>2015-04-05T09:50:27.552Z</time>
      </trkpt>
      <trkpt lat="43.49615" lon="1.46724">
        <ele>213.7</ele>
        <time>2015-04-05T09:50:32.561Z</time>
      </trkpt>
      <trkpt lat="43.49636" lon="1.46706">
        <ele>212.8</ele>
        <time>2015-04-05T09:50:37.565Z</time>
      </trkpt>
      <trkpt lat="43.49673" lon="1.46695">
        <ele>209.7</ele>
        <time>2015-04-05T09:50:43.565Z</time>
      </trkpt>
      <trkpt lat="43.49705" lon="1.46663">
        <ele>206.8</ele>
        <time>2015-04-05T09:50:49.564Z</time>
      </trkpt>
      <trkpt lat="43.49738" lon="1.46627">
        <ele>202.6</ele>
        <time>2015-04-05T09:50:55.554Z</time>
      </trkpt>
      <trkpt lat="43.49771" lon="1.46594">
        <ele>198.4</ele>
        <time>2015-04-05T09:51:01.565Z</time>
      </trkpt>
      <trkpt lat="43.49794" lon="1.46567">
        <ele>195.1</ele>
        <time>2015-04-05T09:51:07.564Z</time>
      </trkpt>
      <trkpt lat="43.49806" lon="1.46558">
        <ele>192.4</ele>
        <time>2015-04-05T09:51:13.565Z</time>
      </trkpt>
      <trkpt lat="43.49813" lon="1.46549">
        <ele>191.4</ele>
        <time>2015-04-05T09:51:19.558Z</time>
      </trkpt>
      <trkpt lat="43.49827" lon="1.46528">
        <ele>191.4</ele>
        <time>2015-04-05T09:51:25.565Z</time>
      </trkpt>
      <trkpt lat="43.49842" lon="1.46521">
        <ele>192.2</ele>
        <time>2015-04-05T09:51:31.564Z</time>
      </trkpt>
      <trkpt lat="43.49855" lon="1.4652">
        <ele>194.5</ele>
        <time>2015-04-05T09:51:37.554Z</time>
      </trkpt>
      <trkpt lat="43.49868" lon="1.46515">
        <ele>194.8</ele>
        <time>2015-04-05T09:51:42.577Z</time>
      </trkpt>
      <trkpt lat="43.49884" lon="1.46506">
        <ele>194.3</ele>
        <time>2015-04-05T09:51:48.556Z</time>
      </trkpt>
      <trkpt lat="43.49899" lon="1.46499">
        <ele>194.2</ele>
        <time>2015-04-05T09:51:54.556Z</time>
      </trkpt>
      <trkpt lat="43.49908" lon="1.46497">
        <ele>194.2</ele>
        <time>2015-04-05T09:51:59.585Z</time>
      </trkpt>
      <trkpt lat="43.49919" lon="1.46494">
        <ele>196.2</ele>
        <time>2015-04-05T09:52:05.553Z</time>
      </trkpt>
      <trkpt lat="43.49928" lon="1.46493">
        <ele>197.7</ele>
        <time>2015-04-05T09:52:10.579Z</time>
      </trkpt>
      <trkpt lat="43.49939" lon="1.46492">
        <ele>199.5</ele>
        <time>2015-04-05T09:52:16.562Z</time>
      </trkpt>
      <trkpt lat="43.49949" lon="1.4649">
        <ele>200.6</ele>
        <time>2015-04-05T09:52:22.552Z</time>
      </trkpt>
      <trkpt lat="43.49958" lon="1.46489">
        <ele>202.5</ele>
        <time>2015-04-05T09:52:27.554Z</time>
      </trkpt>
      <trkpt lat="43.49967" lon="1.46488">
        <ele>204.7</ele>
        <time>2015-04-05T09:52:33.563Z</time>
      </trkpt>
      <trkpt lat="43.49976" lon="1.46488">
        <ele>207.1</ele>
        <time>2015-04-05T09:52:39.555Z</time>
      </trkpt>
      <trkpt lat="43.49984" lon="1.46486">
        <ele>208.6</ele>
        <time>2015-04-05T09:52:44.568Z</time>
      </trkpt>
      <trkpt lat="43.49991" lon="1.46486">
        <ele>210.4</ele>
        <time>2015-04-05T09:52:49.565Z</time>
      </trkpt>
      <trkpt lat="43.49999" lon="1.46484">
        <ele>212.1</ele>
        <time>2015-04-05T09:52:55.565Z</time>
      </trkpt>
      <trkpt lat="43.50008" lon="1.46484">
        <ele>213.4</ele>
        <time>2015-04-05T09:53:01.558Z</time>
      </trkpt>
      <trkpt lat="43.50016" lon="1.46483">
        <ele>214.4</ele>
        <time>2015-04-05T09:53:07.565Z</time>
      </trkpt>
      <trkpt lat="43.50024" lon="1.46484">
        <ele>216.2</ele>
        <time>2015-04-05T09:53:13.558Z</time>
      </trkpt>
      <trkpt lat="43.50032" lon="1.46485">
        <ele>218.3</ele>
        <time>2015-04-05T09:53:19.565Z</time>
      </trkpt>
      <trkpt lat="43.5004" lon="1.46486">
        <ele>220</ele>
        <time>2015-04-05T09:53:25.566Z</time>
      </trkpt>
      <trkpt lat="43.50048" lon="1.46488">
        <ele>221.9</ele>
        <time>2015-04-05T09:53:31.566Z</time>
      </trkpt>
      <trkpt lat="43.50056" lon="1.4649">
        <ele>224.1</ele>
        <time>2015-04-05T09:53:37.565Z</time>
      </trkpt>
      <trkpt lat="43.50063" lon="1.46492">
        <ele>226.6</ele>
        <time>2015-04-05T09:53:43.557Z</time>
      </trkpt>
      <trkpt lat="43.50069" lon="1.46493">
        <ele>229</ele>
        <time>2015-04-05T09:53:49.558Z</time>
      </trkpt>
      <trkpt lat="43.50078" lon="1.46496">
        <ele>229.3</ele>
        <time>2015-04-05T09:53:55.566Z</time>
      </trkpt>
      <trkpt lat="43.50086" lon="1.46499">
        <ele>229.7</ele>
        <time>2015-04-05T09:54:01.565Z</time>
      </trkpt>
      <trkpt lat="43.50092" lon="1.46497">
        <ele>228.9</ele>
        <time>2015-04-05T09:54:07.554Z</time>
      </trkpt>
      <trkpt lat="43.50093" lon="1.46476">
        <ele>227</ele>
        <time>2015-04-05T09:54:13.564Z</time>
      </trkpt>
      <trkpt lat="43.50095" lon="1.46445">
        <ele>225.9</ele>
        <time>2015-04-05T09:54:19.564Z</time>
      </trkpt>
      <trkpt lat="43.50099" lon="1.46404">
        <ele>224.2</ele>
        <time>2015-04-05T09:54:25.557Z</time>
      </trkpt>
      <trkpt lat="43.50106" lon="1.46356">
        <ele>221.2</ele>
        <time>2015-04-05T09:54:31.554Z</time>
      </trkpt>
      <trkpt lat="43.50114" lon="1.46303">
        <ele>218.3</ele>
        <time>2015-04-05T09:54:37.564Z</time>
      </trkpt>
      <trkpt lat="43.50118" lon="1.46245">
        <ele>213.4</ele>
        <time>2015-04-05T09:54:43.563Z</time>
      </trkpt>
      <trkpt lat="43.50116" lon="1.46185">
        <ele>208.7</ele>
        <time>2015-04-05T09:54:49.563Z</time>
      </trkpt>
      <trkpt lat="43.50113" lon="1.4612">
        <ele>204.7</ele>
        <time>2015-04-05T09:54:55.564Z</time>
      </trkpt>
      <trkpt lat="43.5009" lon="1.46073">
        <ele>200.8</ele>
        <time>2015-04-05T09:55:01.553Z</time>
      </trkpt>
      <trkpt lat="43.50066" lon="1.46047">
        <ele>197.4</ele>
        <time>2015-04-05T09:55:07.563Z</time>
      </trkpt>
      <trkpt lat="43.50039" lon="1.4602">
        <ele>193.9</ele>
        <time>2015-04-05T09:55:13.564Z</time>
      </trkpt>
      <trkpt lat="43.50015" lon="1.45983">
        <ele>190</ele>
        <time>2015-04-05T09:55:19.563Z</time>
      </trkpt>
      <trkpt lat="43.5" lon="1.45916">
        <ele>186.1</ele>
        <time>2015-04-05T09:55:25.552Z</time>
      </trkpt>
      <trkpt lat="43.49976" lon="1.45876">
        <ele>182.5</ele>
        <time>2015-04-05T09:55:31.563Z</time>
      </trkpt>
      <trkpt lat="43.49961" lon="1.45853">
        <ele>180.6</ele>
        <time>2015-04-05T09:55:37.567Z</time>
      </trkpt>
      <trkpt lat="43.49972" lon="1.45828">
        <ele>180.1</ele>
        <time>2015-04-05T09:55:43.564Z</time>
      </trkpt>
      <trkpt lat="43.49972" lon="1.45791">
        <ele>179.9</ele>
        <time>2015-04-05T09:55:49.564Z</time>
      </trkpt>
      <trkpt lat="43.49967" lon="1.45745">
        <ele>179.7</ele>
        <time>2015-04-05T09:55:55.563Z</time>
      </trkpt>
      <trkpt lat="43.49963" lon="1.45702">
        <ele>179.6</ele>
        <time>2015-04-05T09:56:01.556Z</time>
      </trkpt>
      <trkpt lat="43.49958" lon="1.45661">
        <ele>180.6</ele>
        <time>2015-04-05T09:56:07.563Z</time>
      </trkpt>
      <trkpt lat="43.49954" lon="1.45623">
        <ele>181.7</ele>
        <time>2015-04-05T09:56:13.563Z</time>
      </trkpt>
      <trkpt lat="43.49951" lon="1.45589">
        <ele>183.5</ele>
        <time>2015-04-05T09:56:19.563Z</time>
      </trkpt>
      <trkpt lat="43.49954" lon="1.45558">
        <ele>183.8</ele>
        <time>2015-04-05T09:56:25.552Z</time>
      </trkpt>
      <trkpt lat="43.49973" lon="1.45556">
        <ele>184.5</ele>
        <time>2015-04-05T09:56:31.564Z</time>
      </trkpt>
      <trkpt lat="43.49992" lon="1.4555">
        <ele>184.9</ele>
        <time>2015-04-05T09:56:36.742Z</time>
      </trkpt>
      <trkpt lat="43.50009" lon="1.45536">
        <ele>184.6</ele>
        <time>2015-04-05T09:56:42.555Z</time>
      </trkpt>
      <trkpt lat="43.50014" lon="1.45517">
        <ele>184.4</ele>
        <time>2015-04-05T09:56:47.580Z</time>
      </trkpt>
      <trkpt lat="43.50022" lon="1.45481">
        <ele>183.5</ele>
        <time>2015-04-05T09:56:53.553Z</time>
      </trkpt>
      <trkpt lat="43.50034" lon="1.45443">
        <ele>182.6</ele>
        <time>2015-04-05T09:56:59.562Z</time>
      </trkpt>
      <trkpt lat="43.50046" lon="1.45405">
        <ele>182.2</ele>
        <time>2015-04-05T09:57:05.562Z</time>
      </trkpt>
      <trkpt lat="43.5006" lon="1.45366">
        <ele>182.2</ele>
        <time>2015-04-05T09:57:11.561Z</time>
      </trkpt>
      <trkpt lat="43.50072" lon="1.45324">
        <ele>181.9</ele>
        <time>2015-04-05T09:57:17.610Z</time>
      </trkpt>
      <trkpt lat="43.50084" lon="1.45287">
        <ele>182.2</ele>
        <time>2015-04-05T09:57:23.554Z</time>
      </trkpt>
      <trkpt lat="43.50094" lon="1.45255">
        <ele>182</ele>
        <time>2015-04-05T09:57:28.577Z</time>
      </trkpt>
      <trkpt lat="43.50096" lon="1.45214">
        <ele>183</ele>
        <time>2015-04-05T09:57:34.561Z</time>
      </trkpt>
      <trkpt lat="43.50094" lon="1.45175">
        <ele>184.8</ele>
        <time>2015-04-05T09:57:40.562Z</time>
      </trkpt>
      <trkpt lat="43.50092" lon="1.45131">
        <ele>186.6</ele>
        <time>2015-04-05T09:57:46.561Z</time>
      </trkpt>
      <trkpt lat="43.5009" lon="1.45089">
        <ele>188.4</ele>
        <time>2015-04-05T09:57:52.554Z</time>
      </trkpt>
      <trkpt lat="43.50087" lon="1.45044">
        <ele>190.3</ele>
        <time>2015-04-05T09:57:58.561Z</time>
      </trkpt>
      <trkpt lat="43.50085" lon="1.44999">
        <ele>191.8</ele>
        <time>2015-04-05T09:58:04.561Z</time>
      </trkpt>
      <trkpt lat="43.50084" lon="1.44955">
        <ele>194.4</ele>
        <time>2015-04-05T09:58:10.553Z</time>
      </trkpt>
      <trkpt lat="43.50085" lon="1.44903">
        <ele>193.7</ele>
        <time>2015-04-05T09:58:16.562Z</time>
      </trkpt>
      <trkpt lat="43.5009" lon="1.44857">
        <ele>191.1</ele>
        <time>2015-04-05T09:58:22.561Z</time>
      </trkpt>
      <trkpt lat="43.50096" lon="1.44808">
        <ele>187.5</ele>
        <time>2015-04-05T09:58:28.561Z</time>
      </trkpt>
      <trkpt lat="43.50103" lon="1.44759">
        <ele>184</ele>
        <time>2015-04-05T09:58:34.561Z</time>
      </trkpt>
      <trkpt lat="43.50107" lon="1.44709">
        <ele>182.2</ele>
        <time>2015-04-05T09:58:40.554Z</time>
      </trkpt>
      <trkpt lat="43.50112" lon="1.44668">
        <ele>180.9</ele>
        <time>2015-04-05T09:58:45.560Z</time>
      </trkpt>
      <trkpt lat="43.50118" lon="1.44623">
        <ele>179.5</ele>
        <time>2015-04-05T09:58:51.554Z</time>
      </trkpt>
      <trkpt lat="43.50124" lon="1.44579">
        <ele>178.5</ele>
        <time>2015-04-05T09:58:57.561Z</time>
      </trkpt>
      <trkpt lat="43.5013" lon="1.44539">
        <ele>177.4</ele>
        <time>2015-04-05T09:59:03.553Z</time>
      </trkpt>
      <trkpt lat="43.50135" lon="1.445">
        <ele>176.8</ele>
        <time>2015-04-05T09:59:09.561Z</time>
      </trkpt>
      <trkpt lat="43.50138" lon="1.44457">
        <ele>176.2</ele>
        <time>2015-04-05T09:59:15.562Z</time>
      </trkpt>
      <trkpt lat="43.50144" lon="1.44416">
        <ele>175.5</ele>
        <time>2015-04-05T09:59:21.551Z</time>
      </trkpt>
      <trkpt lat="43.50146" lon="1.44383">
        <ele>175.3</ele>
        <time>2015-04-05T09:59:26.566Z</time>
      </trkpt>
      <trkpt lat="43.50149" lon="1.44349">
        <ele>175.3</ele>
        <time>2015-04-05T09:59:32.562Z</time>
      </trkpt>
      <trkpt lat="43.5015" lon="1.44316">
        <ele>175.4</ele>
        <time>2015-04-05T09:59:37.563Z</time>
      </trkpt>
      <trkpt lat="43.50151" lon="1.44268">
        <ele>174.9</ele>
        <time>2015-04-05T09:59:43.553Z</time>
      </trkpt>
      <trkpt lat="43.50151" lon="1.44239">
        <ele>175.1</ele>
        <time>2015-04-05T09:59:49.563Z</time>
      </trkpt>
      <trkpt lat="43.50151" lon="1.44233">
        <ele>175.7</ele>
        <time>2015-04-05T09:59:55.564Z</time>
      </trkpt>
      <trkpt lat="43.5015" lon="1.44215">
        <ele>176.7</ele>
        <time>2015-04-05T10:00:01.564Z</time>
      </trkpt>
      <trkpt lat="43.50153" lon="1.4419">
        <ele>178.7</ele>
        <time>2015-04-05T10:00:07.566Z</time>
      </trkpt>
      <trkpt lat="43.50151" lon="1.44153">
        <ele>181.8</ele>
        <time>2015-04-05T10:00:13.563Z</time>
      </trkpt>
      <trkpt lat="43.50147" lon="1.44139">
        <ele>185.1</ele>
        <time>2015-04-05T10:00:19.564Z</time>
      </trkpt>
      <trkpt lat="43.50139" lon="1.44175">
        <ele>187.8</ele>
        <time>2015-04-05T10:00:25.556Z</time>
      </trkpt>
      <trkpt lat="43.50145" lon="1.44135">
        <ele>190.8</ele>
        <time>2015-04-05T10:00:31.555Z</time>
      </trkpt>
      <trkpt lat="43.5015" lon="1.44102">
        <ele>194.4</ele>
        <time>2015-04-05T10:00:37.563Z</time>
      </trkpt>
      <trkpt lat="43.50151" lon="1.44094">
        <ele>194.4</ele>
        <time>2015-04-05T10:00:43.165Z</time>
      </trkpt>
      <trkpt lat="43.50155" lon="1.43975">
        <ele>190.9</ele>
        <time>2015-04-05T10:00:49.553Z</time>
      </trkpt>
      <trkpt lat="43.50161" lon="1.43929">
        <ele>187.1</ele>
        <time>2015-04-05T10:00:55.562Z</time>
      </trkpt>
      <trkpt lat="43.50165" lon="1.4389">
        <ele>184.2</ele>
        <time>2015-04-05T10:01:01.563Z</time>
      </trkpt>
      <trkpt lat="43.50169" lon="1.43851">
        <ele>181.3</ele>
        <time>2015-04-05T10:01:07.563Z</time>
      </trkpt>
      <trkpt lat="43.50175" lon="1.43812">
        <ele>178.9</ele>
        <time>2015-04-05T10:01:13.563Z</time>
      </trkpt>
      <trkpt lat="43.50181" lon="1.4377">
        <ele>176.1</ele>
        <time>2015-04-05T10:01:19.563Z</time>
      </trkpt>
      <trkpt lat="43.50187" lon="1.43731">
        <ele>174.9</ele>
        <time>2015-04-05T10:01:25.564Z</time>
      </trkpt>
      <trkpt lat="43.50193" lon="1.43692">
        <ele>173.1</ele>
        <time>2015-04-05T10:01:31.563Z</time>
      </trkpt>
      <trkpt lat="43.50199" lon="1.43657">
        <ele>171.6</ele>
        <time>2015-04-05T10:01:37.563Z</time>
      </trkpt>
      <trkpt lat="43.50204" lon="1.43627">
        <ele>170.7</ele>
        <time>2015-04-05T10:01:43.556Z</time>
      </trkpt>
      <trkpt lat="43.50209" lon="1.436">
        <ele>169.9</ele>
        <time>2015-04-05T10:01:49.564Z</time>
      </trkpt>
      <trkpt lat="43.50213" lon="1.43578">
        <ele>168.7</ele>
        <time>2015-04-05T10:01:55.564Z</time>
      </trkpt>
      <trkpt lat="43.50213" lon="1.43564">
        <ele>168</ele>
        <time>2015-04-05T10:02:01.564Z</time>
      </trkpt>
      <trkpt lat="43.50194" lon="1.4355">
        <ele>167.2</ele>
        <time>2015-04-05T10:02:07.564Z</time>
      </trkpt>
      <trkpt lat="43.50171" lon="1.43534">
        <ele>167</ele>
        <time>2015-04-05T10:02:13.557Z</time>
      </trkpt>
      <trkpt lat="43.50162" lon="1.43519">
        <ele>166.9</ele>
        <time>2015-04-05T10:02:19.565Z</time>
      </trkpt>
      <trkpt lat="43.50159" lon="1.43516">
        <ele>166.8</ele>
        <time>2015-04-05T10:02:25.564Z</time>
      </trkpt>
      <trkpt lat="43.50156" lon="1.43519">
        <ele>167.6</ele>
        <time>2015-04-05T10:02:31.564Z</time>
      </trkpt>
      <trkpt lat="43.50156" lon="1.43516">
        <ele>167.6</ele>
        <time>2015-04-05T10:02:37.554Z</time>
      </trkpt>
      <trkpt lat="43.50156" lon="1.43516">
        <ele>167.6</ele>
        <time>2015-04-05T10:02:42.796Z</time>
      </trkpt>
      <trkpt lat="43.50159" lon="1.43577">
        <ele>166.7</ele>
        <time>2015-04-05T10:03:07.555Z</time>
      </trkpt>
      <trkpt lat="43.50158" lon="1.43565">
        <ele>166.7</ele>
        <time>2015-04-05T10:03:12.566Z</time>
      </trkpt>
      <trkpt lat="43.50158" lon="1.43551">
        <ele>166.7</ele>
        <time>2015-04-05T10:03:18.564Z</time>
      </trkpt>
      <trkpt lat="43.50157" lon="1.43544">
        <ele>166.7</ele>
        <time>2015-04-05T10:03:24.552Z</time>
      </trkpt>
      <trkpt lat="43.50157" lon="1.43532">
        <ele>166.7</ele>
        <time>2015-04-05T10:03:30.563Z</time>
      </trkpt>
      <trkpt lat="43.50157" lon="1.43522">
        <ele>166.7</ele>
        <time>2015-04-05T10:03:36.554Z</time>
      </trkpt>
      <trkpt lat="43.50156" lon="1.43513">
        <ele>166.7</ele>
        <time>2015-04-05T10:04:22.587Z</time>
      </trkpt>
      <trkpt lat="43.50154" lon="1.43503">
        <ele>166.9</ele>
        <time>2015-04-05T10:04:39.553Z</time>
      </trkpt>
      <trkpt lat="43.50152" lon="1.435">
        <ele>166.9</ele>
        <time>2015-04-05T10:04:45.564Z</time>
      </trkpt>
      <trkpt lat="43.50149" lon="1.43509">
        <ele>167</ele>
        <time>2015-04-05T10:05:23.637Z</time>
      </trkpt>
      <trkpt lat="43.50148" lon="1.43511">
        <ele>167</ele>
        <time>2015-04-05T10:05:30.552Z</time>
      </trkpt>
      <trkpt lat="43.50145" lon="1.43516">
        <ele>167</ele>
        <time>2015-04-05T10:06:23.555Z</time>
      </trkpt>
      <trkpt lat="43.50145" lon="1.43525">
        <ele>167</ele>
        <time>2015-04-05T10:06:29.175Z</time>
      </trkpt>
      <trkpt lat="43.50145" lon="1.43525">
        <ele>167</ele>
        <time>2015-04-05T10:06:46.562Z</time>
      </trkpt>
      <trkpt lat="43.5016" lon="1.43508">
        <ele>167.8</ele>
        <time>2015-04-05T10:06:52.554Z</time>
      </trkpt>
      <trkpt lat="43.50168" lon="1.43498">
        <ele>169.9</ele>
        <time>2015-04-05T10:06:57.580Z</time>
      </trkpt>
      <trkpt lat="43.50179" lon="1.43478">
        <ele>170.1</ele>
        <time>2015-04-05T10:07:03.555Z</time>
      </trkpt>
      <trkpt lat="43.50194" lon="1.43456">
        <ele>169.8</ele>
        <time>2015-04-05T10:07:09.564Z</time>
      </trkpt>
      <trkpt lat="43.50206" lon="1.43438">
        <ele>170.1</ele>
        <time>2015-04-05T10:07:15.562Z</time>
      </trkpt>
      <trkpt lat="43.50216" lon="1.43424">
        <ele>171.7</ele>
        <time>2015-04-05T10:07:21.563Z</time>
      </trkpt>
      <trkpt lat="43.50224" lon="1.43415">
        <ele>172.7</ele>
        <time>2015-04-05T10:07:27.564Z</time>
      </trkpt>
      <trkpt lat="43.50229" lon="1.43406">
        <ele>173</ele>
        <time>2015-04-05T10:07:33.590Z</time>
      </trkpt>
      <trkpt lat="43.50234" lon="1.43404">
        <ele>172.7</ele>
        <time>2015-04-05T10:07:39.555Z</time>
      </trkpt>
      <trkpt lat="43.50244" lon="1.43398">
        <ele>172.8</ele>
        <time>2015-04-05T10:07:45.555Z</time>
      </trkpt>
      <trkpt lat="43.50253" lon="1.43392">
        <ele>173.8</ele>
        <time>2015-04-05T10:07:51.564Z</time>
      </trkpt>
      <trkpt lat="43.50261" lon="1.43386">
        <ele>174.6</ele>
        <time>2015-04-05T10:07:57.563Z</time>
      </trkpt>
      <trkpt lat="43.50269" lon="1.43377">
        <ele>175.1</ele>
        <time>2015-04-05T10:08:02.557Z</time>
      </trkpt>
      <trkpt lat="43.50276" lon="1.43368">
        <ele>175.9</ele>
        <time>2015-04-05T10:08:07.566Z</time>
      </trkpt>
      <trkpt lat="43.50283" lon="1.43356">
        <ele>176.8</ele>
        <time>2015-04-05T10:08:13.556Z</time>
      </trkpt>
      <trkpt lat="43.50291" lon="1.43344">
        <ele>177.7</ele>
        <time>2015-04-05T10:08:19.564Z</time>
      </trkpt>
      <trkpt lat="43.50298" lon="1.43335">
        <ele>179</ele>
        <time>2015-04-05T10:08:25.586Z</time>
      </trkpt>
      <trkpt lat="43.50305" lon="1.43325">
        <ele>180.3</ele>
        <time>2015-04-05T10:08:31.565Z</time>
      </trkpt>
      <trkpt lat="43.50313" lon="1.43314">
        <ele>181.5</ele>
        <time>2015-04-05T10:08:37.555Z</time>
      </trkpt>
      <trkpt lat="43.5032" lon="1.43303">
        <ele>182.4</ele>
        <time>2015-04-05T10:08:43.554Z</time>
      </trkpt>
      <trkpt lat="43.50327" lon="1.43292">
        <ele>183.4</ele>
        <time>2015-04-05T10:08:49.565Z</time>
      </trkpt>
      <trkpt lat="43.50334" lon="1.43281">
        <ele>184.4</ele>
        <time>2015-04-05T10:08:55.554Z</time>
      </trkpt>
      <trkpt lat="43.50341" lon="1.43271">
        <ele>185.7</ele>
        <time>2015-04-05T10:09:01.557Z</time>
      </trkpt>
      <trkpt lat="43.50348" lon="1.43262">
        <ele>186.8</ele>
        <time>2015-04-05T10:09:07.567Z</time>
      </trkpt>
      <trkpt lat="43.50354" lon="1.43249">
        <ele>187.9</ele>
        <time>2015-04-05T10:09:13.558Z</time>
      </trkpt>
      <trkpt lat="43.5036" lon="1.43238">
        <ele>188.9</ele>
        <time>2015-04-05T10:09:19.565Z</time>
      </trkpt>
      <trkpt lat="43.50365" lon="1.43228">
        <ele>189.8</ele>
        <time>2015-04-05T10:09:25.557Z</time>
      </trkpt>
      <trkpt lat="43.50366" lon="1.43216">
        <ele>191.7</ele>
        <time>2015-04-05T10:09:31.566Z</time>
      </trkpt>
      <trkpt lat="43.50367" lon="1.43206">
        <ele>194.1</ele>
        <time>2015-04-05T10:09:37.565Z</time>
      </trkpt>
      <trkpt lat="43.50365" lon="1.43196">
        <ele>197.1</ele>
        <time>2015-04-05T10:09:43.557Z</time>
      </trkpt>
      <trkpt lat="43.50361" lon="1.43187">
        <ele>199.8</ele>
        <time>2015-04-05T10:09:49.566Z</time>
      </trkpt>
      <trkpt lat="43.50359" lon="1.43178">
        <ele>203.4</ele>
        <time>2015-04-05T10:09:55.564Z</time>
      </trkpt>
      <trkpt lat="43.50357" lon="1.43164">
        <ele>206.4</ele>
        <time>2015-04-05T10:10:01.554Z</time>
      </trkpt>
      <trkpt lat="43.50358" lon="1.43152">
        <ele>209.1</ele>
        <time>2015-04-05T10:10:06.577Z</time>
      </trkpt>
      <trkpt lat="43.50358" lon="1.43136">
        <ele>212.1</ele>
        <time>2015-04-05T10:10:12.562Z</time>
      </trkpt>
      <trkpt lat="43.50361" lon="1.43121">
        <ele>213.3</ele>
        <time>2015-04-05T10:10:18.553Z</time>
      </trkpt>
      <trkpt lat="43.50365" lon="1.43107">
        <ele>214.4</ele>
        <time>2015-04-05T10:10:24.562Z</time>
      </trkpt>
      <trkpt lat="43.50369" lon="1.43091">
        <ele>213.8</ele>
        <time>2015-04-05T10:10:30.565Z</time>
      </trkpt>
      <trkpt lat="43.50374" lon="1.43077">
        <ele>213.2</ele>
        <time>2015-04-05T10:10:36.556Z</time>
      </trkpt>
      <trkpt lat="43.50378" lon="1.43064">
        <ele>212.7</ele>
        <time>2015-04-05T10:10:41.564Z</time>
      </trkpt>
      <trkpt lat="43.50384" lon="1.4305">
        <ele>212.6</ele>
        <time>2015-04-05T10:10:47.563Z</time>
      </trkpt>
      <trkpt lat="43.5039" lon="1.43037">
        <ele>212.6</ele>
        <time>2015-04-05T10:10:53.556Z</time>
      </trkpt>
      <trkpt lat="43.50397" lon="1.43025">
        <ele>212.5</ele>
        <time>2015-04-05T10:10:59.555Z</time>
      </trkpt>
      <trkpt lat="43.50405" lon="1.43016">
        <ele>213.1</ele>
        <time>2015-04-05T10:11:05.555Z</time>
      </trkpt>
      <trkpt lat="43.50413" lon="1.4302">
        <ele>214</ele>
        <time>2015-04-05T10:11:11.555Z</time>
      </trkpt>
      <trkpt lat="43.50417" lon="1.43033">
        <ele>215.1</ele>
        <time>2015-04-05T10:11:17.563Z</time>
      </trkpt>
      <trkpt lat="43.5042" lon="1.43045">
        <ele>216.5</ele>
        <time>2015-04-05T10:11:23.563Z</time>
      </trkpt>
      <trkpt lat="43.50424" lon="1.43058">
        <ele>217.9</ele>
        <time>2015-04-05T10:11:29.555Z</time>
      </trkpt>
      <trkpt lat="43.50426" lon="1.43067">
        <ele>219.2</ele>
        <time>2015-04-05T10:11:34.581Z</time>
      </trkpt>
      <trkpt lat="43.50429" lon="1.43075">
        <ele>222</ele>
        <time>2015-04-05T10:11:40.562Z</time>
      </trkpt>
      <trkpt lat="43.50432" lon="1.4309">
        <ele>224.6</ele>
        <time>2015-04-05T10:11:46.556Z</time>
      </trkpt>
      <trkpt lat="43.50436" lon="1.431">
        <ele>228.1</ele>
        <time>2015-04-05T10:11:52.563Z</time>
      </trkpt>
      <trkpt lat="43.5044" lon="1.43111">
        <ele>232.4</ele>
        <time>2015-04-05T10:11:58.554Z</time>
      </trkpt>
      <trkpt lat="43.50443" lon="1.43124">
        <ele>235.8</ele>
        <time>2015-04-05T10:12:04.554Z</time>
      </trkpt>
      <trkpt lat="43.50449" lon="1.43135">
        <ele>238.6</ele>
        <time>2015-04-05T10:12:10.562Z</time>
      </trkpt>
      <trkpt lat="43.50457" lon="1.43145">
        <ele>241</ele>
        <time>2015-04-05T10:12:16.554Z</time>
      </trkpt>
      <trkpt lat="43.50465" lon="1.43151">
        <ele>242.2</ele>
        <time>2015-04-05T10:12:22.562Z</time>
      </trkpt>
      <trkpt lat="43.50469" lon="1.43161">
        <ele>242.9</ele>
        <time>2015-04-05T10:12:27.554Z</time>
      </trkpt>
      <trkpt lat="43.50472" lon="1.43178">
        <ele>243.7</ele>
        <time>2015-04-05T10:12:33.562Z</time>
      </trkpt>
      <trkpt lat="43.50482" lon="1.43189">
        <ele>244.2</ele>
        <time>2015-04-05T10:12:39.555Z</time>
      </trkpt>
      <trkpt lat="43.50497" lon="1.43197">
        <ele>244</ele>
        <time>2015-04-05T10:12:45.551Z</time>
      </trkpt>
      <trkpt lat="43.5051" lon="1.43204">
        <ele>240.3</ele>
        <time>2015-04-05T10:12:51.563Z</time>
      </trkpt>
      <trkpt lat="43.50511" lon="1.43206">
        <ele>236.4</ele>
        <time>2015-04-05T10:12:57.556Z</time>
      </trkpt>
      <trkpt lat="43.50507" lon="1.43218">
        <ele>234.9</ele>
        <time>2015-04-05T10:13:03.555Z</time>
      </trkpt>
      <trkpt lat="43.50515" lon="1.43235">
        <ele>235.1</ele>
        <time>2015-04-05T10:13:09.563Z</time>
      </trkpt>
      <trkpt lat="43.50524" lon="1.43247">
        <ele>234.6</ele>
        <time>2015-04-05T10:13:14.562Z</time>
      </trkpt>
      <trkpt lat="43.50538" lon="1.4326">
        <ele>234.1</ele>
        <time>2015-04-05T10:13:20.562Z</time>
      </trkpt>
      <trkpt lat="43.5055" lon="1.43269">
        <ele>232.9</ele>
        <time>2015-04-05T10:13:25.564Z</time>
      </trkpt>
      <trkpt lat="43.50565" lon="1.43279">
        <ele>232</ele>
        <time>2015-04-05T10:13:31.565Z</time>
      </trkpt>
      <trkpt lat="43.50579" lon="1.43289">
        <ele>231.6</ele>
        <time>2015-04-05T10:13:37.555Z</time>
      </trkpt>
      <trkpt lat="43.50579" lon="1.43289">
        <ele>231.6</ele>
        <time>2015-04-05T10:13:43.206Z</time>
      </trkpt>
      <trkpt lat="43.50593" lon="1.43298">
        <ele>232.1</ele>
        <time>2015-04-05T10:13:48.440Z</time>
      </trkpt>
      <trkpt lat="43.50614" lon="1.43315">
        <ele>232.5</ele>
        <time>2015-04-05T10:13:55.555Z</time>
      </trkpt>
      <trkpt lat="43.50626" lon="1.43324">
        <ele>233.1</ele>
        <time>2015-04-05T10:14:01.554Z</time>
      </trkpt>
      <trkpt lat="43.50637" lon="1.4333">
        <ele>233.8</ele>
        <time>2015-04-05T10:14:07.567Z</time>
      </trkpt>
      <trkpt lat="43.50648" lon="1.43337">
        <ele>234.7</ele>
        <time>2015-04-05T10:14:13.566Z</time>
      </trkpt>
      <trkpt lat="43.50658" lon="1.43344">
        <ele>235</ele>
        <time>2015-04-05T10:14:19.563Z</time>
      </trkpt>
      <trkpt lat="43.50669" lon="1.43351">
        <ele>235.1</ele>
        <time>2015-04-05T10:14:25.564Z</time>
      </trkpt>
      <trkpt lat="43.50679" lon="1.43357">
        <ele>234.8</ele>
        <time>2015-04-05T10:14:31.564Z</time>
      </trkpt>
      <trkpt lat="43.5069" lon="1.43364">
        <ele>234.6</ele>
        <time>2015-04-05T10:14:37.564Z</time>
      </trkpt>
      <trkpt lat="43.50701" lon="1.4337">
        <ele>234.2</ele>
        <time>2015-04-05T10:14:43.564Z</time>
      </trkpt>
      <trkpt lat="43.50714" lon="1.43377">
        <ele>233.5</ele>
        <time>2015-04-05T10:14:49.558Z</time>
      </trkpt>
      <trkpt lat="43.5073" lon="1.43384">
        <ele>232.5</ele>
        <time>2015-04-05T10:14:55.565Z</time>
      </trkpt>
      <trkpt lat="43.50751" lon="1.43392">
        <ele>231.2</ele>
        <time>2015-04-05T10:15:01.565Z</time>
      </trkpt>
      <trkpt lat="43.50778" lon="1.43396">
        <ele>228.9</ele>
        <time>2015-04-05T10:15:07.564Z</time>
      </trkpt>
      <trkpt lat="43.50798" lon="1.43407">
        <ele>227.3</ele>
        <time>2015-04-05T10:15:13.564Z</time>
      </trkpt>
      <trkpt lat="43.50806" lon="1.43425">
        <ele>227.3</ele>
        <time>2015-04-05T10:15:19.557Z</time>
      </trkpt>
      <trkpt lat="43.50834" lon="1.43441">
        <ele>227.8</ele>
        <time>2015-04-05T10:15:25.565Z</time>
      </trkpt>
      <trkpt lat="43.50834" lon="1.43441">
        <ele>227.8</ele>
        <time>2015-04-05T10:15:31.350Z</time>
      </trkpt>
      <trkpt lat="43.50912" lon="1.43485">
        <ele>225.1</ele>
        <time>2015-04-05T10:15:37.564Z</time>
      </trkpt>
      <trkpt lat="43.50945" lon="1.43505">
        <ele>225.7</ele>
        <time>2015-04-05T10:15:43.556Z</time>
      </trkpt>
      <trkpt lat="43.50967" lon="1.43514">
        <ele>224.4</ele>
        <time>2015-04-05T10:15:49.564Z</time>
      </trkpt>
      <trkpt lat="43.50976" lon="1.43489">
        <ele>221.3</ele>
        <time>2015-04-05T10:15:55.565Z</time>
      </trkpt>
      <trkpt lat="43.50982" lon="1.43436">
        <ele>218.3</ele>
        <time>2015-04-05T10:16:01.554Z</time>
      </trkpt>
      <trkpt lat="43.50994" lon="1.43389">
        <ele>216.3</ele>
        <time>2015-04-05T10:16:07.564Z</time>
      </trkpt>
      <trkpt lat="43.51008" lon="1.43392">
        <ele>216.1</ele>
        <time>2015-04-05T10:16:13.565Z</time>
      </trkpt>
      <trkpt lat="43.51019" lon="1.43388">
        <ele>219</ele>
        <time>2015-04-05T10:16:19.555Z</time>
      </trkpt>
      <trkpt lat="43.51031" lon="1.4338">
        <ele>222.1</ele>
        <time>2015-04-05T10:16:25.565Z</time>
      </trkpt>
      <trkpt lat="43.51045" lon="1.4337">
        <ele>224.2</ele>
        <time>2015-04-05T10:16:31.572Z</time>
      </trkpt>
      <trkpt lat="43.51059" lon="1.43358">
        <ele>226.1</ele>
        <time>2015-04-05T10:16:37.559Z</time>
      </trkpt>
      <trkpt lat="43.51071" lon="1.43347">
        <ele>227.8</ele>
        <time>2015-04-05T10:16:43.564Z</time>
      </trkpt>
      <trkpt lat="43.51083" lon="1.43337">
        <ele>230.3</ele>
        <time>2015-04-05T10:16:49.564Z</time>
      </trkpt>
      <trkpt lat="43.51095" lon="1.43326">
        <ele>233.1</ele>
        <time>2015-04-05T10:16:55.557Z</time>
      </trkpt>
      <trkpt lat="43.51106" lon="1.43314">
        <ele>235.4</ele>
        <time>2015-04-05T10:17:01.565Z</time>
      </trkpt>
      <trkpt lat="43.51117" lon="1.43301">
        <ele>235.8</ele>
        <time>2015-04-05T10:17:07.564Z</time>
      </trkpt>
      <trkpt lat="43.51128" lon="1.43287">
        <ele>235.3</ele>
        <time>2015-04-05T10:17:13.554Z</time>
      </trkpt>
      <trkpt lat="43.5114" lon="1.43275">
        <ele>236.5</ele>
        <time>2015-04-05T10:17:19.565Z</time>
      </trkpt>
      <trkpt lat="43.51152" lon="1.43271">
        <ele>238.3</ele>
        <time>2015-04-05T10:17:25.565Z</time>
      </trkpt>
      <trkpt lat="43.51156" lon="1.4328">
        <ele>240.4</ele>
        <time>2015-04-05T10:17:31.559Z</time>
      </trkpt>
      <trkpt lat="43.51156" lon="1.43295">
        <ele>242.8</ele>
        <time>2015-04-05T10:17:37.566Z</time>
      </trkpt>
      <trkpt lat="43.51159" lon="1.43309">
        <ele>244.7</ele>
        <time>2015-04-05T10:17:43.565Z</time>
      </trkpt>
      <trkpt lat="43.51163" lon="1.43321">
        <ele>247.9</ele>
        <time>2015-04-05T10:17:49.564Z</time>
      </trkpt>
      <trkpt lat="43.51165" lon="1.4333">
        <ele>251.9</ele>
        <time>2015-04-05T10:17:55.565Z</time>
      </trkpt>
      <trkpt lat="43.51175" lon="1.43342">
        <ele>254</ele>
        <time>2015-04-05T10:18:01.554Z</time>
      </trkpt>
      <trkpt lat="43.51185" lon="1.43349">
        <ele>255.2</ele>
        <time>2015-04-05T10:18:06.581Z</time>
      </trkpt>
      <trkpt lat="43.512" lon="1.43359">
        <ele>254.3</ele>
        <time>2015-04-05T10:18:12.564Z</time>
      </trkpt>
      <trkpt lat="43.51212" lon="1.43364">
        <ele>254.5</ele>
        <time>2015-04-05T10:18:18.556Z</time>
      </trkpt>
      <trkpt lat="43.51226" lon="1.43371">
        <ele>254.6</ele>
        <time>2015-04-05T10:18:24.556Z</time>
      </trkpt>
      <trkpt lat="43.51238" lon="1.43377">
        <ele>252.9</ele>
        <time>2015-04-05T10:18:30.563Z</time>
      </trkpt>
      <trkpt lat="43.51248" lon="1.43383">
        <ele>252.9</ele>
        <time>2015-04-05T10:18:36.556Z</time>
      </trkpt>
      <trkpt lat="43.51255" lon="1.43387">
        <ele>238</ele>
        <time>2015-04-05T10:20:22.557Z</time>
      </trkpt>
      <trkpt lat="43.51265" lon="1.43372">
        <ele>238.2</ele>
        <time>2015-04-05T10:20:28.562Z</time>
      </trkpt>
      <trkpt lat="43.51274" lon="1.43342">
        <ele>236.7</ele>
        <time>2015-04-05T10:20:34.562Z</time>
      </trkpt>
      <trkpt lat="43.51281" lon="1.43315">
        <ele>234.7</ele>
        <time>2015-04-05T10:20:39.563Z</time>
      </trkpt>
      <trkpt lat="43.51289" lon="1.43277">
        <ele>232.9</ele>
        <time>2015-04-05T10:20:45.564Z</time>
      </trkpt>
      <trkpt lat="43.51301" lon="1.43238">
        <ele>230</ele>
        <time>2015-04-05T10:20:51.556Z</time>
      </trkpt>
      <trkpt lat="43.51317" lon="1.43212">
        <ele>229.4</ele>
        <time>2015-04-05T10:20:56.562Z</time>
      </trkpt>
      <trkpt lat="43.51334" lon="1.43197">
        <ele>228.5</ele>
        <time>2015-04-05T10:21:01.565Z</time>
      </trkpt>
      <trkpt lat="43.51358" lon="1.43174">
        <ele>226.3</ele>
        <time>2015-04-05T10:21:07.557Z</time>
      </trkpt>
      <trkpt lat="43.51385" lon="1.43151">
        <ele>223.2</ele>
        <time>2015-04-05T10:21:12.565Z</time>
      </trkpt>
      <trkpt lat="43.51409" lon="1.43128">
        <ele>219.7</ele>
        <time>2015-04-05T10:21:18.562Z</time>
      </trkpt>
      <trkpt lat="43.51435" lon="1.43097">
        <ele>214.5</ele>
        <time>2015-04-05T10:21:24.553Z</time>
      </trkpt>
      <trkpt lat="43.51458" lon="1.43071">
        <ele>208.9</ele>
        <time>2015-04-05T10:21:29.580Z</time>
      </trkpt>
      <trkpt lat="43.51485" lon="1.43038">
        <ele>204.5</ele>
        <time>2015-04-05T10:21:35.562Z</time>
      </trkpt>
      <trkpt lat="43.51517" lon="1.43008">
        <ele>201</ele>
        <time>2015-04-05T10:21:41.562Z</time>
      </trkpt>
      <trkpt lat="43.51542" lon="1.42982">
        <ele>197.1</ele>
        <time>2015-04-05T10:21:47.562Z</time>
      </trkpt>
      <trkpt lat="43.51571" lon="1.42957">
        <ele>190.8</ele>
        <time>2015-04-05T10:21:53.562Z</time>
      </trkpt>
      <trkpt lat="43.51597" lon="1.42928">
        <ele>186.7</ele>
        <time>2015-04-05T10:21:59.555Z</time>
      </trkpt>
      <trkpt lat="43.51617" lon="1.42906">
        <ele>182.1</ele>
        <time>2015-04-05T10:22:04.563Z</time>
      </trkpt>
      <trkpt lat="43.51633" lon="1.42887">
        <ele>180.1</ele>
        <time>2015-04-05T10:22:10.553Z</time>
      </trkpt>
      <trkpt lat="43.51645" lon="1.42872">
        <ele>178.3</ele>
        <time>2015-04-05T10:22:15.563Z</time>
      </trkpt>
      <trkpt lat="43.51662" lon="1.42848">
        <ele>178.8</ele>
        <time>2015-04-05T10:22:21.562Z</time>
      </trkpt>
      <trkpt lat="43.51676" lon="1.42823">
        <ele>178.4</ele>
        <time>2015-04-05T10:22:27.562Z</time>
      </trkpt>
      <trkpt lat="43.51698" lon="1.42787">
        <ele>177.4</ele>
        <time>2015-04-05T10:22:33.552Z</time>
      </trkpt>
      <trkpt lat="43.51714" lon="1.42752">
        <ele>175.9</ele>
        <time>2015-04-05T10:22:38.562Z</time>
      </trkpt>
      <trkpt lat="43.51722" lon="1.42713">
        <ele>174.8</ele>
        <time>2015-04-05T10:22:43.565Z</time>
      </trkpt>
      <trkpt lat="43.51733" lon="1.42665">
        <ele>172.3</ele>
        <time>2015-04-05T10:22:49.565Z</time>
      </trkpt>
      <trkpt lat="43.51742" lon="1.42605">
        <ele>167.8</ele>
        <time>2015-04-05T10:22:55.555Z</time>
      </trkpt>
      <trkpt lat="43.51763" lon="1.4255">
        <ele>163.1</ele>
        <time>2015-04-05T10:23:01.564Z</time>
      </trkpt>
      <trkpt lat="43.51775" lon="1.42509">
        <ele>159.3</ele>
        <time>2015-04-05T10:23:07.564Z</time>
      </trkpt>
      <trkpt lat="43.51771" lon="1.42466">
        <ele>155.7</ele>
        <time>2015-04-05T10:23:13.564Z</time>
      </trkpt>
      <trkpt lat="43.51767" lon="1.42419">
        <ele>152.1</ele>
        <time>2015-04-05T10:23:19.564Z</time>
      </trkpt>
      <trkpt lat="43.51768" lon="1.42377">
        <ele>150.1</ele>
        <time>2015-04-05T10:23:25.566Z</time>
      </trkpt>
      <trkpt lat="43.51776" lon="1.42335">
        <ele>147.8</ele>
        <time>2015-04-05T10:23:31.565Z</time>
      </trkpt>
      <trkpt lat="43.51788" lon="1.423">
        <ele>148.2</ele>
        <time>2015-04-05T10:23:37.564Z</time>
      </trkpt>
      <trkpt lat="43.51807" lon="1.42265">
        <ele>148.2</ele>
        <time>2015-04-05T10:23:43.557Z</time>
      </trkpt>
      <trkpt lat="43.51821" lon="1.42245">
        <ele>148.5</ele>
        <time>2015-04-05T10:23:49.564Z</time>
      </trkpt>
      <trkpt lat="43.51824" lon="1.42241">
        <ele>149.5</ele>
        <time>2015-04-05T10:23:55.565Z</time>
      </trkpt>
      <trkpt lat="43.51836" lon="1.42227">
        <ele>150.1</ele>
        <time>2015-04-05T10:24:01.565Z</time>
      </trkpt>
      <trkpt lat="43.51852" lon="1.42196">
        <ele>150.5</ele>
        <time>2015-04-05T10:24:07.566Z</time>
      </trkpt>
      <trkpt lat="43.51866" lon="1.42171">
        <ele>151</ele>
        <time>2015-04-05T10:24:12.565Z</time>
      </trkpt>
      <trkpt lat="43.51882" lon="1.42137">
        <ele>152.1</ele>
        <time>2015-04-05T10:24:18.554Z</time>
      </trkpt>
      <trkpt lat="43.519" lon="1.42099">
        <ele>153.2</ele>
        <time>2015-04-05T10:24:24.562Z</time>
      </trkpt>
      <trkpt lat="43.51917" lon="1.42066">
        <ele>152</ele>
        <time>2015-04-05T10:24:30.562Z</time>
      </trkpt>
      <trkpt lat="43.51936" lon="1.42033">
        <ele>152.4</ele>
        <time>2015-04-05T10:24:36.562Z</time>
      </trkpt>
      <trkpt lat="43.51952" lon="1.42005">
        <ele>152.2</ele>
        <time>2015-04-05T10:24:42.562Z</time>
      </trkpt>
      <trkpt lat="43.51963" lon="1.41981">
        <ele>153.2</ele>
        <time>2015-04-05T10:24:48.562Z</time>
      </trkpt>
      <trkpt lat="43.51968" lon="1.41969">
        <ele>154.6</ele>
        <time>2015-04-05T10:24:54.563Z</time>
      </trkpt>
      <trkpt lat="43.51968" lon="1.41969">
        <ele>154.1</ele>
        <time>2015-04-05T10:25:00.562Z</time>
      </trkpt>
      <trkpt lat="43.51986" lon="1.41984">
        <ele>154.1</ele>
        <time>2015-04-05T10:25:06.562Z</time>
      </trkpt>
      <trkpt lat="43.52008" lon="1.42006">
        <ele>153.4</ele>
        <time>2015-04-05T10:25:12.562Z</time>
      </trkpt>
      <trkpt lat="43.52033" lon="1.42032">
        <ele>152</ele>
        <time>2015-04-05T10:25:18.564Z</time>
      </trkpt>
      <trkpt lat="43.52058" lon="1.42059">
        <ele>150.2</ele>
        <time>2015-04-05T10:25:24.562Z</time>
      </trkpt>
      <trkpt lat="43.52082" lon="1.42086">
        <ele>149.1</ele>
        <time>2015-04-05T10:25:30.562Z</time>
      </trkpt>
      <trkpt lat="43.52107" lon="1.42113">
        <ele>147.8</ele>
        <time>2015-04-05T10:25:36.605Z</time>
      </trkpt>
      <trkpt lat="43.52132" lon="1.42141">
        <ele>146.9</ele>
        <time>2015-04-05T10:25:42.555Z</time>
      </trkpt>
      <trkpt lat="43.52151" lon="1.42166">
        <ele>146.5</ele>
        <time>2015-04-05T10:25:47.579Z</time>
      </trkpt>
      <trkpt lat="43.52172" lon="1.42196">
        <ele>145.2</ele>
        <time>2015-04-05T10:25:53.563Z</time>
      </trkpt>
      <trkpt lat="43.52192" lon="1.42221">
        <ele>145.5</ele>
        <time>2015-04-05T10:25:59.555Z</time>
      </trkpt>
      <trkpt lat="43.52214" lon="1.42223">
        <ele>145.8</ele>
        <time>2015-04-05T10:26:05.556Z</time>
      </trkpt>
      <trkpt lat="43.52235" lon="1.42204">
        <ele>145.1</ele>
        <time>2015-04-05T10:26:11.562Z</time>
      </trkpt>
      <trkpt lat="43.52253" lon="1.42182">
        <ele>144.6</ele>
        <time>2015-04-05T10:26:17.562Z</time>
      </trkpt>
      <trkpt lat="43.52267" lon="1.42163">
        <ele>144.6</ele>
        <time>2015-04-05T10:26:23.562Z</time>
      </trkpt>
      <trkpt lat="43.52275" lon="1.42142">
        <ele>144.7</ele>
        <time>2015-04-05T10:26:29.552Z</time>
      </trkpt>
      <trkpt lat="43.52282" lon="1.42126">
        <ele>143.5</ele>
        <time>2015-04-05T10:26:35.562Z</time>
      </trkpt>
      <trkpt lat="43.52281" lon="1.42127">
        <ele>143.7</ele>
        <time>2015-04-05T10:27:16.562Z</time>
      </trkpt>
      <trkpt lat="43.52291" lon="1.42125">
        <ele>143.2</ele>
        <time>2015-04-05T10:27:22.577Z</time>
      </trkpt>
      <trkpt lat="43.52292" lon="1.42121">
        <ele>143.3</ele>
        <time>2015-04-05T10:27:34.562Z</time>
      </trkpt>
      <trkpt lat="43.52297" lon="1.42114">
        <ele>142.8</ele>
        <time>2015-04-05T10:27:40.562Z</time>
      </trkpt>
      <trkpt lat="43.52309" lon="1.42093">
        <ele>142.6</ele>
        <time>2015-04-05T10:27:46.553Z</time>
      </trkpt>
      <trkpt lat="43.52324" lon="1.4206">
        <ele>142.6</ele>
        <time>2015-04-05T10:27:52.561Z</time>
      </trkpt>
      <trkpt lat="43.5234" lon="1.42025">
        <ele>142.5</ele>
        <time>2015-04-05T10:27:58.551Z</time>
      </trkpt>
      <trkpt lat="43.52357" lon="1.41989">
        <ele>142.3</ele>
        <time>2015-04-05T10:28:04.554Z</time>
      </trkpt>
      <trkpt lat="43.52371" lon="1.41963">
        <ele>142.4</ele>
        <time>2015-04-05T10:28:09.561Z</time>
      </trkpt>
      <trkpt lat="43.52389" lon="1.41929">
        <ele>143</ele>
        <time>2015-04-05T10:28:15.561Z</time>
      </trkpt>
      <trkpt lat="43.52404" lon="1.41897">
        <ele>142.3</ele>
        <time>2015-04-05T10:28:21.562Z</time>
      </trkpt>
      <trkpt lat="43.52416" lon="1.41875">
        <ele>142</ele>
        <time>2015-04-05T10:28:27.561Z</time>
      </trkpt>
      <trkpt lat="43.52431" lon="1.41865">
        <ele>142.2</ele>
        <time>2015-04-05T10:28:33.554Z</time>
      </trkpt>
      <trkpt lat="43.52449" lon="1.41865">
        <ele>143.6</ele>
        <time>2015-04-05T10:28:38.576Z</time>
      </trkpt>
      <trkpt lat="43.52469" lon="1.41867">
        <ele>143.9</ele>
        <time>2015-04-05T10:28:43.564Z</time>
      </trkpt>
      <trkpt lat="43.52494" lon="1.41878">
        <ele>145.7</ele>
        <time>2015-04-05T10:28:49.565Z</time>
      </trkpt>
      <trkpt lat="43.52518" lon="1.41894">
        <ele>146.8</ele>
        <time>2015-04-05T10:28:55.553Z</time>
      </trkpt>
      <trkpt lat="43.52532" lon="1.41918">
        <ele>149.7</ele>
        <time>2015-04-05T10:29:01.552Z</time>
      </trkpt>
      <trkpt lat="43.52548" lon="1.41945">
        <ele>153</ele>
        <time>2015-04-05T10:29:07.564Z</time>
      </trkpt>
      <trkpt lat="43.52565" lon="1.41977">
        <ele>155.2</ele>
        <time>2015-04-05T10:29:13.553Z</time>
      </trkpt>
      <trkpt lat="43.52572" lon="1.42002">
        <ele>157.7</ele>
        <time>2015-04-05T10:29:19.565Z</time>
      </trkpt>
      <trkpt lat="43.52581" lon="1.42019">
        <ele>160.5</ele>
        <time>2015-04-05T10:29:25.564Z</time>
      </trkpt>
      <trkpt lat="43.52597" lon="1.42029">
        <ele>161.7</ele>
        <time>2015-04-05T10:29:31.576Z</time>
      </trkpt>
      <trkpt lat="43.52609" lon="1.42037">
        <ele>163</ele>
        <time>2015-04-05T10:29:37.553Z</time>
      </trkpt>
      <trkpt lat="43.52621" lon="1.42048">
        <ele>164</ele>
        <time>2015-04-05T10:29:43.559Z</time>
      </trkpt>
      <trkpt lat="43.5264" lon="1.42059">
        <ele>164.8</ele>
        <time>2015-04-05T10:29:49.564Z</time>
      </trkpt>
      <trkpt lat="43.52651" lon="1.42074">
        <ele>166.1</ele>
        <time>2015-04-05T10:29:55.557Z</time>
      </trkpt>
      <trkpt lat="43.52656" lon="1.42094">
        <ele>166.4</ele>
        <time>2015-04-05T10:30:01.565Z</time>
      </trkpt>
      <trkpt lat="43.5266" lon="1.42114">
        <ele>167.5</ele>
        <time>2015-04-05T10:30:07.563Z</time>
      </trkpt>
      <trkpt lat="43.52666" lon="1.42136">
        <ele>168.9</ele>
        <time>2015-04-05T10:30:13.554Z</time>
      </trkpt>
      <trkpt lat="43.52673" lon="1.42162">
        <ele>171.1</ele>
        <time>2015-04-05T10:30:19.563Z</time>
      </trkpt>
      <trkpt lat="43.52678" lon="1.42193">
        <ele>172</ele>
        <time>2015-04-05T10:30:25.568Z</time>
      </trkpt>
      <trkpt lat="43.52681" lon="1.42227">
        <ele>171.7</ele>
        <time>2015-04-05T10:30:31.564Z</time>
      </trkpt>
      <trkpt lat="43.52674" lon="1.42256">
        <ele>173.7</ele>
        <time>2015-04-05T10:30:37.564Z</time>
      </trkpt>
      <trkpt lat="43.52672" lon="1.4227">
        <ele>175.2</ele>
        <time>2015-04-05T10:30:43.564Z</time>
      </trkpt>
      <trkpt lat="43.52682" lon="1.42276">
        <ele>176.1</ele>
        <time>2015-04-05T10:30:49.564Z</time>
      </trkpt>
      <trkpt lat="43.52687" lon="1.42279">
        <ele>174.5</ele>
        <time>2015-04-05T10:31:13.563Z</time>
      </trkpt>
      <trkpt lat="43.52692" lon="1.42286">
        <ele>166.8</ele>
        <time>2015-04-05T10:31:19.564Z</time>
      </trkpt>
      <trkpt lat="43.52691" lon="1.42294">
        <ele>163.2</ele>
        <time>2015-04-05T10:31:36.563Z</time>
      </trkpt>
      <trkpt lat="43.52692" lon="1.42299">
        <ele>162.7</ele>
        <time>2015-04-05T10:31:41.568Z</time>
      </trkpt>
      <trkpt lat="43.52695" lon="1.42304">
        <ele>162.4</ele>
        <time>2015-04-05T10:31:47.563Z</time>
      </trkpt>
      <trkpt lat="43.52699" lon="1.42313">
        <ele>162</ele>
        <time>2015-04-05T10:31:53.553Z</time>
      </trkpt>
      <trkpt lat="43.52705" lon="1.42321">
        <ele>162</ele>
        <time>2015-04-05T10:31:58.580Z</time>
      </trkpt>
      <trkpt lat="43.52711" lon="1.42332">
        <ele>162.2</ele>
        <time>2015-04-05T10:32:04.562Z</time>
      </trkpt>
      <trkpt lat="43.52716" lon="1.42341">
        <ele>161.8</ele>
        <time>2015-04-05T10:32:09.553Z</time>
      </trkpt>
      <trkpt lat="43.52718" lon="1.42346">
        <ele>160.8</ele>
        <time>2015-04-05T10:32:15.562Z</time>
      </trkpt>
      <trkpt lat="43.52724" lon="1.42361">
        <ele>158.1</ele>
        <time>2015-04-05T10:32:21.554Z</time>
      </trkpt>
      <trkpt lat="43.5273" lon="1.42362">
        <ele>155.3</ele>
        <time>2015-04-05T10:32:33.563Z</time>
      </trkpt>
      <trkpt lat="43.52734" lon="1.42358">
        <ele>155</ele>
        <time>2015-04-05T10:32:39.559Z</time>
      </trkpt>
      <trkpt lat="43.52733" lon="1.42342">
        <ele>154.6</ele>
        <time>2015-04-05T10:32:44.553Z</time>
      </trkpt>
      <trkpt lat="43.5273" lon="1.4233">
        <ele>154.5</ele>
        <time>2015-04-05T10:32:49.603Z</time>
      </trkpt>
      <trkpt lat="43.52724" lon="1.42319">
        <ele>153.9</ele>
        <time>2015-04-05T10:32:55.553Z</time>
      </trkpt>
      <trkpt lat="43.52716" lon="1.42314">
        <ele>152.9</ele>
        <time>2015-04-05T10:33:01.565Z</time>
      </trkpt>
      <trkpt lat="43.52708" lon="1.42303">
        <ele>152.1</ele>
        <time>2015-04-05T10:33:07.565Z</time>
      </trkpt>
      <trkpt lat="43.52708" lon="1.42296">
        <ele>150.8</ele>
        <time>2015-04-05T10:33:19.577Z</time>
      </trkpt>
      <trkpt lat="43.52703" lon="1.42289">
        <ele>150</ele>
        <time>2015-04-05T10:33:25.565Z</time>
      </trkpt>
      <trkpt lat="43.52699" lon="1.42284">
        <ele>150</ele>
        <time>2015-04-05T10:33:31.561Z</time>
      </trkpt>
      <trkpt lat="43.52694" lon="1.42281">
        <ele>149.3</ele>
        <time>2015-04-05T10:33:37.565Z</time>
      </trkpt>
      <trkpt lat="43.52687" lon="1.42282">
        <ele>148.9</ele>
        <time>2015-04-05T10:33:43.553Z</time>
      </trkpt>
      <trkpt lat="43.52684" lon="1.42271">
        <ele>148.4</ele>
        <time>2015-04-05T10:33:49.565Z</time>
      </trkpt>
      <trkpt lat="43.5269" lon="1.42238">
        <ele>148</ele>
        <time>2015-04-05T10:33:55.557Z</time>
      </trkpt>
      <trkpt lat="43.52686" lon="1.42218">
        <ele>148.4</ele>
        <time>2015-04-05T10:34:01.567Z</time>
      </trkpt>
      <trkpt lat="43.52682" lon="1.42196">
        <ele>149.4</ele>
        <time>2015-04-05T10:34:07.565Z</time>
      </trkpt>
      <trkpt lat="43.52679" lon="1.42172">
        <ele>150.8</ele>
        <time>2015-04-05T10:34:13.556Z</time>
      </trkpt>
      <trkpt lat="43.52673" lon="1.42147">
        <ele>152</ele>
        <time>2015-04-05T10:34:19.563Z</time>
      </trkpt>
      <trkpt lat="43.52669" lon="1.42122">
        <ele>153.3</ele>
        <time>2015-04-05T10:34:25.557Z</time>
      </trkpt>
      <trkpt lat="43.52665" lon="1.42094">
        <ele>154.3</ele>
        <time>2015-04-05T10:34:31.569Z</time>
      </trkpt>
      <trkpt lat="43.52652" lon="1.42076">
        <ele>154.8</ele>
        <time>2015-04-05T10:34:37.557Z</time>
      </trkpt>
      <trkpt lat="43.52638" lon="1.42063">
        <ele>154.9</ele>
        <time>2015-04-05T10:34:42.577Z</time>
      </trkpt>
      <trkpt lat="43.52634" lon="1.42037">
        <ele>154.7</ele>
        <time>2015-04-05T10:34:48.561Z</time>
      </trkpt>
      <trkpt lat="43.52632" lon="1.42018">
        <ele>154.7</ele>
        <time>2015-04-05T10:34:53.562Z</time>
      </trkpt>
      <trkpt lat="43.52629" lon="1.41998">
        <ele>154.9</ele>
        <time>2015-04-05T10:34:59.561Z</time>
      </trkpt>
      <trkpt lat="43.52629" lon="1.41973">
        <ele>154.7</ele>
        <time>2015-04-05T10:35:05.562Z</time>
      </trkpt>
      <trkpt lat="43.52641" lon="1.41948">
        <ele>154.2</ele>
        <time>2015-04-05T10:35:11.553Z</time>
      </trkpt>
      <trkpt lat="43.52645" lon="1.41925">
        <ele>153.5</ele>
        <time>2015-04-05T10:35:16.563Z</time>
      </trkpt>
      <trkpt lat="43.52645" lon="1.41905">
        <ele>152.3</ele>
        <time>2015-04-05T10:35:22.555Z</time>
      </trkpt>
      <trkpt lat="43.52648" lon="1.41878">
        <ele>150.6</ele>
        <time>2015-04-05T10:35:28.551Z</time>
      </trkpt>
      <trkpt lat="43.52646" lon="1.41858">
        <ele>148.5</ele>
        <time>2015-04-05T10:35:33.583Z</time>
      </trkpt>
      <trkpt lat="43.5264" lon="1.41836">
        <ele>146.7</ele>
        <time>2015-04-05T10:35:39.564Z</time>
      </trkpt>
      <trkpt lat="43.52632" lon="1.41812">
        <ele>145</ele>
        <time>2015-04-05T10:35:45.552Z</time>
      </trkpt>
      <trkpt lat="43.52625" lon="1.41792">
        <ele>143.5</ele>
        <time>2015-04-05T10:35:50.553Z</time>
      </trkpt>
      <trkpt lat="43.52614" lon="1.41772">
        <ele>142.6</ele>
        <time>2015-04-05T10:35:56.555Z</time>
      </trkpt>
      <trkpt lat="43.52602" lon="1.41757">
        <ele>141.9</ele>
        <time>2015-04-05T10:36:01.590Z</time>
      </trkpt>
      <trkpt lat="43.5259" lon="1.41736">
        <ele>141.1</ele>
        <time>2015-04-05T10:36:07.564Z</time>
      </trkpt>
      <trkpt lat="43.52579" lon="1.41723">
        <ele>141.6</ele>
        <time>2015-04-05T10:36:13.564Z</time>
      </trkpt>
      <trkpt lat="43.5257" lon="1.4171">
        <ele>141.5</ele>
        <time>2015-04-05T10:36:19.556Z</time>
      </trkpt>
      <trkpt lat="43.52569" lon="1.4169">
        <ele>141.4</ele>
        <time>2015-04-05T10:36:25.565Z</time>
      </trkpt>
      <trkpt lat="43.52563" lon="1.41672">
        <ele>141.1</ele>
        <time>2015-04-05T10:36:31.565Z</time>
      </trkpt>
      <trkpt lat="43.52565" lon="1.41656">
        <ele>139.8</ele>
        <time>2015-04-05T10:36:37.556Z</time>
      </trkpt>
      <trkpt lat="43.52561" lon="1.41651">
        <ele>139.7</ele>
        <time>2015-04-05T10:36:43.564Z</time>
      </trkpt>
      <trkpt lat="43.52559" lon="1.41666">
        <ele>140.6</ele>
        <time>2015-04-05T10:36:49.564Z</time>
      </trkpt>
      <trkpt lat="43.52549" lon="1.41675">
        <ele>142.5</ele>
        <time>2015-04-05T10:36:55.555Z</time>
      </trkpt>
      <trkpt lat="43.52545" lon="1.41679">
        <ele>143.6</ele>
        <time>2015-04-05T10:37:01.557Z</time>
      </trkpt>
      <trkpt lat="43.52545" lon="1.41681">
        <ele>142.9</ele>
        <time>2015-04-05T10:38:19.563Z</time>
      </trkpt>
      <trkpt lat="43.52542" lon="1.4166">
        <ele>139.1</ele>
        <time>2015-04-05T10:38:25.565Z</time>
      </trkpt>
      <trkpt lat="43.52521" lon="1.41638">
        <ele>138.4</ele>
        <time>2015-04-05T10:38:31.556Z</time>
      </trkpt>
      <trkpt lat="43.52507" lon="1.41622">
        <ele>138.1</ele>
        <time>2015-04-05T10:38:36.563Z</time>
      </trkpt>
      <trkpt lat="43.5249" lon="1.41605">
        <ele>138.4</ele>
        <time>2015-04-05T10:38:42.563Z</time>
      </trkpt>
      <trkpt lat="43.52473" lon="1.41586">
        <ele>138.4</ele>
        <time>2015-04-05T10:38:48.555Z</time>
      </trkpt>
      <trkpt lat="43.52458" lon="1.41571">
        <ele>138.8</ele>
        <time>2015-04-05T10:38:53.577Z</time>
      </trkpt>
      <trkpt lat="43.52436" lon="1.4156">
        <ele>139.3</ele>
        <time>2015-04-05T10:38:59.563Z</time>
      </trkpt>
      <trkpt lat="43.52421" lon="1.41544">
        <ele>139.7</ele>
        <time>2015-04-05T10:39:05.555Z</time>
      </trkpt>
      <trkpt lat="43.52405" lon="1.41528">
        <ele>140.3</ele>
        <time>2015-04-05T10:39:11.563Z</time>
      </trkpt>
      <trkpt lat="43.52388" lon="1.41514">
        <ele>140.9</ele>
        <time>2015-04-05T10:39:17.562Z</time>
      </trkpt>
      <trkpt lat="43.52363" lon="1.41505">
        <ele>141.1</ele>
        <time>2015-04-05T10:39:23.554Z</time>
      </trkpt>
      <trkpt lat="43.52341" lon="1.415">
        <ele>142.2</ele>
        <time>2015-04-05T10:39:28.561Z</time>
      </trkpt>
      <trkpt lat="43.52322" lon="1.41493">
        <ele>143.9</ele>
        <time>2015-04-05T10:39:34.562Z</time>
      </trkpt>
      <trkpt lat="43.52307" lon="1.41486">
        <ele>145</ele>
        <time>2015-04-05T10:39:40.556Z</time>
      </trkpt>
      <trkpt lat="43.52291" lon="1.41473">
        <ele>145.7</ele>
        <time>2015-04-05T10:39:46.563Z</time>
      </trkpt>
      <trkpt lat="43.52279" lon="1.4146">
        <ele>147.2</ele>
        <time>2015-04-05T10:39:52.562Z</time>
      </trkpt>
      <trkpt lat="43.52259" lon="1.41439">
        <ele>147.7</ele>
        <time>2015-04-05T10:39:58.562Z</time>
      </trkpt>
      <trkpt lat="43.5224" lon="1.41425">
        <ele>147</ele>
        <time>2015-04-05T10:40:04.554Z</time>
      </trkpt>
      <trkpt lat="43.5224" lon="1.41425">
        <ele>147</ele>
        <time>2015-04-05T10:40:10.472Z</time>
      </trkpt>
      <trkpt lat="43.52375" lon="1.41539">
        <ele>147.4</ele>
        <time>2015-04-05T10:40:16.563Z</time>
      </trkpt>
      <trkpt lat="43.52324" lon="1.41492">
        <ele>147.3</ele>
        <time>2015-04-05T10:40:22.562Z</time>
      </trkpt>
      <trkpt lat="43.52291" lon="1.41465">
        <ele>147.2</ele>
        <time>2015-04-05T10:40:28.555Z</time>
      </trkpt>
      <trkpt lat="43.52258" lon="1.41441">
        <ele>147.8</ele>
        <time>2015-04-05T10:40:33.563Z</time>
      </trkpt>
      <trkpt lat="43.52226" lon="1.4142">
        <ele>148</ele>
        <time>2015-04-05T10:40:39.552Z</time>
      </trkpt>
      <trkpt lat="43.52201" lon="1.41406">
        <ele>148.4</ele>
        <time>2015-04-05T10:40:44.557Z</time>
      </trkpt>
      <trkpt lat="43.52181" lon="1.41395">
        <ele>148.7</ele>
        <time>2015-04-05T10:40:49.566Z</time>
      </trkpt>
      <trkpt lat="43.52158" lon="1.41382">
        <ele>147.7</ele>
        <time>2015-04-05T10:40:55.558Z</time>
      </trkpt>
      <trkpt lat="43.5215" lon="1.41377">
        <ele>147.7</ele>
        <time>2015-04-05T10:41:00.731Z</time>
      </trkpt>
      <trkpt lat="43.52096" lon="1.41344">
        <ele>145.5</ele>
        <time>2015-04-05T10:41:07.554Z</time>
      </trkpt>
      <trkpt lat="43.52079" lon="1.41332">
        <ele>145.1</ele>
        <time>2015-04-05T10:41:13.553Z</time>
      </trkpt>
      <trkpt lat="43.52066" lon="1.41329">
        <ele>145.2</ele>
        <time>2015-04-05T10:41:18.564Z</time>
      </trkpt>
      <trkpt lat="43.52045" lon="1.41321">
        <ele>144.7</ele>
        <time>2015-04-05T10:41:24.562Z</time>
      </trkpt>
      <trkpt lat="43.52026" lon="1.41305">
        <ele>145.3</ele>
        <time>2015-04-05T10:41:30.555Z</time>
      </trkpt>
      <trkpt lat="43.52003" lon="1.41293">
        <ele>146.1</ele>
        <time>2015-04-05T10:41:36.555Z</time>
      </trkpt>
      <trkpt lat="43.52033" lon="1.4131">
        <ele>146.8</ele>
        <time>2015-04-05T10:41:41.562Z</time>
      </trkpt>
      <trkpt lat="43.52006" lon="1.41293">
        <ele>147.5</ele>
        <time>2015-04-05T10:41:47.555Z</time>
      </trkpt>
      <trkpt lat="43.51981" lon="1.41278">
        <ele>146.2</ele>
        <time>2015-04-05T10:41:53.563Z</time>
      </trkpt>
      <trkpt lat="43.51962" lon="1.41262">
        <ele>145.8</ele>
        <time>2015-04-05T10:41:59.562Z</time>
      </trkpt>
      <trkpt lat="43.51944" lon="1.41246">
        <ele>146.8</ele>
        <time>2015-04-05T10:42:05.562Z</time>
      </trkpt>
      <trkpt lat="43.51928" lon="1.4123">
        <ele>148.2</ele>
        <time>2015-04-05T10:42:11.563Z</time>
      </trkpt>
      <trkpt lat="43.5191" lon="1.41212">
        <ele>148.8</ele>
        <time>2015-04-05T10:42:17.562Z</time>
      </trkpt>
      <trkpt lat="43.51894" lon="1.41191">
        <ele>148.7</ele>
        <time>2015-04-05T10:42:23.555Z</time>
      </trkpt>
      <trkpt lat="43.51878" lon="1.41168">
        <ele>147.9</ele>
        <time>2015-04-05T10:42:29.557Z</time>
      </trkpt>
      <trkpt lat="43.51862" lon="1.41148">
        <ele>147.9</ele>
        <time>2015-04-05T10:42:35.562Z</time>
      </trkpt>
      <trkpt lat="43.51824" lon="1.41109">
        <ele>148.1</ele>
        <time>2015-04-05T10:42:41.563Z</time>
      </trkpt>
      <trkpt lat="43.51811" lon="1.41096">
        <ele>147.9</ele>
        <time>2015-04-05T10:42:47.562Z</time>
      </trkpt>
      <trkpt lat="43.51795" lon="1.41081">
        <ele>148</ele>
        <time>2015-04-05T10:42:53.553Z</time>
      </trkpt>
      <trkpt lat="43.51787" lon="1.41085">
        <ele>149.2</ele>
        <time>2015-04-05T10:42:58.562Z</time>
      </trkpt>
      <trkpt lat="43.5178" lon="1.41101">
        <ele>151.4</ele>
        <time>2015-04-05T10:43:04.555Z</time>
      </trkpt>
      <trkpt lat="43.51775" lon="1.41113">
        <ele>153.4</ele>
        <time>2015-04-05T10:43:09.579Z</time>
      </trkpt>
      <trkpt lat="43.51768" lon="1.41124">
        <ele>156.9</ele>
        <time>2015-04-05T10:43:15.555Z</time>
      </trkpt>
      <trkpt lat="43.51757" lon="1.4113">
        <ele>160.8</ele>
        <time>2015-04-05T10:43:21.563Z</time>
      </trkpt>
      <trkpt lat="43.51748" lon="1.41142">
        <ele>165.8</ele>
        <time>2015-04-05T10:43:27.552Z</time>
      </trkpt>
      <trkpt lat="43.51741" lon="1.4116">
        <ele>169.5</ele>
        <time>2015-04-05T10:43:32.563Z</time>
      </trkpt>
      <trkpt lat="43.51735" lon="1.41195">
        <ele>172.1</ele>
        <time>2015-04-05T10:43:37.563Z</time>
      </trkpt>
      <trkpt lat="43.51738" lon="1.41235">
        <ele>175.4</ele>
        <time>2015-04-05T10:43:43.564Z</time>
      </trkpt>
      <trkpt lat="43.51754" lon="1.41271">
        <ele>177.6</ele>
        <time>2015-04-05T10:43:49.553Z</time>
      </trkpt>
      <trkpt lat="43.51762" lon="1.41309">
        <ele>179.1</ele>
        <time>2015-04-05T10:43:55.565Z</time>
      </trkpt>
      <trkpt lat="43.51743" lon="1.41239">
        <ele>181.5</ele>
        <time>2015-04-05T10:44:01.564Z</time>
      </trkpt>
      <trkpt lat="43.51733" lon="1.41278">
        <ele>184.7</ele>
        <time>2015-04-05T10:44:07.564Z</time>
      </trkpt>
      <trkpt lat="43.5172" lon="1.41359">
        <ele>188.5</ele>
        <time>2015-04-05T10:44:13.564Z</time>
      </trkpt>
      <trkpt lat="43.51704" lon="1.41367">
        <ele>189.8</ele>
        <time>2015-04-05T10:44:19.556Z</time>
      </trkpt>
      <trkpt lat="43.51689" lon="1.41369">
        <ele>191.2</ele>
        <time>2015-04-05T10:44:24.563Z</time>
      </trkpt>
      <trkpt lat="43.51673" lon="1.41369">
        <ele>189.2</ele>
        <time>2015-04-05T10:44:30.562Z</time>
      </trkpt>
      <trkpt lat="43.51652" lon="1.41365">
        <ele>186.7</ele>
        <time>2015-04-05T10:44:36.551Z</time>
      </trkpt>
      <trkpt lat="43.51633" lon="1.41357">
        <ele>184.9</ele>
        <time>2015-04-05T10:44:41.563Z</time>
      </trkpt>
      <trkpt lat="43.51624" lon="1.41347">
        <ele>182.4</ele>
        <time>2015-04-05T10:44:47.562Z</time>
      </trkpt>
      <trkpt lat="43.51617" lon="1.41344">
        <ele>179.8</ele>
        <time>2015-04-05T10:44:53.563Z</time>
      </trkpt>
      <trkpt lat="43.51615" lon="1.41347">
        <ele>177.5</ele>
        <time>2015-04-05T10:44:59.555Z</time>
      </trkpt>
      <trkpt lat="43.51643" lon="1.41348">
        <ele>177.1</ele>
        <time>2015-04-05T10:45:04.563Z</time>
      </trkpt>
      <trkpt lat="43.51634" lon="1.41347">
        <ele>177.1</ele>
        <time>2015-04-05T10:45:10.563Z</time>
      </trkpt>
      <trkpt lat="43.51625" lon="1.41346">
        <ele>177.1</ele>
        <time>2015-04-05T10:45:16.563Z</time>
      </trkpt>
      <trkpt lat="43.51617" lon="1.4134">
        <ele>169.4</ele>
        <time>2015-04-05T10:45:22.563Z</time>
      </trkpt>
      <trkpt lat="43.51616" lon="1.41338">
        <ele>169.4</ele>
        <time>2015-04-05T10:45:28.551Z</time>
      </trkpt>
      <trkpt lat="43.5162" lon="1.41342">
        <ele>166.1</ele>
        <time>2015-04-05T10:46:01.554Z</time>
      </trkpt>
      <trkpt lat="43.51624" lon="1.41348">
        <ele>166.1</ele>
        <time>2015-04-05T10:46:07.566Z</time>
      </trkpt>
      <trkpt lat="43.51629" lon="1.41352">
        <ele>162.8</ele>
        <time>2015-04-05T10:46:13.565Z</time>
      </trkpt>
      <trkpt lat="43.51638" lon="1.4136">
        <ele>162.5</ele>
        <time>2015-04-05T10:46:19.551Z</time>
      </trkpt>
      <trkpt lat="43.51644" lon="1.41363">
        <ele>154.7</ele>
        <time>2015-04-05T10:46:55.564Z</time>
      </trkpt>
      <trkpt lat="43.5164" lon="1.4136">
        <ele>154.2</ele>
        <time>2015-04-05T10:47:01.565Z</time>
      </trkpt>
      <trkpt lat="43.51644" lon="1.41357">
        <ele>152.7</ele>
        <time>2015-04-05T10:47:25.565Z</time>
      </trkpt>
      <trkpt lat="43.51632" lon="1.41351">
        <ele>152.2</ele>
        <time>2015-04-05T10:47:31.555Z</time>
      </trkpt>
      <trkpt lat="43.51625" lon="1.41346">
        <ele>152</ele>
        <time>2015-04-05T10:47:36.564Z</time>
      </trkpt>
      <trkpt lat="43.51617" lon="1.41341">
        <ele>151.4</ele>
        <time>2015-04-05T10:47:42.555Z</time>
      </trkpt>
      <trkpt lat="43.51615" lon="1.41335">
        <ele>150.6</ele>
        <time>2015-04-05T10:48:23.550Z</time>
      </trkpt>
      <trkpt lat="43.5161" lon="1.41331">
        <ele>147.2</ele>
        <time>2015-04-05T10:48:29.553Z</time>
      </trkpt>
      <trkpt lat="43.51599" lon="1.41326">
        <ele>147.7</ele>
        <time>2015-04-05T10:48:35.563Z</time>
      </trkpt>
      <trkpt lat="43.51588" lon="1.41333">
        <ele>148.5</ele>
        <time>2015-04-05T10:48:41.555Z</time>
      </trkpt>
      <trkpt lat="43.5158" lon="1.41331">
        <ele>149.4</ele>
        <time>2015-04-05T10:48:46.563Z</time>
      </trkpt>
      <trkpt lat="43.5157" lon="1.41332">
        <ele>150.7</ele>
        <time>2015-04-05T10:48:52.562Z</time>
      </trkpt>
      <trkpt lat="43.51562" lon="1.41336">
        <ele>151.6</ele>
        <time>2015-04-05T10:48:58.563Z</time>
      </trkpt>
      <trkpt lat="43.5156" lon="1.41335">
        <ele>152.4</ele>
        <time>2015-04-05T10:49:03.555Z</time>
      </trkpt>
      <trkpt lat="43.51555" lon="1.41341">
        <ele>152.7</ele>
        <time>2015-04-05T10:49:09.563Z</time>
      </trkpt>
      <trkpt lat="43.51551" lon="1.41343">
        <ele>154.1</ele>
        <time>2015-04-05T10:49:15.563Z</time>
      </trkpt>
      <trkpt lat="43.51547" lon="1.41348">
        <ele>154.9</ele>
        <time>2015-04-05T10:49:21.563Z</time>
      </trkpt>
      <trkpt lat="43.51544" lon="1.41352">
        <ele>155.4</ele>
        <time>2015-04-05T10:49:27.562Z</time>
      </trkpt>
      <trkpt lat="43.5154" lon="1.41355">
        <ele>156.2</ele>
        <time>2015-04-05T10:49:33.562Z</time>
      </trkpt>
      <trkpt lat="43.51536" lon="1.41362">
        <ele>157</ele>
        <time>2015-04-05T10:49:39.563Z</time>
      </trkpt>
      <trkpt lat="43.51531" lon="1.41368">
        <ele>157.5</ele>
        <time>2015-04-05T10:49:45.563Z</time>
      </trkpt>
      <trkpt lat="43.51528" lon="1.41374">
        <ele>158.1</ele>
        <time>2015-04-05T10:49:51.563Z</time>
      </trkpt>
      <trkpt lat="43.51526" lon="1.41381">
        <ele>158.7</ele>
        <time>2015-04-05T10:49:57.566Z</time>
      </trkpt>
      <trkpt lat="43.51525" lon="1.41387">
        <ele>159.4</ele>
        <time>2015-04-05T10:50:02.607Z</time>
      </trkpt>
      <trkpt lat="43.51525" lon="1.4139">
        <ele>159.7</ele>
        <time>2015-04-05T10:50:08.563Z</time>
      </trkpt>
      <trkpt lat="43.51525" lon="1.41402">
        <ele>160.3</ele>
        <time>2015-04-05T10:50:14.562Z</time>
      </trkpt>
      <trkpt lat="43.51527" lon="1.41414">
        <ele>160.8</ele>
        <time>2015-04-05T10:50:19.565Z</time>
      </trkpt>
      <trkpt lat="43.51523" lon="1.41422">
        <ele>161.7</ele>
        <time>2015-04-05T10:50:25.554Z</time>
      </trkpt>
      <trkpt lat="43.51521" lon="1.4143">
        <ele>162.6</ele>
        <time>2015-04-05T10:50:31.565Z</time>
      </trkpt>
      <trkpt lat="43.51521" lon="1.41442">
        <ele>164.5</ele>
        <time>2015-04-05T10:50:43.564Z</time>
      </trkpt>
      <trkpt lat="43.51519" lon="1.41453">
        <ele>165.2</ele>
        <time>2015-04-05T10:50:49.577Z</time>
      </trkpt>
      <trkpt lat="43.51521" lon="1.41458">
        <ele>165.8</ele>
        <time>2015-04-05T10:50:55.553Z</time>
      </trkpt>
      <trkpt lat="43.5152" lon="1.41466">
        <ele>166.6</ele>
        <time>2015-04-05T10:51:01.565Z</time>
      </trkpt>
      <trkpt lat="43.51522" lon="1.41475">
        <ele>167.3</ele>
        <time>2015-04-05T10:51:07.558Z</time>
      </trkpt>
      <trkpt lat="43.51521" lon="1.41485">
        <ele>167.4</ele>
        <time>2015-04-05T10:51:13.564Z</time>
      </trkpt>
      <trkpt lat="43.5152" lon="1.41493">
        <ele>167.7</ele>
        <time>2015-04-05T10:51:19.791Z</time>
      </trkpt>
      <trkpt lat="43.51521" lon="1.415">
        <ele>168.4</ele>
        <time>2015-04-05T10:51:25.556Z</time>
      </trkpt>
      <trkpt lat="43.51521" lon="1.41501">
        <ele>169</ele>
        <time>2015-04-05T10:51:37.565Z</time>
      </trkpt>
      <trkpt lat="43.51522" lon="1.41514">
        <ele>169.3</ele>
        <time>2015-04-05T10:51:43.565Z</time>
      </trkpt>
      <trkpt lat="43.51526" lon="1.41525">
        <ele>168.4</ele>
        <time>2015-04-05T10:51:49.565Z</time>
      </trkpt>
      <trkpt lat="43.51529" lon="1.41536">
        <ele>166.7</ele>
        <time>2015-04-05T10:51:55.557Z</time>
      </trkpt>
      <trkpt lat="43.51534" lon="1.41552">
        <ele>165.9</ele>
        <time>2015-04-05T10:52:01.556Z</time>
      </trkpt>
      <trkpt lat="43.51535" lon="1.4156">
        <ele>165.4</ele>
        <time>2015-04-05T10:52:06.563Z</time>
      </trkpt>
      <trkpt lat="43.51534" lon="1.41567">
        <ele>165.3</ele>
        <time>2015-04-05T10:52:12.554Z</time>
      </trkpt>
      <trkpt lat="43.51534" lon="1.41578">
        <ele>164.6</ele>
        <time>2015-04-05T10:52:23.562Z</time>
      </trkpt>
      <trkpt lat="43.51535" lon="1.41585">
        <ele>164.2</ele>
        <time>2015-04-05T10:52:29.563Z</time>
      </trkpt>
      <trkpt lat="43.51537" lon="1.41597">
        <ele>163.1</ele>
        <time>2015-04-05T10:52:40.563Z</time>
      </trkpt>
      <trkpt lat="43.51537" lon="1.41601">
        <ele>162.2</ele>
        <time>2015-04-05T10:52:46.563Z</time>
      </trkpt>
      <trkpt lat="43.51539" lon="1.41611">
        <ele>161.3</ele>
        <time>2015-04-05T10:52:58.552Z</time>
      </trkpt>
      <trkpt lat="43.51539" lon="1.41616">
        <ele>160.9</ele>
        <time>2015-04-05T10:53:03.553Z</time>
      </trkpt>
      <trkpt lat="43.51538" lon="1.41619">
        <ele>160.1</ele>
        <time>2015-04-05T10:53:08.568Z</time>
      </trkpt>
      <trkpt lat="43.51539" lon="1.41629">
        <ele>159.4</ele>
        <time>2015-04-05T10:53:14.563Z</time>
      </trkpt>
      <trkpt lat="43.51529" lon="1.41628">
        <ele>159.1</ele>
        <time>2015-04-05T10:53:24.564Z</time>
      </trkpt>
      <trkpt lat="43.51522" lon="1.41623">
        <ele>159</ele>
        <time>2015-04-05T10:53:30.607Z</time>
      </trkpt>
      <trkpt lat="43.51515" lon="1.41614">
        <ele>158.9</ele>
        <time>2015-04-05T10:53:36.556Z</time>
      </trkpt>
      <trkpt lat="43.51509" lon="1.41612">
        <ele>158.7</ele>
        <time>2015-04-05T10:53:42.565Z</time>
      </trkpt>
      <trkpt lat="43.51502" lon="1.41612">
        <ele>158.6</ele>
        <time>2015-04-05T10:53:48.565Z</time>
      </trkpt>
      <trkpt lat="43.51494" lon="1.41609">
        <ele>158.9</ele>
        <time>2015-04-05T10:53:59.564Z</time>
      </trkpt>
      <trkpt lat="43.51489" lon="1.41608">
        <ele>159.1</ele>
        <time>2015-04-05T10:54:05.563Z</time>
      </trkpt>
      <trkpt lat="43.51485" lon="1.41605">
        <ele>159</ele>
        <time>2015-04-05T10:54:11.565Z</time>
      </trkpt>
      <trkpt lat="43.51479" lon="1.416">
        <ele>159.1</ele>
        <time>2015-04-05T10:54:17.564Z</time>
      </trkpt>
      <trkpt lat="43.51472" lon="1.41598">
        <ele>159.3</ele>
        <time>2015-04-05T10:54:23.564Z</time>
      </trkpt>
      <trkpt lat="43.51468" lon="1.41594">
        <ele>159.4</ele>
        <time>2015-04-05T10:54:28.564Z</time>
      </trkpt>
      <trkpt lat="43.5146" lon="1.41589">
        <ele>160</ele>
        <time>2015-04-05T10:54:34.565Z</time>
      </trkpt>
      <trkpt lat="43.51453" lon="1.41584">
        <ele>160.7</ele>
        <time>2015-04-05T10:54:40.556Z</time>
      </trkpt>
      <trkpt lat="43.51444" lon="1.41576">
        <ele>161.2</ele>
        <time>2015-04-05T10:54:45.557Z</time>
      </trkpt>
      <trkpt lat="43.51435" lon="1.41567">
        <ele>161.5</ele>
        <time>2015-04-05T10:54:51.564Z</time>
      </trkpt>
      <trkpt lat="43.5143" lon="1.41561">
        <ele>161.1</ele>
        <time>2015-04-05T10:54:57.557Z</time>
      </trkpt>
      <trkpt lat="43.51426" lon="1.41554">
        <ele>161.2</ele>
        <time>2015-04-05T10:55:02.564Z</time>
      </trkpt>
      <trkpt lat="43.5142" lon="1.41541">
        <ele>160.5</ele>
        <time>2015-04-05T10:55:12.564Z</time>
      </trkpt>
      <trkpt lat="43.51414" lon="1.41531">
        <ele>160.3</ele>
        <time>2015-04-05T10:55:18.557Z</time>
      </trkpt>
      <trkpt lat="43.51411" lon="1.41522">
        <ele>160.3</ele>
        <time>2015-04-05T10:55:24.555Z</time>
      </trkpt>
      <trkpt lat="43.51406" lon="1.41508">
        <ele>161.6</ele>
        <time>2015-04-05T10:55:29.563Z</time>
      </trkpt>
      <trkpt lat="43.51404" lon="1.41496">
        <ele>161.5</ele>
        <time>2015-04-05T10:55:35.556Z</time>
      </trkpt>
      <trkpt lat="43.51401" lon="1.41491">
        <ele>160.8</ele>
        <time>2015-04-05T10:55:40.556Z</time>
      </trkpt>
      <trkpt lat="43.51397" lon="1.41489">
        <ele>159.8</ele>
        <time>2015-04-05T10:55:46.582Z</time>
      </trkpt>
      <trkpt lat="43.51392" lon="1.41492">
        <ele>159.1</ele>
        <time>2015-04-05T10:55:52.564Z</time>
      </trkpt>
      <trkpt lat="43.51387" lon="1.41487">
        <ele>156.7</ele>
        <time>2015-04-05T10:56:09.552Z</time>
      </trkpt>
      <trkpt lat="43.51383" lon="1.41488">
        <ele>156.7</ele>
        <time>2015-04-05T10:56:14.564Z</time>
      </trkpt>
      <trkpt lat="43.51379" lon="1.41497">
        <ele>156</ele>
        <time>2015-04-05T10:56:20.556Z</time>
      </trkpt>
      <trkpt lat="43.51375" lon="1.41511">
        <ele>155.2</ele>
        <time>2015-04-05T10:56:25.566Z</time>
      </trkpt>
      <trkpt lat="43.51367" lon="1.41518">
        <ele>154.4</ele>
        <time>2015-04-05T10:56:31.558Z</time>
      </trkpt>
      <trkpt lat="43.5136" lon="1.41523">
        <ele>153.8</ele>
        <time>2015-04-05T10:56:37.566Z</time>
      </trkpt>
      <trkpt lat="43.51353" lon="1.41531">
        <ele>152.8</ele>
        <time>2015-04-05T10:56:43.556Z</time>
      </trkpt>
      <trkpt lat="43.51349" lon="1.41538">
        <ele>151.8</ele>
        <time>2015-04-05T10:56:49.559Z</time>
      </trkpt>
      <trkpt lat="43.51345" lon="1.41543">
        <ele>150.6</ele>
        <time>2015-04-05T10:56:54.564Z</time>
      </trkpt>
      <trkpt lat="43.51338" lon="1.4155">
        <ele>149.2</ele>
        <time>2015-04-05T10:57:00.560Z</time>
      </trkpt>
      <trkpt lat="43.51332" lon="1.41553">
        <ele>148.8</ele>
        <time>2015-04-05T10:57:05.564Z</time>
      </trkpt>
      <trkpt lat="43.51324" lon="1.41554">
        <ele>148</ele>
        <time>2015-04-05T10:57:11.556Z</time>
      </trkpt>
      <trkpt lat="43.51316" lon="1.41555">
        <ele>147.2</ele>
        <time>2015-04-05T10:57:17.562Z</time>
      </trkpt>
      <trkpt lat="43.51312" lon="1.41559">
        <ele>146.4</ele>
        <time>2015-04-05T10:57:22.568Z</time>
      </trkpt>
      <trkpt lat="43.51305" lon="1.41561">
        <ele>145.1</ele>
        <time>2015-04-05T10:57:28.552Z</time>
      </trkpt>
      <trkpt lat="43.51297" lon="1.41561">
        <ele>144.3</ele>
        <time>2015-04-05T10:57:33.569Z</time>
      </trkpt>
      <trkpt lat="43.51291" lon="1.41565">
        <ele>143.1</ele>
        <time>2015-04-05T10:57:39.555Z</time>
      </trkpt>
      <trkpt lat="43.51287" lon="1.41568">
        <ele>142.5</ele>
        <time>2015-04-05T10:57:44.564Z</time>
      </trkpt>
      <trkpt lat="43.51276" lon="1.4157">
        <ele>141.1</ele>
        <time>2015-04-05T10:57:55.566Z</time>
      </trkpt>
      <trkpt lat="43.51273" lon="1.41569">
        <ele>141</ele>
        <time>2015-04-05T10:58:01.564Z</time>
      </trkpt>
      <trkpt lat="43.51264" lon="1.41569">
        <ele>141.2</ele>
        <time>2015-04-05T10:58:07.565Z</time>
      </trkpt>
      <trkpt lat="43.51256" lon="1.41571">
        <ele>141.7</ele>
        <time>2015-04-05T10:58:13.557Z</time>
      </trkpt>
      <trkpt lat="43.51251" lon="1.41574">
        <ele>142.6</ele>
        <time>2015-04-05T10:58:19.565Z</time>
      </trkpt>
      <trkpt lat="43.51244" lon="1.41577">
        <ele>143.1</ele>
        <time>2015-04-05T10:58:25.566Z</time>
      </trkpt>
      <trkpt lat="43.51238" lon="1.4158">
        <ele>143.3</ele>
        <time>2015-04-05T10:58:31.565Z</time>
      </trkpt>
      <trkpt lat="43.5123" lon="1.41585">
        <ele>143.7</ele>
        <time>2015-04-05T10:58:37.557Z</time>
      </trkpt>
      <trkpt lat="43.51226" lon="1.41592">
        <ele>146</ele>
        <time>2015-04-05T11:00:03.555Z</time>
      </trkpt>
      <trkpt lat="43.51219" lon="1.41595">
        <ele>144.7</ele>
        <time>2015-04-05T11:00:08.579Z</time>
      </trkpt>
      <trkpt lat="43.51217" lon="1.41593">
        <ele>143.7</ele>
        <time>2015-04-05T11:00:30.563Z</time>
      </trkpt>
      <trkpt lat="43.5121" lon="1.41594">
        <ele>143.6</ele>
        <time>2015-04-05T11:00:36.555Z</time>
      </trkpt>
      <trkpt lat="43.51204" lon="1.41591">
        <ele>143.7</ele>
        <time>2015-04-05T11:00:42.557Z</time>
      </trkpt>
      <trkpt lat="43.51194" lon="1.41588">
        <ele>144</ele>
        <time>2015-04-05T11:00:47.563Z</time>
      </trkpt>
      <trkpt lat="43.51139" lon="1.41572">
        <ele>144</ele>
        <time>2015-04-05T11:00:53.554Z</time>
      </trkpt>
      <trkpt lat="43.51114" lon="1.41564">
        <ele>143.7</ele>
        <time>2015-04-05T11:00:58.563Z</time>
      </trkpt>
      <trkpt lat="43.51084" lon="1.41555">
        <ele>143.6</ele>
        <time>2015-04-05T11:01:04.554Z</time>
      </trkpt>
      <trkpt lat="43.51054" lon="1.41547">
        <ele>143.9</ele>
        <time>2015-04-05T11:01:10.550Z</time>
      </trkpt>
      <trkpt lat="43.51025" lon="1.41538">
        <ele>143.9</ele>
        <time>2015-04-05T11:01:16.561Z</time>
      </trkpt>
      <trkpt lat="43.51001" lon="1.41531">
        <ele>143.9</ele>
        <time>2015-04-05T11:01:21.562Z</time>
      </trkpt>
      <trkpt lat="43.50972" lon="1.41522">
        <ele>143.9</ele>
        <time>2015-04-05T11:01:27.554Z</time>
      </trkpt>
      <trkpt lat="43.50942" lon="1.41513">
        <ele>144.2</ele>
        <time>2015-04-05T11:01:33.555Z</time>
      </trkpt>
      <trkpt lat="43.50916" lon="1.41505">
        <ele>144.1</ele>
        <time>2015-04-05T11:01:38.576Z</time>
      </trkpt>
      <trkpt lat="43.50889" lon="1.41496">
        <ele>143.8</ele>
        <time>2015-04-05T11:01:43.563Z</time>
      </trkpt>
      <trkpt lat="43.50858" lon="1.41487">
        <ele>143.4</ele>
        <time>2015-04-05T11:01:49.563Z</time>
      </trkpt>
      <trkpt lat="43.50828" lon="1.41477">
        <ele>143.7</ele>
        <time>2015-04-05T11:01:55.564Z</time>
      </trkpt>
      <trkpt lat="43.50798" lon="1.41468">
        <ele>144.3</ele>
        <time>2015-04-05T11:02:01.557Z</time>
      </trkpt>
      <trkpt lat="43.50767" lon="1.41455">
        <ele>144.8</ele>
        <time>2015-04-05T11:02:07.563Z</time>
      </trkpt>
      <trkpt lat="43.5074" lon="1.41432">
        <ele>143.6</ele>
        <time>2015-04-05T11:02:13.563Z</time>
      </trkpt>
      <trkpt lat="43.50721" lon="1.41402">
        <ele>143.8</ele>
        <time>2015-04-05T11:02:19.563Z</time>
      </trkpt>
      <trkpt lat="43.50709" lon="1.41372">
        <ele>145.2</ele>
        <time>2015-04-05T11:02:25.564Z</time>
      </trkpt>
      <trkpt lat="43.50707" lon="1.4134">
        <ele>146</ele>
        <time>2015-04-05T11:02:31.563Z</time>
      </trkpt>
      <trkpt lat="43.50724" lon="1.41302">
        <ele>145.9</ele>
        <time>2015-04-05T11:02:37.605Z</time>
      </trkpt>
      <trkpt lat="43.50738" lon="1.41262">
        <ele>145.1</ele>
        <time>2015-04-05T11:02:43.556Z</time>
      </trkpt>
      <trkpt lat="43.50754" lon="1.41223">
        <ele>144.6</ele>
        <time>2015-04-05T11:02:49.563Z</time>
      </trkpt>
      <trkpt lat="43.50769" lon="1.41181">
        <ele>144.4</ele>
        <time>2015-04-05T11:02:55.563Z</time>
      </trkpt>
      <trkpt lat="43.50783" lon="1.41138">
        <ele>144.8</ele>
        <time>2015-04-05T11:03:01.564Z</time>
      </trkpt>
      <trkpt lat="43.50798" lon="1.41094">
        <ele>144.7</ele>
        <time>2015-04-05T11:03:07.563Z</time>
      </trkpt>
      <trkpt lat="43.50812" lon="1.41053">
        <ele>144.7</ele>
        <time>2015-04-05T11:03:13.563Z</time>
      </trkpt>
      <trkpt lat="43.50828" lon="1.41012">
        <ele>144.5</ele>
        <time>2015-04-05T11:03:19.563Z</time>
      </trkpt>
      <trkpt lat="43.50844" lon="1.40971">
        <ele>145.1</ele>
        <time>2015-04-05T11:03:25.553Z</time>
      </trkpt>
      <trkpt lat="43.5086" lon="1.4093">
        <ele>144.9</ele>
        <time>2015-04-05T11:03:31.569Z</time>
      </trkpt>
      <trkpt lat="43.50875" lon="1.4089">
        <ele>145.2</ele>
        <time>2015-04-05T11:03:37.563Z</time>
      </trkpt>
      <trkpt lat="43.5089" lon="1.40849">
        <ele>145.4</ele>
        <time>2015-04-05T11:03:43.563Z</time>
      </trkpt>
      <trkpt lat="43.50906" lon="1.40806">
        <ele>145</ele>
        <time>2015-04-05T11:03:49.554Z</time>
      </trkpt>
      <trkpt lat="43.50922" lon="1.40761">
        <ele>144.2</ele>
        <time>2015-04-05T11:03:55.563Z</time>
      </trkpt>
      <trkpt lat="43.50936" lon="1.4072">
        <ele>144.2</ele>
        <time>2015-04-05T11:04:01.564Z</time>
      </trkpt>
      <trkpt lat="43.50947" lon="1.4068">
        <ele>143.9</ele>
        <time>2015-04-05T11:04:07.556Z</time>
      </trkpt>
      <trkpt lat="43.50962" lon="1.4065">
        <ele>144.2</ele>
        <time>2015-04-05T11:04:13.563Z</time>
      </trkpt>
      <trkpt lat="43.50971" lon="1.40614">
        <ele>144.4</ele>
        <time>2015-04-05T11:04:19.563Z</time>
      </trkpt>
      <trkpt lat="43.50963" lon="1.40582">
        <ele>144.1</ele>
        <time>2015-04-05T11:04:25.564Z</time>
      </trkpt>
      <trkpt lat="43.50944" lon="1.40549">
        <ele>144.4</ele>
        <time>2015-04-05T11:04:31.564Z</time>
      </trkpt>
      <trkpt lat="43.50919" lon="1.40519">
        <ele>144.7</ele>
        <time>2015-04-05T11:04:37.564Z</time>
      </trkpt>
      <trkpt lat="43.50899" lon="1.40489">
        <ele>145.4</ele>
        <time>2015-04-05T11:04:43.563Z</time>
      </trkpt>
      <trkpt lat="43.50882" lon="1.40453">
        <ele>145.4</ele>
        <time>2015-04-05T11:04:49.556Z</time>
      </trkpt>
      <trkpt lat="43.50866" lon="1.40418">
        <ele>144.9</ele>
        <time>2015-04-05T11:04:55.556Z</time>
      </trkpt>
      <trkpt lat="43.50847" lon="1.40385">
        <ele>144.7</ele>
        <time>2015-04-05T11:05:01.564Z</time>
      </trkpt>
      <trkpt lat="43.50834" lon="1.40349">
        <ele>144.9</ele>
        <time>2015-04-05T11:05:07.563Z</time>
      </trkpt>
      <trkpt lat="43.50821" lon="1.40315">
        <ele>146.2</ele>
        <time>2015-04-05T11:05:13.564Z</time>
      </trkpt>
      <trkpt lat="43.50807" lon="1.40283">
        <ele>147.1</ele>
        <time>2015-04-05T11:05:19.554Z</time>
      </trkpt>
      <trkpt lat="43.50794" lon="1.40255">
        <ele>148.7</ele>
        <time>2015-04-05T11:05:25.563Z</time>
      </trkpt>
      <trkpt lat="43.50786" lon="1.40225">
        <ele>153</ele>
        <time>2015-04-05T11:05:31.563Z</time>
      </trkpt>
      <trkpt lat="43.50774" lon="1.40189">
        <ele>155.2</ele>
        <time>2015-04-05T11:05:37.564Z</time>
      </trkpt>
      <trkpt lat="43.50759" lon="1.40155">
        <ele>157.5</ele>
        <time>2015-04-05T11:05:43.553Z</time>
      </trkpt>
      <trkpt lat="43.50744" lon="1.40123">
        <ele>157.3</ele>
        <time>2015-04-05T11:05:49.563Z</time>
      </trkpt>
      <trkpt lat="43.50729" lon="1.40087">
        <ele>155</ele>
        <time>2015-04-05T11:05:55.564Z</time>
      </trkpt>
      <trkpt lat="43.50716" lon="1.40045">
        <ele>152.7</ele>
        <time>2015-04-05T11:06:01.556Z</time>
      </trkpt>
      <trkpt lat="43.50703" lon="1.40004">
        <ele>150.7</ele>
        <time>2015-04-05T11:06:07.563Z</time>
      </trkpt>
      <trkpt lat="43.50704" lon="1.39958">
        <ele>150.1</ele>
        <time>2015-04-05T11:06:13.563Z</time>
      </trkpt>
      <trkpt lat="43.50702" lon="1.39913">
        <ele>150.4</ele>
        <time>2015-04-05T11:06:19.563Z</time>
      </trkpt>
      <trkpt lat="43.50695" lon="1.39873">
        <ele>150.7</ele>
        <time>2015-04-05T11:06:25.570Z</time>
      </trkpt>
      <trkpt lat="43.50711" lon="1.39845">
        <ele>151.8</ele>
        <time>2015-04-05T11:06:31.563Z</time>
      </trkpt>
      <trkpt lat="43.50724" lon="1.39849">
        <ele>155.2</ele>
        <time>2015-04-05T11:06:37.564Z</time>
      </trkpt>
      <trkpt lat="43.5073" lon="1.39852">
        <ele>157.1</ele>
        <time>2015-04-05T11:07:01.553Z</time>
      </trkpt>
      <trkpt lat="43.50738" lon="1.39844">
        <ele>153.9</ele>
        <time>2015-04-05T11:07:06.578Z</time>
      </trkpt>
      <trkpt lat="43.50736" lon="1.39856">
        <ele>154</ele>
        <time>2015-04-05T11:07:55.572Z</time>
      </trkpt>
      <trkpt lat="43.50736" lon="1.39857">
        <ele>154</ele>
        <time>2015-04-05T11:08:01.560Z</time>
      </trkpt>
      <trkpt lat="43.50736" lon="1.39857">
        <ele>154</ele>
        <time>2015-04-05T11:08:19.558Z</time>
      </trkpt>
      <trkpt lat="43.50746" lon="1.3985">
        <ele>154.1</ele>
        <time>2015-04-05T11:08:24.569Z</time>
      </trkpt>
      <trkpt lat="43.50742" lon="1.39839">
        <ele>153.8</ele>
        <time>2015-04-05T11:09:31.552Z</time>
      </trkpt>
      <trkpt lat="43.50734" lon="1.39849">
        <ele>153.6</ele>
        <time>2015-04-05T11:09:37.556Z</time>
      </trkpt>
      <trkpt lat="43.50734" lon="1.39849">
        <ele>153.6</ele>
        <time>2015-04-05T11:09:49.553Z</time>
      </trkpt>
      <trkpt lat="43.50735" lon="1.39836">
        <ele>150.3</ele>
        <time>2015-04-05T11:09:55.554Z</time>
      </trkpt>
      <trkpt lat="43.50735" lon="1.39835">
        <ele>150.1</ele>
        <time>2015-04-05T11:10:49.552Z</time>
      </trkpt>
      <trkpt lat="43.50741" lon="1.39849">
        <ele>145.5</ele>
        <time>2015-04-05T11:10:54.562Z</time>
      </trkpt>
      <trkpt lat="43.50732" lon="1.39851">
        <ele>145.6</ele>
        <time>2015-04-05T11:11:35.562Z</time>
      </trkpt>
      <trkpt lat="43.5073" lon="1.39851">
        <ele>145.6</ele>
        <time>2015-04-05T11:11:41.560Z</time>
      </trkpt>
      <trkpt lat="43.50737" lon="1.39845">
        <ele>147.4</ele>
        <time>2015-04-05T11:12:04.561Z</time>
      </trkpt>
      <trkpt lat="43.50739" lon="1.39841">
        <ele>148.1</ele>
        <time>2015-04-05T11:12:10.562Z</time>
      </trkpt>
      <trkpt lat="43.50745" lon="1.39831">
        <ele>149</ele>
        <time>2015-04-05T11:12:16.554Z</time>
      </trkpt>
      <trkpt lat="43.50747" lon="1.39817">
        <ele>148.7</ele>
        <time>2015-04-05T11:12:22.562Z</time>
      </trkpt>
      <trkpt lat="43.50746" lon="1.39804">
        <ele>149.6</ele>
        <time>2015-04-05T11:12:28.554Z</time>
      </trkpt>
      <trkpt lat="43.50741" lon="1.39788">
        <ele>149.1</ele>
        <time>2015-04-05T11:12:33.556Z</time>
      </trkpt>
      <trkpt lat="43.50736" lon="1.39769">
        <ele>147.9</ele>
        <time>2015-04-05T11:12:38.563Z</time>
      </trkpt>
      <trkpt lat="43.50732" lon="1.39748">
        <ele>147.9</ele>
        <time>2015-04-05T11:12:44.555Z</time>
      </trkpt>
      <trkpt lat="43.50726" lon="1.39729">
        <ele>147.8</ele>
        <time>2015-04-05T11:12:49.565Z</time>
      </trkpt>
      <trkpt lat="43.50717" lon="1.39709">
        <ele>146.9</ele>
        <time>2015-04-05T11:12:55.563Z</time>
      </trkpt>
      <trkpt lat="43.50704" lon="1.39696">
        <ele>147</ele>
        <time>2015-04-05T11:13:01.563Z</time>
      </trkpt>
      <trkpt lat="43.50699" lon="1.39683">
        <ele>148</ele>
        <time>2015-04-05T11:13:07.553Z</time>
      </trkpt>
      <trkpt lat="43.50692" lon="1.39671">
        <ele>147.4</ele>
        <time>2015-04-05T11:13:13.564Z</time>
      </trkpt>
      <trkpt lat="43.50683" lon="1.39655">
        <ele>146.1</ele>
        <time>2015-04-05T11:13:19.564Z</time>
      </trkpt>
      <trkpt lat="43.5067" lon="1.39652">
        <ele>145.3</ele>
        <time>2015-04-05T11:13:25.556Z</time>
      </trkpt>
      <trkpt lat="43.50655" lon="1.39653">
        <ele>146.3</ele>
        <time>2015-04-05T11:13:31.564Z</time>
      </trkpt>
      <trkpt lat="43.50647" lon="1.3965">
        <ele>147.1</ele>
        <time>2015-04-05T11:13:37.556Z</time>
      </trkpt>
      <trkpt lat="43.50639" lon="1.39654">
        <ele>147</ele>
        <time>2015-04-05T11:13:43.563Z</time>
      </trkpt>
      <trkpt lat="43.50622" lon="1.39663">
        <ele>146.7</ele>
        <time>2015-04-05T11:13:49.553Z</time>
      </trkpt>
      <trkpt lat="43.50605" lon="1.39664">
        <ele>147.2</ele>
        <time>2015-04-05T11:13:55.564Z</time>
      </trkpt>
      <trkpt lat="43.50605" lon="1.39664">
        <ele>147.2</ele>
        <time>2015-04-05T11:14:01.045Z</time>
      </trkpt>
      <trkpt lat="43.50577" lon="1.39667">
        <ele>148.1</ele>
        <time>2015-04-05T11:14:07.569Z</time>
      </trkpt>
      <trkpt lat="43.50577" lon="1.39667">
        <ele>148.1</ele>
        <time>2015-04-05T11:14:13.365Z</time>
      </trkpt>
      <trkpt lat="43.50545" lon="1.39649">
        <ele>144.1</ele>
        <time>2015-04-05T11:14:19.564Z</time>
      </trkpt>
      <trkpt lat="43.50524" lon="1.39659">
        <ele>143.6</ele>
        <time>2015-04-05T11:14:25.564Z</time>
      </trkpt>
      <trkpt lat="43.50508" lon="1.39671">
        <ele>142.9</ele>
        <time>2015-04-05T11:14:31.553Z</time>
      </trkpt>
      <trkpt lat="43.50497" lon="1.39676">
        <ele>143</ele>
        <time>2015-04-05T11:14:36.563Z</time>
      </trkpt>
      <trkpt lat="43.5049" lon="1.39687">
        <ele>142.7</ele>
        <time>2015-04-05T11:14:42.551Z</time>
      </trkpt>
      <trkpt lat="43.50486" lon="1.3969">
        <ele>142.7</ele>
        <time>2015-04-05T11:14:47.579Z</time>
      </trkpt>
      <trkpt lat="43.50486" lon="1.3969">
        <ele>142.7</ele>
        <time>2015-04-05T11:14:47.705Z</time>
      </trkpt>
      <trkpt lat="43.50468" lon="1.39717">
        <ele>145.7</ele>
        <time>2015-04-05T11:14:59.560Z</time>
      </trkpt>
      <trkpt lat="43.50457" lon="1.39731">
        <ele>147.1</ele>
        <time>2015-04-05T11:15:04.556Z</time>
      </trkpt>
      <trkpt lat="43.50452" lon="1.39749">
        <ele>148.9</ele>
        <time>2015-04-05T11:15:09.578Z</time>
      </trkpt>
      <trkpt lat="43.50442" lon="1.39764">
        <ele>150.8</ele>
        <time>2015-04-05T11:15:15.562Z</time>
      </trkpt>
      <trkpt lat="43.50431" lon="1.39785">
        <ele>153.1</ele>
        <time>2015-04-05T11:15:20.561Z</time>
      </trkpt>
      <trkpt lat="43.50404" lon="1.39811">
        <ele>151.5</ele>
        <time>2015-04-05T11:15:26.554Z</time>
      </trkpt>
      <trkpt lat="43.5038" lon="1.39832">
        <ele>153.7</ele>
        <time>2015-04-05T11:15:31.581Z</time>
      </trkpt>
      <trkpt lat="43.50373" lon="1.39855">
        <ele>155.3</ele>
        <time>2015-04-05T11:15:37.564Z</time>
      </trkpt>
      <trkpt lat="43.50371" lon="1.39879">
        <ele>157.1</ele>
        <time>2015-04-05T11:15:43.555Z</time>
      </trkpt>
      <trkpt lat="43.50366" lon="1.39901">
        <ele>158.8</ele>
        <time>2015-04-05T11:15:49.554Z</time>
      </trkpt>
      <trkpt lat="43.50358" lon="1.39925">
        <ele>160.6</ele>
        <time>2015-04-05T11:15:55.564Z</time>
      </trkpt>
      <trkpt lat="43.50342" lon="1.39954">
        <ele>162.2</ele>
        <time>2015-04-05T11:16:01.553Z</time>
      </trkpt>
      <trkpt lat="43.50315" lon="1.39981">
        <ele>163</ele>
        <time>2015-04-05T11:16:07.593Z</time>
      </trkpt>
      <trkpt lat="43.50306" lon="1.4001">
        <ele>163.7</ele>
        <time>2015-04-05T11:16:13.553Z</time>
      </trkpt>
      <trkpt lat="43.50294" lon="1.4004">
        <ele>163</ele>
        <time>2015-04-05T11:16:19.563Z</time>
      </trkpt>
      <trkpt lat="43.50285" lon="1.40065">
        <ele>163.4</ele>
        <time>2015-04-05T11:16:25.554Z</time>
      </trkpt>
      <trkpt lat="43.50283" lon="1.40087">
        <ele>162.5</ele>
        <time>2015-04-05T11:16:31.565Z</time>
      </trkpt>
      <trkpt lat="43.50281" lon="1.40111">
        <ele>162.1</ele>
        <time>2015-04-05T11:16:37.564Z</time>
      </trkpt>
      <trkpt lat="43.50275" lon="1.40135">
        <ele>161.7</ele>
        <time>2015-04-05T11:16:43.564Z</time>
      </trkpt>
      <trkpt lat="43.50272" lon="1.40157">
        <ele>162.1</ele>
        <time>2015-04-05T11:16:48.563Z</time>
      </trkpt>
      <trkpt lat="43.50263" lon="1.40181">
        <ele>163.3</ele>
        <time>2015-04-05T11:16:54.562Z</time>
      </trkpt>
      <trkpt lat="43.50251" lon="1.40199">
        <ele>163.9</ele>
        <time>2015-04-05T11:17:00.551Z</time>
      </trkpt>
      <trkpt lat="43.50239" lon="1.40224">
        <ele>165.2</ele>
        <time>2015-04-05T11:17:06.563Z</time>
      </trkpt>
      <trkpt lat="43.50226" lon="1.40248">
        <ele>166.2</ele>
        <time>2015-04-05T11:17:12.552Z</time>
      </trkpt>
      <trkpt lat="43.50218" lon="1.40265">
        <ele>165.9</ele>
        <time>2015-04-05T11:17:18.561Z</time>
      </trkpt>
      <trkpt lat="43.50213" lon="1.40283">
        <ele>165.5</ele>
        <time>2015-04-05T11:17:24.562Z</time>
      </trkpt>
      <trkpt lat="43.50218" lon="1.40292">
        <ele>166.7</ele>
        <time>2015-04-05T11:17:30.562Z</time>
      </trkpt>
      <trkpt lat="43.50229" lon="1.40316">
        <ele>167.9</ele>
        <time>2015-04-05T11:17:36.563Z</time>
      </trkpt>
      <trkpt lat="43.50226" lon="1.40342">
        <ele>165.9</ele>
        <time>2015-04-05T11:17:42.562Z</time>
      </trkpt>
      <trkpt lat="43.50218" lon="1.40369">
        <ele>163.5</ele>
        <time>2015-04-05T11:17:48.562Z</time>
      </trkpt>
      <trkpt lat="43.50208" lon="1.40397">
        <ele>161.5</ele>
        <time>2015-04-05T11:17:54.561Z</time>
      </trkpt>
      <trkpt lat="43.50208" lon="1.40397">
        <ele>161.5</ele>
        <time>2015-04-05T11:17:55.016Z</time>
      </trkpt>
      <trkpt lat="43.50178" lon="1.40449">
        <ele>158</ele>
        <time>2015-04-05T11:18:06.562Z</time>
      </trkpt>
      <trkpt lat="43.50165" lon="1.40475">
        <ele>157.4</ele>
        <time>2015-04-05T11:18:12.562Z</time>
      </trkpt>
      <trkpt lat="43.50149" lon="1.40498">
        <ele>156.1</ele>
        <time>2015-04-05T11:18:18.564Z</time>
      </trkpt>
      <trkpt lat="43.5013" lon="1.40527">
        <ele>154.9</ele>
        <time>2015-04-05T11:18:24.554Z</time>
      </trkpt>
      <trkpt lat="43.50114" lon="1.40562">
        <ele>154.8</ele>
        <time>2015-04-05T11:18:30.562Z</time>
      </trkpt>
      <trkpt lat="43.50101" lon="1.40598">
        <ele>155.2</ele>
        <time>2015-04-05T11:18:36.562Z</time>
      </trkpt>
      <trkpt lat="43.50085" lon="1.40629">
        <ele>155.7</ele>
        <time>2015-04-05T11:18:42.562Z</time>
      </trkpt>
      <trkpt lat="43.50064" lon="1.40659">
        <ele>156</ele>
        <time>2015-04-05T11:18:48.561Z</time>
      </trkpt>
      <trkpt lat="43.50038" lon="1.40687">
        <ele>155.4</ele>
        <time>2015-04-05T11:18:54.561Z</time>
      </trkpt>
      <trkpt lat="43.50019" lon="1.40715">
        <ele>154.4</ele>
        <time>2015-04-05T11:19:00.556Z</time>
      </trkpt>
      <trkpt lat="43.4999" lon="1.40739">
        <ele>153.8</ele>
        <time>2015-04-05T11:19:06.563Z</time>
      </trkpt>
      <trkpt lat="43.49964" lon="1.4076">
        <ele>152.9</ele>
        <time>2015-04-05T11:19:12.561Z</time>
      </trkpt>
      <trkpt lat="43.49936" lon="1.40776">
        <ele>152.9</ele>
        <time>2015-04-05T11:19:18.561Z</time>
      </trkpt>
      <trkpt lat="43.49917" lon="1.40794">
        <ele>153.6</ele>
        <time>2015-04-05T11:19:23.562Z</time>
      </trkpt>
      <trkpt lat="43.49893" lon="1.40813">
        <ele>154</ele>
        <time>2015-04-05T11:19:29.554Z</time>
      </trkpt>
      <trkpt lat="43.49875" lon="1.40831">
        <ele>154.6</ele>
        <time>2015-04-05T11:19:35.561Z</time>
      </trkpt>
      <trkpt lat="43.49863" lon="1.40848">
        <ele>155.6</ele>
        <time>2015-04-05T11:19:41.555Z</time>
      </trkpt>
      <trkpt lat="43.49836" lon="1.40866">
        <ele>156.8</ele>
        <time>2015-04-05T11:19:47.562Z</time>
      </trkpt>
      <trkpt lat="43.49814" lon="1.40887">
        <ele>156.9</ele>
        <time>2015-04-05T11:19:53.561Z</time>
      </trkpt>
      <trkpt lat="43.49802" lon="1.40915">
        <ele>156.9</ele>
        <time>2015-04-05T11:19:59.561Z</time>
      </trkpt>
      <trkpt lat="43.49791" lon="1.40933">
        <ele>157.2</ele>
        <time>2015-04-05T11:20:05.561Z</time>
      </trkpt>
      <trkpt lat="43.49798" lon="1.40951">
        <ele>158.9</ele>
        <time>2015-04-05T11:20:11.561Z</time>
      </trkpt>
      <trkpt lat="43.49807" lon="1.40966">
        <ele>161.1</ele>
        <time>2015-04-05T11:20:17.562Z</time>
      </trkpt>
      <trkpt lat="43.49809" lon="1.40978">
        <ele>163</ele>
        <time>2015-04-05T11:20:23.562Z</time>
      </trkpt>
      <trkpt lat="43.49796" lon="1.40976">
        <ele>165.1</ele>
        <time>2015-04-05T11:20:29.554Z</time>
      </trkpt>
      <trkpt lat="43.49779" lon="1.40972">
        <ele>167.3</ele>
        <time>2015-04-05T11:20:35.553Z</time>
      </trkpt>
      <trkpt lat="43.4976" lon="1.40978">
        <ele>170.2</ele>
        <time>2015-04-05T11:20:41.554Z</time>
      </trkpt>
      <trkpt lat="43.49743" lon="1.40989">
        <ele>172.6</ele>
        <time>2015-04-05T11:20:46.566Z</time>
      </trkpt>
      <trkpt lat="43.49714" lon="1.40998">
        <ele>172.1</ele>
        <time>2015-04-05T11:20:52.563Z</time>
      </trkpt>
      <trkpt lat="43.49684" lon="1.41005">
        <ele>171.7</ele>
        <time>2015-04-05T11:20:57.563Z</time>
      </trkpt>
      <trkpt lat="43.49644" lon="1.41016">
        <ele>170.5</ele>
        <time>2015-04-05T11:21:03.551Z</time>
      </trkpt>
      <trkpt lat="43.49607" lon="1.41021">
        <ele>168.1</ele>
        <time>2015-04-05T11:21:09.553Z</time>
      </trkpt>
      <trkpt lat="43.49573" lon="1.41034">
        <ele>166.5</ele>
        <time>2015-04-05T11:21:15.562Z</time>
      </trkpt>
      <trkpt lat="43.49557" lon="1.41055">
        <ele>166.4</ele>
        <time>2015-04-05T11:21:21.553Z</time>
      </trkpt>
      <trkpt lat="43.49542" lon="1.41071">
        <ele>166</ele>
        <time>2015-04-05T11:21:26.578Z</time>
      </trkpt>
      <trkpt lat="43.49524" lon="1.41089">
        <ele>164.6</ele>
        <time>2015-04-05T11:21:31.563Z</time>
      </trkpt>
      <trkpt lat="43.49504" lon="1.41107">
        <ele>162.9</ele>
        <time>2015-04-05T11:21:37.563Z</time>
      </trkpt>
      <trkpt lat="43.49478" lon="1.41122">
        <ele>160.2</ele>
        <time>2015-04-05T11:21:43.563Z</time>
      </trkpt>
      <trkpt lat="43.49454" lon="1.41144">
        <ele>158.6</ele>
        <time>2015-04-05T11:21:49.553Z</time>
      </trkpt>
      <trkpt lat="43.49435" lon="1.41168">
        <ele>156.7</ele>
        <time>2015-04-05T11:21:55.564Z</time>
      </trkpt>
      <trkpt lat="43.49407" lon="1.4118">
        <ele>155.1</ele>
        <time>2015-04-05T11:22:01.556Z</time>
      </trkpt>
      <trkpt lat="43.49386" lon="1.41195">
        <ele>153.9</ele>
        <time>2015-04-05T11:22:07.564Z</time>
      </trkpt>
      <trkpt lat="43.49348" lon="1.41191">
        <ele>152.5</ele>
        <time>2015-04-05T11:22:13.563Z</time>
      </trkpt>
      <trkpt lat="43.4932" lon="1.41203">
        <ele>150.8</ele>
        <time>2015-04-05T11:22:19.568Z</time>
      </trkpt>
      <trkpt lat="43.49295" lon="1.41207">
        <ele>149.4</ele>
        <time>2015-04-05T11:22:25.553Z</time>
      </trkpt>
      <trkpt lat="43.49276" lon="1.41209">
        <ele>147.5</ele>
        <time>2015-04-05T11:22:31.564Z</time>
      </trkpt>
      <trkpt lat="43.49256" lon="1.41217">
        <ele>147.1</ele>
        <time>2015-04-05T11:22:37.564Z</time>
      </trkpt>
      <trkpt lat="43.49248" lon="1.41228">
        <ele>147.8</ele>
        <time>2015-04-05T11:22:43.563Z</time>
      </trkpt>
      <trkpt lat="43.49234" lon="1.41238">
        <ele>148.3</ele>
        <time>2015-04-05T11:22:49.564Z</time>
      </trkpt>
      <trkpt lat="43.49226" lon="1.41248">
        <ele>149.3</ele>
        <time>2015-04-05T11:22:55.556Z</time>
      </trkpt>
      <trkpt lat="43.49213" lon="1.41263">
        <ele>148.4</ele>
        <time>2015-04-05T11:23:01.563Z</time>
      </trkpt>
      <trkpt lat="43.492" lon="1.4127">
        <ele>149.3</ele>
        <time>2015-04-05T11:23:07.563Z</time>
      </trkpt>
      <trkpt lat="43.49191" lon="1.4127">
        <ele>149.1</ele>
        <time>2015-04-05T11:23:13.564Z</time>
      </trkpt>
      <trkpt lat="43.49186" lon="1.41275">
        <ele>149.6</ele>
        <time>2015-04-05T11:23:19.557Z</time>
      </trkpt>
      <trkpt lat="43.49179" lon="1.4128">
        <ele>151.4</ele>
        <time>2015-04-05T11:23:31.564Z</time>
      </trkpt>
      <trkpt lat="43.49174" lon="1.41287">
        <ele>152.3</ele>
        <time>2015-04-05T11:23:37.554Z</time>
      </trkpt>
      <trkpt lat="43.49164" lon="1.41297">
        <ele>153.4</ele>
        <time>2015-04-05T11:23:43.564Z</time>
      </trkpt>
      <trkpt lat="43.49152" lon="1.41303">
        <ele>153.7</ele>
        <time>2015-04-05T11:23:49.556Z</time>
      </trkpt>
      <trkpt lat="43.49134" lon="1.41312">
        <ele>153.3</ele>
        <time>2015-04-05T11:23:55.565Z</time>
      </trkpt>
      <trkpt lat="43.49123" lon="1.41323">
        <ele>153.1</ele>
        <time>2015-04-05T11:24:01.564Z</time>
      </trkpt>
      <trkpt lat="43.49108" lon="1.41332">
        <ele>153.2</ele>
        <time>2015-04-05T11:24:07.557Z</time>
      </trkpt>
      <trkpt lat="43.49096" lon="1.41345">
        <ele>153.8</ele>
        <time>2015-04-05T11:24:13.566Z</time>
      </trkpt>
      <trkpt lat="43.49094" lon="1.41345">
        <ele>153.5</ele>
        <time>2015-04-05T11:24:19.565Z</time>
      </trkpt>
      <trkpt lat="43.49084" lon="1.41349">
        <ele>152.5</ele>
        <time>2015-04-05T11:24:25.564Z</time>
      </trkpt>
      <trkpt lat="43.49074" lon="1.41356">
        <ele>152.7</ele>
        <time>2015-04-05T11:24:31.554Z</time>
      </trkpt>
      <trkpt lat="43.49067" lon="1.41354">
        <ele>153.6</ele>
        <time>2015-04-05T11:24:37.553Z</time>
      </trkpt>
      <trkpt lat="43.49061" lon="1.41353">
        <ele>154</ele>
        <time>2015-04-05T11:24:43.564Z</time>
      </trkpt>
      <trkpt lat="43.49056" lon="1.41353">
        <ele>154.4</ele>
        <time>2015-04-05T11:24:49.564Z</time>
      </trkpt>
      <trkpt lat="43.4905" lon="1.41358">
        <ele>153.8</ele>
        <time>2015-04-05T11:24:55.564Z</time>
      </trkpt>
      <trkpt lat="43.49038" lon="1.41365">
        <ele>154</ele>
        <time>2015-04-05T11:25:01.564Z</time>
      </trkpt>
      <trkpt lat="43.49022" lon="1.41369">
        <ele>154.5</ele>
        <time>2015-04-05T11:25:07.564Z</time>
      </trkpt>
      <trkpt lat="43.4901" lon="1.41365">
        <ele>155.6</ele>
        <time>2015-04-05T11:25:13.556Z</time>
      </trkpt>
      <trkpt lat="43.48997" lon="1.4136">
        <ele>155.5</ele>
        <time>2015-04-05T11:25:19.564Z</time>
      </trkpt>
      <trkpt lat="43.48989" lon="1.41353">
        <ele>155.3</ele>
        <time>2015-04-05T11:25:25.557Z</time>
      </trkpt>
      <trkpt lat="43.48979" lon="1.41359">
        <ele>155.3</ele>
        <time>2015-04-05T11:25:31.564Z</time>
      </trkpt>
      <trkpt lat="43.48969" lon="1.41362">
        <ele>156.3</ele>
        <time>2015-04-05T11:25:37.565Z</time>
      </trkpt>
      <trkpt lat="43.48957" lon="1.41355">
        <ele>157.4</ele>
        <time>2015-04-05T11:25:43.557Z</time>
      </trkpt>
      <trkpt lat="43.48953" lon="1.41353">
        <ele>158.3</ele>
        <time>2015-04-05T11:25:49.564Z</time>
      </trkpt>
      <trkpt lat="43.48946" lon="1.41354">
        <ele>159.2</ele>
        <time>2015-04-05T11:25:55.565Z</time>
      </trkpt>
      <trkpt lat="43.48937" lon="1.41354">
        <ele>161.1</ele>
        <time>2015-04-05T11:26:13.556Z</time>
      </trkpt>
      <trkpt lat="43.48937" lon="1.41352">
        <ele>161.2</ele>
        <time>2015-04-05T11:26:19.565Z</time>
      </trkpt>
      <trkpt lat="43.4893" lon="1.41357">
        <ele>162.9</ele>
        <time>2015-04-05T11:27:00.577Z</time>
      </trkpt>
      <trkpt lat="43.48917" lon="1.41333">
        <ele>162.4</ele>
        <time>2015-04-05T11:27:06.562Z</time>
      </trkpt>
      <trkpt lat="43.48907" lon="1.41341">
        <ele>162.2</ele>
        <time>2015-04-05T11:27:12.549Z</time>
      </trkpt>
      <trkpt lat="43.489" lon="1.41345">
        <ele>162.1</ele>
        <time>2015-04-05T11:27:17.559Z</time>
      </trkpt>
      <trkpt lat="43.48886" lon="1.41349">
        <ele>162.2</ele>
        <time>2015-04-05T11:27:23.556Z</time>
      </trkpt>
      <trkpt lat="43.48876" lon="1.41354">
        <ele>162.1</ele>
        <time>2015-04-05T11:27:28.563Z</time>
      </trkpt>
      <trkpt lat="43.48865" lon="1.41364">
        <ele>162</ele>
        <time>2015-04-05T11:27:34.562Z</time>
      </trkpt>
      <trkpt lat="43.48851" lon="1.41371">
        <ele>162</ele>
        <time>2015-04-05T11:27:40.564Z</time>
      </trkpt>
      <trkpt lat="43.48837" lon="1.4137">
        <ele>162.4</ele>
        <time>2015-04-05T11:27:46.563Z</time>
      </trkpt>
      <trkpt lat="43.48817" lon="1.41361">
        <ele>163.1</ele>
        <time>2015-04-05T11:27:52.562Z</time>
      </trkpt>
      <trkpt lat="43.48793" lon="1.41359">
        <ele>163.5</ele>
        <time>2015-04-05T11:27:58.554Z</time>
      </trkpt>
      <trkpt lat="43.48772" lon="1.41355">
        <ele>163.7</ele>
        <time>2015-04-05T11:28:03.556Z</time>
      </trkpt>
      <trkpt lat="43.48744" lon="1.41341">
        <ele>164.1</ele>
        <time>2015-04-05T11:28:09.559Z</time>
      </trkpt>
      <trkpt lat="43.48717" lon="1.41343">
        <ele>164</ele>
        <time>2015-04-05T11:28:15.555Z</time>
      </trkpt>
      <trkpt lat="43.48699" lon="1.41349">
        <ele>164.1</ele>
        <time>2015-04-05T11:28:21.562Z</time>
      </trkpt>
      <trkpt lat="43.48686" lon="1.41352">
        <ele>164.8</ele>
        <time>2015-04-05T11:28:27.562Z</time>
      </trkpt>
      <trkpt lat="43.48668" lon="1.41359">
        <ele>165.4</ele>
        <time>2015-04-05T11:28:33.562Z</time>
      </trkpt>
      <trkpt lat="43.48655" lon="1.41369">
        <ele>166.5</ele>
        <time>2015-04-05T11:28:39.552Z</time>
      </trkpt>
      <trkpt lat="43.48645" lon="1.41375">
        <ele>166.4</ele>
        <time>2015-04-05T11:28:44.577Z</time>
      </trkpt>
      <trkpt lat="43.48629" lon="1.41384">
        <ele>165.6</ele>
        <time>2015-04-05T11:28:49.563Z</time>
      </trkpt>
      <trkpt lat="43.48606" lon="1.41391">
        <ele>165.2</ele>
        <time>2015-04-05T11:28:55.564Z</time>
      </trkpt>
      <trkpt lat="43.4858" lon="1.41393">
        <ele>164.7</ele>
        <time>2015-04-05T11:29:01.557Z</time>
      </trkpt>
      <trkpt lat="43.48549" lon="1.41397">
        <ele>164.2</ele>
        <time>2015-04-05T11:29:07.564Z</time>
      </trkpt>
      <trkpt lat="43.48519" lon="1.41395">
        <ele>164.3</ele>
        <time>2015-04-05T11:29:13.567Z</time>
      </trkpt>
      <trkpt lat="43.48487" lon="1.41399">
        <ele>163.5</ele>
        <time>2015-04-05T11:29:19.557Z</time>
      </trkpt>
      <trkpt lat="43.48459" lon="1.41401">
        <ele>163.1</ele>
        <time>2015-04-05T11:29:25.564Z</time>
      </trkpt>
      <trkpt lat="43.48439" lon="1.41404">
        <ele>163.2</ele>
        <time>2015-04-05T11:29:31.564Z</time>
      </trkpt>
      <trkpt lat="43.48417" lon="1.41406">
        <ele>162.7</ele>
        <time>2015-04-05T11:29:37.564Z</time>
      </trkpt>
      <trkpt lat="43.48393" lon="1.41417">
        <ele>161.8</ele>
        <time>2015-04-05T11:29:43.564Z</time>
      </trkpt>
      <trkpt lat="43.48374" lon="1.41427">
        <ele>161.6</ele>
        <time>2015-04-05T11:29:49.557Z</time>
      </trkpt>
      <trkpt lat="43.48356" lon="1.4144">
        <ele>161.4</ele>
        <time>2015-04-05T11:29:55.564Z</time>
      </trkpt>
      <trkpt lat="43.48341" lon="1.41451">
        <ele>161.6</ele>
        <time>2015-04-05T11:30:01.564Z</time>
      </trkpt>
      <trkpt lat="43.48326" lon="1.41476">
        <ele>161.8</ele>
        <time>2015-04-05T11:30:07.564Z</time>
      </trkpt>
      <trkpt lat="43.48306" lon="1.4149">
        <ele>161.4</ele>
        <time>2015-04-05T11:30:13.557Z</time>
      </trkpt>
      <trkpt lat="43.48281" lon="1.41506">
        <ele>160.5</ele>
        <time>2015-04-05T11:30:19.565Z</time>
      </trkpt>
      <trkpt lat="43.48266" lon="1.41515">
        <ele>159.6</ele>
        <time>2015-04-05T11:30:25.558Z</time>
      </trkpt>
      <trkpt lat="43.48257" lon="1.41523">
        <ele>159.6</ele>
        <time>2015-04-05T11:30:31.554Z</time>
      </trkpt>
      <trkpt lat="43.48241" lon="1.41524">
        <ele>161.5</ele>
        <time>2015-04-05T11:30:37.557Z</time>
      </trkpt>
      <trkpt lat="43.48236" lon="1.41529">
        <ele>163</ele>
        <time>2015-04-05T11:30:43.557Z</time>
      </trkpt>
      <trkpt lat="43.48236" lon="1.41537">
        <ele>164.6</ele>
        <time>2015-04-05T11:30:48.563Z</time>
      </trkpt>
      <trkpt lat="43.4824" lon="1.41546">
        <ele>166.4</ele>
        <time>2015-04-05T11:30:54.555Z</time>
      </trkpt>
      <trkpt lat="43.48245" lon="1.41556">
        <ele>168.3</ele>
        <time>2015-04-05T11:31:00.555Z</time>
      </trkpt>
      <trkpt lat="43.48248" lon="1.41568">
        <ele>170.6</ele>
        <time>2015-04-05T11:31:06.562Z</time>
      </trkpt>
      <trkpt lat="43.48253" lon="1.41577">
        <ele>173.4</ele>
        <time>2015-04-05T11:31:12.562Z</time>
      </trkpt>
      <trkpt lat="43.4826" lon="1.41584">
        <ele>175.9</ele>
        <time>2015-04-05T11:31:18.562Z</time>
      </trkpt>
      <trkpt lat="43.48266" lon="1.41591">
        <ele>178.5</ele>
        <time>2015-04-05T11:31:24.562Z</time>
      </trkpt>
      <trkpt lat="43.48273" lon="1.41603">
        <ele>181.1</ele>
        <time>2015-04-05T11:31:30.555Z</time>
      </trkpt>
      <trkpt lat="43.4828" lon="1.41614">
        <ele>182.7</ele>
        <time>2015-04-05T11:31:36.562Z</time>
      </trkpt>
      <trkpt lat="43.4829" lon="1.41628">
        <ele>184.6</ele>
        <time>2015-04-05T11:31:42.562Z</time>
      </trkpt>
      <trkpt lat="43.48303" lon="1.4165">
        <ele>186.1</ele>
        <time>2015-04-05T11:31:48.554Z</time>
      </trkpt>
      <trkpt lat="43.48312" lon="1.41669">
        <ele>187.9</ele>
        <time>2015-04-05T11:31:54.554Z</time>
      </trkpt>
      <trkpt lat="43.48316" lon="1.41681">
        <ele>189</ele>
        <time>2015-04-05T11:31:59.562Z</time>
      </trkpt>
      <trkpt lat="43.48322" lon="1.41704">
        <ele>190.9</ele>
        <time>2015-04-05T11:32:05.561Z</time>
      </trkpt>
      <trkpt lat="43.48323" lon="1.41718">
        <ele>191.5</ele>
        <time>2015-04-05T11:32:11.551Z</time>
      </trkpt>
      <trkpt lat="43.48324" lon="1.41731">
        <ele>192.1</ele>
        <time>2015-04-05T11:32:16.561Z</time>
      </trkpt>
      <trkpt lat="43.48325" lon="1.41747">
        <ele>191</ele>
        <time>2015-04-05T11:32:21.562Z</time>
      </trkpt>
      <trkpt lat="43.48321" lon="1.4177">
        <ele>191.3</ele>
        <time>2015-04-05T11:32:27.554Z</time>
      </trkpt>
      <trkpt lat="43.48318" lon="1.41785">
        <ele>191.5</ele>
        <time>2015-04-05T11:32:32.591Z</time>
      </trkpt>
      <trkpt lat="43.48317" lon="1.41805">
        <ele>191.5</ele>
        <time>2015-04-05T11:32:38.563Z</time>
      </trkpt>
      <trkpt lat="43.48317" lon="1.41825">
        <ele>191.7</ele>
        <time>2015-04-05T11:32:44.590Z</time>
      </trkpt>
      <trkpt lat="43.48314" lon="1.41836">
        <ele>192.2</ele>
        <time>2015-04-05T11:32:50.566Z</time>
      </trkpt>
      <trkpt lat="43.48312" lon="1.41855">
        <ele>193.3</ele>
        <time>2015-04-05T11:32:56.555Z</time>
      </trkpt>
      <trkpt lat="43.48313" lon="1.41873">
        <ele>194.1</ele>
        <time>2015-04-05T11:33:01.567Z</time>
      </trkpt>
      <trkpt lat="43.48313" lon="1.41888">
        <ele>194.9</ele>
        <time>2015-04-05T11:33:07.565Z</time>
      </trkpt>
      <trkpt lat="43.4831" lon="1.41912">
        <ele>195.4</ele>
        <time>2015-04-05T11:33:13.568Z</time>
      </trkpt>
      <trkpt lat="43.48311" lon="1.41925">
        <ele>196.5</ele>
        <time>2015-04-05T11:33:19.566Z</time>
      </trkpt>
      <trkpt lat="43.48311" lon="1.4194">
        <ele>197.3</ele>
        <time>2015-04-05T11:33:25.565Z</time>
      </trkpt>
      <trkpt lat="43.4831" lon="1.41957">
        <ele>198.2</ele>
        <time>2015-04-05T11:33:31.558Z</time>
      </trkpt>
      <trkpt lat="43.48311" lon="1.4197">
        <ele>198.8</ele>
        <time>2015-04-05T11:33:37.556Z</time>
      </trkpt>
      <trkpt lat="43.48314" lon="1.41983">
        <ele>199.8</ele>
        <time>2015-04-05T11:33:43.565Z</time>
      </trkpt>
      <trkpt lat="43.48317" lon="1.41998">
        <ele>200.8</ele>
        <time>2015-04-05T11:33:49.566Z</time>
      </trkpt>
      <trkpt lat="43.48322" lon="1.42015">
        <ele>202.4</ele>
        <time>2015-04-05T11:33:55.558Z</time>
      </trkpt>
      <trkpt lat="43.48326" lon="1.42031">
        <ele>204.2</ele>
        <time>2015-04-05T11:34:01.565Z</time>
      </trkpt>
      <trkpt lat="43.4833" lon="1.42049">
        <ele>205.7</ele>
        <time>2015-04-05T11:34:07.554Z</time>
      </trkpt>
      <trkpt lat="43.48331" lon="1.42062">
        <ele>207.1</ele>
        <time>2015-04-05T11:34:13.564Z</time>
      </trkpt>
      <trkpt lat="43.48332" lon="1.42066">
        <ele>209</ele>
        <time>2015-04-05T11:34:19.565Z</time>
      </trkpt>
      <trkpt lat="43.48335" lon="1.42075">
        <ele>212</ele>
        <time>2015-04-05T11:34:25.564Z</time>
      </trkpt>
      <trkpt lat="43.4834" lon="1.42094">
        <ele>214.2</ele>
        <time>2015-04-05T11:34:31.564Z</time>
      </trkpt>
      <trkpt lat="43.48344" lon="1.42106">
        <ele>216</ele>
        <time>2015-04-05T11:34:37.565Z</time>
      </trkpt>
      <trkpt lat="43.48357" lon="1.42122">
        <ele>217.2</ele>
        <time>2015-04-05T11:34:43.564Z</time>
      </trkpt>
      <trkpt lat="43.48366" lon="1.42133">
        <ele>217.6</ele>
        <time>2015-04-05T11:34:49.568Z</time>
      </trkpt>
      <trkpt lat="43.48376" lon="1.42144">
        <ele>218.2</ele>
        <time>2015-04-05T11:34:55.558Z</time>
      </trkpt>
      <trkpt lat="43.48385" lon="1.42153">
        <ele>218.6</ele>
        <time>2015-04-05T11:35:01.565Z</time>
      </trkpt>
      <trkpt lat="43.48393" lon="1.42161">
        <ele>219.1</ele>
        <time>2015-04-05T11:35:07.565Z</time>
      </trkpt>
      <trkpt lat="43.48401" lon="1.42173">
        <ele>219.3</ele>
        <time>2015-04-05T11:35:13.556Z</time>
      </trkpt>
      <trkpt lat="43.48408" lon="1.42191">
        <ele>219.4</ele>
        <time>2015-04-05T11:35:19.565Z</time>
      </trkpt>
      <trkpt lat="43.48414" lon="1.42203">
        <ele>219.1</ele>
        <time>2015-04-05T11:35:25.565Z</time>
      </trkpt>
      <trkpt lat="43.4842" lon="1.42211">
        <ele>219.5</ele>
        <time>2015-04-05T11:35:31.558Z</time>
      </trkpt>
      <trkpt lat="43.48421" lon="1.42223">
        <ele>220.3</ele>
        <time>2015-04-05T11:35:37.564Z</time>
      </trkpt>
      <trkpt lat="43.48423" lon="1.42238">
        <ele>220.5</ele>
        <time>2015-04-05T11:35:43.573Z</time>
      </trkpt>
      <trkpt lat="43.48423" lon="1.42254">
        <ele>221.1</ele>
        <time>2015-04-05T11:35:49.566Z</time>
      </trkpt>
      <trkpt lat="43.48423" lon="1.42267">
        <ele>221.5</ele>
        <time>2015-04-05T11:35:55.563Z</time>
      </trkpt>
      <trkpt lat="43.48419" lon="1.42277">
        <ele>222</ele>
        <time>2015-04-05T11:36:01.565Z</time>
      </trkpt>
      <trkpt lat="43.48417" lon="1.42286">
        <ele>222.5</ele>
        <time>2015-04-05T11:36:07.552Z</time>
      </trkpt>
      <trkpt lat="43.48415" lon="1.42293">
        <ele>222.5</ele>
        <time>2015-04-05T11:36:12.562Z</time>
      </trkpt>
      <trkpt lat="43.48413" lon="1.42302">
        <ele>223.3</ele>
        <time>2015-04-05T11:36:18.563Z</time>
      </trkpt>
      <trkpt lat="43.48413" lon="1.42314">
        <ele>224.5</ele>
        <time>2015-04-05T11:36:24.553Z</time>
      </trkpt>
      <trkpt lat="43.48412" lon="1.42323">
        <ele>225.2</ele>
        <time>2015-04-05T11:36:29.577Z</time>
      </trkpt>
      <trkpt lat="43.4841" lon="1.42331">
        <ele>226.4</ele>
        <time>2015-04-05T11:36:35.556Z</time>
      </trkpt>
      <trkpt lat="43.48408" lon="1.42341">
        <ele>227.8</ele>
        <time>2015-04-05T11:36:41.563Z</time>
      </trkpt>
      <trkpt lat="43.48406" lon="1.42351">
        <ele>229.2</ele>
        <time>2015-04-05T11:36:47.563Z</time>
      </trkpt>
      <trkpt lat="43.48404" lon="1.42365">
        <ele>230.6</ele>
        <time>2015-04-05T11:36:53.563Z</time>
      </trkpt>
      <trkpt lat="43.48401" lon="1.42374">
        <ele>231.6</ele>
        <time>2015-04-05T11:36:59.555Z</time>
      </trkpt>
      <trkpt lat="43.48395" lon="1.42385">
        <ele>232</ele>
        <time>2015-04-05T11:37:05.568Z</time>
      </trkpt>
      <trkpt lat="43.48392" lon="1.42399">
        <ele>232.9</ele>
        <time>2015-04-05T11:37:11.555Z</time>
      </trkpt>
      <trkpt lat="43.48391" lon="1.42411">
        <ele>233.2</ele>
        <time>2015-04-05T11:37:16.581Z</time>
      </trkpt>
      <trkpt lat="43.48389" lon="1.42428">
        <ele>234</ele>
        <time>2015-04-05T11:37:22.554Z</time>
      </trkpt>
      <trkpt lat="43.48388" lon="1.42439">
        <ele>234.5</ele>
        <time>2015-04-05T11:37:28.555Z</time>
      </trkpt>
      <trkpt lat="43.48387" lon="1.42449">
        <ele>234.6</ele>
        <time>2015-04-05T11:37:33.593Z</time>
      </trkpt>
      <trkpt lat="43.48385" lon="1.42462">
        <ele>236</ele>
        <time>2015-04-05T11:37:39.563Z</time>
      </trkpt>
      <trkpt lat="43.48385" lon="1.42478">
        <ele>237.1</ele>
        <time>2015-04-05T11:37:45.562Z</time>
      </trkpt>
      <trkpt lat="43.48387" lon="1.42492">
        <ele>236.4</ele>
        <time>2015-04-05T11:37:51.554Z</time>
      </trkpt>
      <trkpt lat="43.48387" lon="1.42508">
        <ele>235.4</ele>
        <time>2015-04-05T11:37:57.558Z</time>
      </trkpt>
      <trkpt lat="43.48386" lon="1.42522">
        <ele>234.1</ele>
        <time>2015-04-05T11:38:03.555Z</time>
      </trkpt>
      <trkpt lat="43.48383" lon="1.4253">
        <ele>233.8</ele>
        <time>2015-04-05T11:38:08.580Z</time>
      </trkpt>
      <trkpt lat="43.4838" lon="1.42543">
        <ele>233.9</ele>
        <time>2015-04-05T11:38:14.562Z</time>
      </trkpt>
      <trkpt lat="43.48379" lon="1.42556">
        <ele>233.6</ele>
        <time>2015-04-05T11:38:20.553Z</time>
      </trkpt>
      <trkpt lat="43.48378" lon="1.42569">
        <ele>233.4</ele>
        <time>2015-04-05T11:38:25.582Z</time>
      </trkpt>
      <trkpt lat="43.48377" lon="1.42583">
        <ele>232.7</ele>
        <time>2015-04-05T11:38:31.565Z</time>
      </trkpt>
      <trkpt lat="43.48375" lon="1.42595">
        <ele>231.8</ele>
        <time>2015-04-05T11:38:37.565Z</time>
      </trkpt>
      <trkpt lat="43.4837" lon="1.42605">
        <ele>231.8</ele>
        <time>2015-04-05T11:38:43.557Z</time>
      </trkpt>
      <trkpt lat="43.48368" lon="1.42619">
        <ele>231.8</ele>
        <time>2015-04-05T11:38:49.565Z</time>
      </trkpt>
      <trkpt lat="43.48365" lon="1.42634">
        <ele>231.7</ele>
        <time>2015-04-05T11:38:55.555Z</time>
      </trkpt>
      <trkpt lat="43.48362" lon="1.42648">
        <ele>231.7</ele>
        <time>2015-04-05T11:39:01.565Z</time>
      </trkpt>
      <trkpt lat="43.4836" lon="1.42662">
        <ele>231.2</ele>
        <time>2015-04-05T11:39:07.564Z</time>
      </trkpt>
      <trkpt lat="43.48356" lon="1.42677">
        <ele>231</ele>
        <time>2015-04-05T11:39:13.558Z</time>
      </trkpt>
      <trkpt lat="43.48352" lon="1.42688">
        <ele>231.7</ele>
        <time>2015-04-05T11:39:19.567Z</time>
      </trkpt>
      <trkpt lat="43.48349" lon="1.42703">
        <ele>232</ele>
        <time>2015-04-05T11:39:25.558Z</time>
      </trkpt>
      <trkpt lat="43.48346" lon="1.42716">
        <ele>232.6</ele>
        <time>2015-04-05T11:39:31.600Z</time>
      </trkpt>
      <trkpt lat="43.48342" lon="1.42729">
        <ele>232.8</ele>
        <time>2015-04-05T11:39:37.553Z</time>
      </trkpt>
      <trkpt lat="43.48338" lon="1.4274">
        <ele>233.2</ele>
        <time>2015-04-05T11:39:43.563Z</time>
      </trkpt>
      <trkpt lat="43.48334" lon="1.42751">
        <ele>233.9</ele>
        <time>2015-04-05T11:39:49.565Z</time>
      </trkpt>
      <trkpt lat="43.4833" lon="1.42765">
        <ele>234.6</ele>
        <time>2015-04-05T11:39:55.563Z</time>
      </trkpt>
      <trkpt lat="43.48326" lon="1.42778">
        <ele>235.1</ele>
        <time>2015-04-05T11:40:01.565Z</time>
      </trkpt>
      <trkpt lat="43.48322" lon="1.42792">
        <ele>235.2</ele>
        <time>2015-04-05T11:40:07.565Z</time>
      </trkpt>
      <trkpt lat="43.48319" lon="1.42806">
        <ele>235.8</ele>
        <time>2015-04-05T11:40:13.558Z</time>
      </trkpt>
      <trkpt lat="43.48315" lon="1.42819">
        <ele>236.4</ele>
        <time>2015-04-05T11:40:19.569Z</time>
      </trkpt>
      <trkpt lat="43.48309" lon="1.42831">
        <ele>237.3</ele>
        <time>2015-04-05T11:40:25.557Z</time>
      </trkpt>
      <trkpt lat="43.48306" lon="1.42843">
        <ele>238.1</ele>
        <time>2015-04-05T11:40:31.564Z</time>
      </trkpt>
      <trkpt lat="43.48301" lon="1.42856">
        <ele>239.5</ele>
        <time>2015-04-05T11:40:37.557Z</time>
      </trkpt>
      <trkpt lat="43.48298" lon="1.42865">
        <ele>240.8</ele>
        <time>2015-04-05T11:40:42.568Z</time>
      </trkpt>
      <trkpt lat="43.48294" lon="1.42877">
        <ele>241.7</ele>
        <time>2015-04-05T11:40:48.563Z</time>
      </trkpt>
      <trkpt lat="43.4829" lon="1.42889">
        <ele>242.5</ele>
        <time>2015-04-05T11:40:54.556Z</time>
      </trkpt>
      <trkpt lat="43.48285" lon="1.42899">
        <ele>243.4</ele>
        <time>2015-04-05T11:40:59.580Z</time>
      </trkpt>
      <trkpt lat="43.48281" lon="1.4291">
        <ele>244.5</ele>
        <time>2015-04-05T11:41:05.564Z</time>
      </trkpt>
      <trkpt lat="43.48276" lon="1.42922">
        <ele>245.8</ele>
        <time>2015-04-05T11:41:11.554Z</time>
      </trkpt>
      <trkpt lat="43.48271" lon="1.42931">
        <ele>246.3</ele>
        <time>2015-04-05T11:41:16.563Z</time>
      </trkpt>
      <trkpt lat="43.48265" lon="1.42941">
        <ele>247.4</ele>
        <time>2015-04-05T11:41:22.568Z</time>
      </trkpt>
      <trkpt lat="43.4826" lon="1.42953">
        <ele>248.3</ele>
        <time>2015-04-05T11:41:28.564Z</time>
      </trkpt>
      <trkpt lat="43.48254" lon="1.42962">
        <ele>249.9</ele>
        <time>2015-04-05T11:41:34.558Z</time>
      </trkpt>
      <trkpt lat="43.48249" lon="1.42971">
        <ele>251.2</ele>
        <time>2015-04-05T11:41:40.563Z</time>
      </trkpt>
      <trkpt lat="43.48243" lon="1.42979">
        <ele>253</ele>
        <time>2015-04-05T11:41:46.555Z</time>
      </trkpt>
      <trkpt lat="43.48239" lon="1.42988">
        <ele>254.4</ele>
        <time>2015-04-05T11:41:51.564Z</time>
      </trkpt>
      <trkpt lat="43.48231" lon="1.42997">
        <ele>256.2</ele>
        <time>2015-04-05T11:41:57.564Z</time>
      </trkpt>
      <trkpt lat="43.48225" lon="1.43009">
        <ele>257.9</ele>
        <time>2015-04-05T11:42:03.556Z</time>
      </trkpt>
      <trkpt lat="43.48223" lon="1.43019">
        <ele>259.4</ele>
        <time>2015-04-05T11:42:08.554Z</time>
      </trkpt>
      <trkpt lat="43.48221" lon="1.43026">
        <ele>261.1</ele>
        <time>2015-04-05T11:42:13.557Z</time>
      </trkpt>
      <trkpt lat="43.48217" lon="1.4304">
        <ele>262.8</ele>
        <time>2015-04-05T11:42:19.566Z</time>
      </trkpt>
      <trkpt lat="43.48212" lon="1.43053">
        <ele>264.2</ele>
        <time>2015-04-05T11:42:25.555Z</time>
      </trkpt>
      <trkpt lat="43.48205" lon="1.43067">
        <ele>265.6</ele>
        <time>2015-04-05T11:42:31.565Z</time>
      </trkpt>
      <trkpt lat="43.482" lon="1.43077">
        <ele>267.1</ele>
        <time>2015-04-05T11:42:37.560Z</time>
      </trkpt>
      <trkpt lat="43.48195" lon="1.43088">
        <ele>268.4</ele>
        <time>2015-04-05T11:42:43.556Z</time>
      </trkpt>
      <trkpt lat="43.48191" lon="1.43102">
        <ele>269.8</ele>
        <time>2015-04-05T11:42:49.565Z</time>
      </trkpt>
      <trkpt lat="43.48186" lon="1.43116">
        <ele>270.6</ele>
        <time>2015-04-05T11:42:55.564Z</time>
      </trkpt>
      <trkpt lat="43.48181" lon="1.43129">
        <ele>270.9</ele>
        <time>2015-04-05T11:43:01.565Z</time>
      </trkpt>
      <trkpt lat="43.48177" lon="1.43142">
        <ele>271.6</ele>
        <time>2015-04-05T11:43:07.559Z</time>
      </trkpt>
      <trkpt lat="43.48175" lon="1.4315">
        <ele>273</ele>
        <time>2015-04-05T11:43:13.565Z</time>
      </trkpt>
      <trkpt lat="43.4817" lon="1.43162">
        <ele>274.1</ele>
        <time>2015-04-05T11:43:19.565Z</time>
      </trkpt>
      <trkpt lat="43.48164" lon="1.43177">
        <ele>273.8</ele>
        <time>2015-04-05T11:43:25.553Z</time>
      </trkpt>
      <trkpt lat="43.48162" lon="1.43187">
        <ele>273.2</ele>
        <time>2015-04-05T11:43:31.553Z</time>
      </trkpt>
      <trkpt lat="43.48171" lon="1.43194">
        <ele>273.4</ele>
        <time>2015-04-05T11:43:37.565Z</time>
      </trkpt>
      <trkpt lat="43.48184" lon="1.43201">
        <ele>273.7</ele>
        <time>2015-04-05T11:43:43.559Z</time>
      </trkpt>
      <trkpt lat="43.48194" lon="1.43209">
        <ele>274.2</ele>
        <time>2015-04-05T11:43:49.565Z</time>
      </trkpt>
      <trkpt lat="43.48201" lon="1.43218">
        <ele>275.1</ele>
        <time>2015-04-05T11:43:55.557Z</time>
      </trkpt>
      <trkpt lat="43.48209" lon="1.43231">
        <ele>275.4</ele>
        <time>2015-04-05T11:44:01.563Z</time>
      </trkpt>
      <trkpt lat="43.4822" lon="1.43246">
        <ele>276.6</ele>
        <time>2015-04-05T11:44:07.564Z</time>
      </trkpt>
      <trkpt lat="43.48232" lon="1.43261">
        <ele>278.1</ele>
        <time>2015-04-05T11:44:13.564Z</time>
      </trkpt>
      <trkpt lat="43.48245" lon="1.43261">
        <ele>279.9</ele>
        <time>2015-04-05T11:44:19.565Z</time>
      </trkpt>
      <trkpt lat="43.48251" lon="1.43251">
        <ele>281.2</ele>
        <time>2015-04-05T11:44:25.553Z</time>
      </trkpt>
      <trkpt lat="43.48248" lon="1.4325">
        <ele>281.8</ele>
        <time>2015-04-05T11:44:37.565Z</time>
      </trkpt>
      <trkpt lat="43.48242" lon="1.43261">
        <ele>280.4</ele>
        <time>2015-04-05T11:44:43.565Z</time>
      </trkpt>
      <trkpt lat="43.48234" lon="1.43269">
        <ele>278.7</ele>
        <time>2015-04-05T11:44:49.564Z</time>
      </trkpt>
      <trkpt lat="43.48224" lon="1.43256">
        <ele>279.3</ele>
        <time>2015-04-05T11:44:55.564Z</time>
      </trkpt>
      <trkpt lat="43.48221" lon="1.43237">
        <ele>279.4</ele>
        <time>2015-04-05T11:45:01.564Z</time>
      </trkpt>
      <trkpt lat="43.48211" lon="1.43223">
        <ele>280</ele>
        <time>2015-04-05T11:45:07.565Z</time>
      </trkpt>
      <trkpt lat="43.48195" lon="1.43222">
        <ele>279.8</ele>
        <time>2015-04-05T11:45:13.556Z</time>
      </trkpt>
      <trkpt lat="43.48177" lon="1.43237">
        <ele>278.8</ele>
        <time>2015-04-05T11:45:19.564Z</time>
      </trkpt>
      <trkpt lat="43.48159" lon="1.43256">
        <ele>278.7</ele>
        <time>2015-04-05T11:45:25.564Z</time>
      </trkpt>
      <trkpt lat="43.48146" lon="1.43271">
        <ele>279.1</ele>
        <time>2015-04-05T11:45:31.564Z</time>
      </trkpt>
      <trkpt lat="43.48134" lon="1.43292">
        <ele>278.5</ele>
        <time>2015-04-05T11:45:37.558Z</time>
      </trkpt>
      <trkpt lat="43.48123" lon="1.43321">
        <ele>277.6</ele>
        <time>2015-04-05T11:45:43.557Z</time>
      </trkpt>
      <trkpt lat="43.48112" lon="1.43353">
        <ele>276.7</ele>
        <time>2015-04-05T11:45:49.565Z</time>
      </trkpt>
      <trkpt lat="43.48101" lon="1.43388">
        <ele>275.5</ele>
        <time>2015-04-05T11:45:55.556Z</time>
      </trkpt>
      <trkpt lat="43.48088" lon="1.43419">
        <ele>273.8</ele>
        <time>2015-04-05T11:46:01.567Z</time>
      </trkpt>
      <trkpt lat="43.48072" lon="1.43448">
        <ele>272.4</ele>
        <time>2015-04-05T11:46:07.565Z</time>
      </trkpt>
      <trkpt lat="43.48056" lon="1.43475">
        <ele>271.1</ele>
        <time>2015-04-05T11:46:13.564Z</time>
      </trkpt>
      <trkpt lat="43.48043" lon="1.43507">
        <ele>270.4</ele>
        <time>2015-04-05T11:46:19.556Z</time>
      </trkpt>
      <trkpt lat="43.48031" lon="1.43543">
        <ele>269.3</ele>
        <time>2015-04-05T11:46:25.565Z</time>
      </trkpt>
      <trkpt lat="43.48019" lon="1.43577">
        <ele>268.7</ele>
        <time>2015-04-05T11:46:31.563Z</time>
      </trkpt>
      <trkpt lat="43.48006" lon="1.43615">
        <ele>267.9</ele>
        <time>2015-04-05T11:46:37.564Z</time>
      </trkpt>
      <trkpt lat="43.47992" lon="1.43652">
        <ele>267.3</ele>
        <time>2015-04-05T11:46:43.564Z</time>
      </trkpt>
      <trkpt lat="43.47976" lon="1.43685">
        <ele>267.5</ele>
        <time>2015-04-05T11:46:49.558Z</time>
      </trkpt>
      <trkpt lat="43.47963" lon="1.43724">
        <ele>266.7</ele>
        <time>2015-04-05T11:46:55.564Z</time>
      </trkpt>
      <trkpt lat="43.47948" lon="1.43763">
        <ele>266.7</ele>
        <time>2015-04-05T11:47:01.564Z</time>
      </trkpt>
      <trkpt lat="43.47929" lon="1.43798">
        <ele>267.1</ele>
        <time>2015-04-05T11:47:07.564Z</time>
      </trkpt>
      <trkpt lat="43.47913" lon="1.43834">
        <ele>266.8</ele>
        <time>2015-04-05T11:47:13.556Z</time>
      </trkpt>
      <trkpt lat="43.47894" lon="1.43864">
        <ele>267</ele>
        <time>2015-04-05T11:47:19.564Z</time>
      </trkpt>
      <trkpt lat="43.47874" lon="1.43892">
        <ele>266.5</ele>
        <time>2015-04-05T11:47:25.563Z</time>
      </trkpt>
      <trkpt lat="43.47853" lon="1.43924">
        <ele>265.6</ele>
        <time>2015-04-05T11:47:31.564Z</time>
      </trkpt>
      <trkpt lat="43.47837" lon="1.43966">
        <ele>264.1</ele>
        <time>2015-04-05T11:47:37.611Z</time>
      </trkpt>
      <trkpt lat="43.47814" lon="1.44008">
        <ele>262.9</ele>
        <time>2015-04-05T11:47:43.557Z</time>
      </trkpt>
      <trkpt lat="43.47788" lon="1.44048">
        <ele>261.3</ele>
        <time>2015-04-05T11:47:49.564Z</time>
      </trkpt>
      <trkpt lat="43.47757" lon="1.44083">
        <ele>261.6</ele>
        <time>2015-04-05T11:47:55.557Z</time>
      </trkpt>
      <trkpt lat="43.47727" lon="1.44116">
        <ele>261.2</ele>
        <time>2015-04-05T11:48:01.564Z</time>
      </trkpt>
      <trkpt lat="43.47702" lon="1.44147">
        <ele>261.1</ele>
        <time>2015-04-05T11:48:07.564Z</time>
      </trkpt>
      <trkpt lat="43.47679" lon="1.4418">
        <ele>262.2</ele>
        <time>2015-04-05T11:48:13.602Z</time>
      </trkpt>
      <trkpt lat="43.47657" lon="1.44214">
        <ele>263.2</ele>
        <time>2015-04-05T11:48:19.556Z</time>
      </trkpt>
      <trkpt lat="43.47642" lon="1.44241">
        <ele>264.9</ele>
        <time>2015-04-05T11:48:25.564Z</time>
      </trkpt>
      <trkpt lat="43.47627" lon="1.44265">
        <ele>267.4</ele>
        <time>2015-04-05T11:48:31.564Z</time>
      </trkpt>
      <trkpt lat="43.47609" lon="1.44289">
        <ele>269.3</ele>
        <time>2015-04-05T11:48:37.564Z</time>
      </trkpt>
      <trkpt lat="43.47592" lon="1.44311">
        <ele>270.6</ele>
        <time>2015-04-05T11:48:43.565Z</time>
      </trkpt>
      <trkpt lat="43.47574" lon="1.44333">
        <ele>271.7</ele>
        <time>2015-04-05T11:48:49.564Z</time>
      </trkpt>
      <trkpt lat="43.47556" lon="1.44358">
        <ele>272.2</ele>
        <time>2015-04-05T11:48:55.565Z</time>
      </trkpt>
      <trkpt lat="43.47537" lon="1.4438">
        <ele>272.9</ele>
        <time>2015-04-05T11:49:01.565Z</time>
      </trkpt>
      <trkpt lat="43.47521" lon="1.44404">
        <ele>272.3</ele>
        <time>2015-04-05T11:49:07.565Z</time>
      </trkpt>
      <trkpt lat="43.47502" lon="1.44431">
        <ele>271.7</ele>
        <time>2015-04-05T11:49:13.565Z</time>
      </trkpt>
      <trkpt lat="43.47482" lon="1.44453">
        <ele>272.5</ele>
        <time>2015-04-05T11:49:19.557Z</time>
      </trkpt>
      <trkpt lat="43.4746" lon="1.4447">
        <ele>274.4</ele>
        <time>2015-04-05T11:49:25.565Z</time>
      </trkpt>
      <trkpt lat="43.47439" lon="1.44485">
        <ele>275.1</ele>
        <time>2015-04-05T11:49:31.556Z</time>
      </trkpt>
      <trkpt lat="43.47418" lon="1.44503">
        <ele>276.3</ele>
        <time>2015-04-05T11:49:37.566Z</time>
      </trkpt>
      <trkpt lat="43.47396" lon="1.44525">
        <ele>278.1</ele>
        <time>2015-04-05T11:49:43.565Z</time>
      </trkpt>
      <trkpt lat="43.47374" lon="1.44551">
        <ele>277.7</ele>
        <time>2015-04-05T11:49:49.555Z</time>
      </trkpt>
      <trkpt lat="43.4735" lon="1.44583">
        <ele>277.6</ele>
        <time>2015-04-05T11:49:55.556Z</time>
      </trkpt>
      <trkpt lat="43.47332" lon="1.44612">
        <ele>276.9</ele>
        <time>2015-04-05T11:50:00.581Z</time>
      </trkpt>
      <trkpt lat="43.47313" lon="1.44649">
        <ele>275</ele>
        <time>2015-04-05T11:50:06.563Z</time>
      </trkpt>
      <trkpt lat="43.47295" lon="1.44685">
        <ele>274.2</ele>
        <time>2015-04-05T11:50:12.551Z</time>
      </trkpt>
      <trkpt lat="43.47281" lon="1.44715">
        <ele>273.4</ele>
        <time>2015-04-05T11:50:17.582Z</time>
      </trkpt>
      <trkpt lat="43.47265" lon="1.44751">
        <ele>271.9</ele>
        <time>2015-04-05T11:50:23.562Z</time>
      </trkpt>
      <trkpt lat="43.47247" lon="1.44782">
        <ele>271.5</ele>
        <time>2015-04-05T11:50:29.561Z</time>
      </trkpt>
      <trkpt lat="43.47232" lon="1.44807">
        <ele>271.2</ele>
        <time>2015-04-05T11:50:34.561Z</time>
      </trkpt>
      <trkpt lat="43.47211" lon="1.44836">
        <ele>270.8</ele>
        <time>2015-04-05T11:50:40.588Z</time>
      </trkpt>
      <trkpt lat="43.47191" lon="1.44864">
        <ele>269.5</ele>
        <time>2015-04-05T11:50:46.562Z</time>
      </trkpt>
      <trkpt lat="43.47175" lon="1.4489">
        <ele>268.3</ele>
        <time>2015-04-05T11:50:52.562Z</time>
      </trkpt>
      <trkpt lat="43.47162" lon="1.44906">
        <ele>268.5</ele>
        <time>2015-04-05T11:50:58.555Z</time>
      </trkpt>
      <trkpt lat="43.47152" lon="1.44918">
        <ele>268.9</ele>
        <time>2015-04-05T11:51:03.578Z</time>
      </trkpt>
      <trkpt lat="43.47135" lon="1.4494">
        <ele>271.2</ele>
        <time>2015-04-05T11:51:09.563Z</time>
      </trkpt>
      <trkpt lat="43.47115" lon="1.44967">
        <ele>272.8</ele>
        <time>2015-04-05T11:51:15.562Z</time>
      </trkpt>
      <trkpt lat="43.47091" lon="1.45004">
        <ele>270.3</ele>
        <time>2015-04-05T11:51:21.552Z</time>
      </trkpt>
      <trkpt lat="43.47069" lon="1.45032">
        <ele>268.9</ele>
        <time>2015-04-05T11:51:26.563Z</time>
      </trkpt>
      <trkpt lat="43.47052" lon="1.45062">
        <ele>268.3</ele>
        <time>2015-04-05T11:51:31.564Z</time>
      </trkpt>
      <trkpt lat="43.47025" lon="1.45098">
        <ele>266.9</ele>
        <time>2015-04-05T11:51:37.564Z</time>
      </trkpt>
      <trkpt lat="43.46997" lon="1.45135">
        <ele>266</ele>
        <time>2015-04-05T11:51:43.554Z</time>
      </trkpt>
      <trkpt lat="43.46969" lon="1.45174">
        <ele>265</ele>
        <time>2015-04-05T11:51:49.564Z</time>
      </trkpt>
      <trkpt lat="43.46946" lon="1.45217">
        <ele>265.5</ele>
        <time>2015-04-05T11:51:55.564Z</time>
      </trkpt>
      <trkpt lat="43.46932" lon="1.45255">
        <ele>266.2</ele>
        <time>2015-04-05T11:52:01.557Z</time>
      </trkpt>
      <trkpt lat="43.46921" lon="1.45284">
        <ele>267</ele>
        <time>2015-04-05T11:52:07.564Z</time>
      </trkpt>
      <trkpt lat="43.46914" lon="1.45304">
        <ele>267.6</ele>
        <time>2015-04-05T11:52:13.563Z</time>
      </trkpt>
      <trkpt lat="43.46916" lon="1.4532">
        <ele>269.3</ele>
        <time>2015-04-05T11:52:19.564Z</time>
      </trkpt>
      <trkpt lat="43.46935" lon="1.45312">
        <ele>271.9</ele>
        <time>2015-04-05T11:52:25.553Z</time>
      </trkpt>
      <trkpt lat="43.46954" lon="1.45307">
        <ele>273.9</ele>
        <time>2015-04-05T11:52:31.564Z</time>
      </trkpt>
      <trkpt lat="43.46971" lon="1.45311">
        <ele>275.6</ele>
        <time>2015-04-05T11:52:37.564Z</time>
      </trkpt>
      <trkpt lat="43.46987" lon="1.45318">
        <ele>275.7</ele>
        <time>2015-04-05T11:52:43.564Z</time>
      </trkpt>
      <trkpt lat="43.47" lon="1.45325">
        <ele>276.3</ele>
        <time>2015-04-05T11:52:49.557Z</time>
      </trkpt>
      <trkpt lat="43.47014" lon="1.45333">
        <ele>276.2</ele>
        <time>2015-04-05T11:52:55.564Z</time>
      </trkpt>
      <trkpt lat="43.47033" lon="1.45345">
        <ele>277</ele>
        <time>2015-04-05T11:53:01.564Z</time>
      </trkpt>
      <trkpt lat="43.47055" lon="1.45363">
        <ele>278.4</ele>
        <time>2015-04-05T11:53:07.564Z</time>
      </trkpt>
      <trkpt lat="43.47084" lon="1.45386">
        <ele>279.7</ele>
        <time>2015-04-05T11:53:13.553Z</time>
      </trkpt>
      <trkpt lat="43.47114" lon="1.45391">
        <ele>279.1</ele>
        <time>2015-04-05T11:53:19.564Z</time>
      </trkpt>
      <trkpt lat="43.47144" lon="1.4537">
        <ele>279.1</ele>
        <time>2015-04-05T11:53:25.565Z</time>
      </trkpt>
      <trkpt lat="43.47168" lon="1.45323">
        <ele>278.3</ele>
        <time>2015-04-05T11:53:31.564Z</time>
      </trkpt>
      <trkpt lat="43.47193" lon="1.45266">
        <ele>276.9</ele>
        <time>2015-04-05T11:53:37.564Z</time>
      </trkpt>
      <trkpt lat="43.47219" lon="1.45211">
        <ele>275.6</ele>
        <time>2015-04-05T11:53:43.563Z</time>
      </trkpt>
      <trkpt lat="43.47243" lon="1.45159">
        <ele>274.1</ele>
        <time>2015-04-05T11:53:49.564Z</time>
      </trkpt>
      <trkpt lat="43.47263" lon="1.45117">
        <ele>271</ele>
        <time>2015-04-05T11:53:55.564Z</time>
      </trkpt>
      <trkpt lat="43.47287" lon="1.45088">
        <ele>268.5</ele>
        <time>2015-04-05T11:54:01.556Z</time>
      </trkpt>
      <trkpt lat="43.47321" lon="1.45076">
        <ele>265.5</ele>
        <time>2015-04-05T11:54:07.564Z</time>
      </trkpt>
      <trkpt lat="43.47356" lon="1.45064">
        <ele>263.1</ele>
        <time>2015-04-05T11:54:13.565Z</time>
      </trkpt>
      <trkpt lat="43.47389" lon="1.45045">
        <ele>261</ele>
        <time>2015-04-05T11:54:19.564Z</time>
      </trkpt>
      <trkpt lat="43.47422" lon="1.45026">
        <ele>258</ele>
        <time>2015-04-05T11:54:25.553Z</time>
      </trkpt>
      <trkpt lat="43.47456" lon="1.45009">
        <ele>254.5</ele>
        <time>2015-04-05T11:54:31.563Z</time>
      </trkpt>
      <trkpt lat="43.47497" lon="1.4502">
        <ele>250.4</ele>
        <time>2015-04-05T11:54:37.554Z</time>
      </trkpt>
      <trkpt lat="43.47536" lon="1.45052">
        <ele>248.3</ele>
        <time>2015-04-05T11:54:43.556Z</time>
      </trkpt>
      <trkpt lat="43.47572" lon="1.45078">
        <ele>248.2</ele>
        <time>2015-04-05T11:54:49.563Z</time>
      </trkpt>
      <trkpt lat="43.47602" lon="1.45098">
        <ele>248.5</ele>
        <time>2015-04-05T11:54:55.563Z</time>
      </trkpt>
      <trkpt lat="43.47621" lon="1.45114">
        <ele>248.1</ele>
        <time>2015-04-05T11:55:01.565Z</time>
      </trkpt>
      <trkpt lat="43.47641" lon="1.45125">
        <ele>248.7</ele>
        <time>2015-04-05T11:55:07.564Z</time>
      </trkpt>
      <trkpt lat="43.47672" lon="1.45143">
        <ele>247.7</ele>
        <time>2015-04-05T11:55:13.564Z</time>
      </trkpt>
      <trkpt lat="43.47707" lon="1.4516">
        <ele>246.2</ele>
        <time>2015-04-05T11:55:19.564Z</time>
      </trkpt>
      <trkpt lat="43.4774" lon="1.45176">
        <ele>245</ele>
        <time>2015-04-05T11:55:25.564Z</time>
      </trkpt>
      <trkpt lat="43.47768" lon="1.45185">
        <ele>244.4</ele>
        <time>2015-04-05T11:55:31.564Z</time>
      </trkpt>
      <trkpt lat="43.47792" lon="1.45194">
        <ele>243.7</ele>
        <time>2015-04-05T11:55:37.564Z</time>
      </trkpt>
      <trkpt lat="43.47814" lon="1.45215">
        <ele>243.1</ele>
        <time>2015-04-05T11:55:43.564Z</time>
      </trkpt>
      <trkpt lat="43.47836" lon="1.45242">
        <ele>241.5</ele>
        <time>2015-04-05T11:55:49.564Z</time>
      </trkpt>
      <trkpt lat="43.47854" lon="1.45263">
        <ele>239.6</ele>
        <time>2015-04-05T11:55:55.565Z</time>
      </trkpt>
      <trkpt lat="43.47872" lon="1.4528">
        <ele>236.3</ele>
        <time>2015-04-05T11:56:01.566Z</time>
      </trkpt>
      <trkpt lat="43.47904" lon="1.45313">
        <ele>229.6</ele>
        <time>2015-04-05T11:56:07.569Z</time>
      </trkpt>
      <trkpt lat="43.47929" lon="1.45339">
        <ele>224.7</ele>
        <time>2015-04-05T11:56:13.557Z</time>
      </trkpt>
      <trkpt lat="43.47954" lon="1.45366">
        <ele>219.8</ele>
        <time>2015-04-05T11:56:19.565Z</time>
      </trkpt>
      <trkpt lat="43.47971" lon="1.45386">
        <ele>215.1</ele>
        <time>2015-04-05T11:56:25.564Z</time>
      </trkpt>
      <trkpt lat="43.47978" lon="1.45408">
        <ele>211.4</ele>
        <time>2015-04-05T11:56:31.557Z</time>
      </trkpt>
      <trkpt lat="43.47969" lon="1.45413">
        <ele>208.6</ele>
        <time>2015-04-05T11:56:37.579Z</time>
      </trkpt>
      <trkpt lat="43.47948" lon="1.45422">
        <ele>206.2</ele>
        <time>2015-04-05T11:56:43.564Z</time>
      </trkpt>
      <trkpt lat="43.47926" lon="1.4543">
        <ele>205.2</ele>
        <time>2015-04-05T11:56:49.564Z</time>
      </trkpt>
      <trkpt lat="43.47908" lon="1.45441">
        <ele>204.5</ele>
        <time>2015-04-05T11:56:55.564Z</time>
      </trkpt>
      <trkpt lat="43.47895" lon="1.45444">
        <ele>204.7</ele>
        <time>2015-04-05T11:57:01.557Z</time>
      </trkpt>
      <trkpt lat="43.47895" lon="1.4545">
        <ele>203.9</ele>
        <time>2015-04-05T11:57:07.564Z</time>
      </trkpt>
      <trkpt lat="43.47908" lon="1.45448">
        <ele>203.4</ele>
        <time>2015-04-05T11:57:13.558Z</time>
      </trkpt>
      <trkpt lat="43.47931" lon="1.45437">
        <ele>203.2</ele>
        <time>2015-04-05T11:57:19.564Z</time>
      </trkpt>
      <trkpt lat="43.47952" lon="1.45436">
        <ele>202.9</ele>
        <time>2015-04-05T11:57:25.564Z</time>
      </trkpt>
      <trkpt lat="43.47988" lon="1.45417">
        <ele>203.5</ele>
        <time>2015-04-05T11:57:31.564Z</time>
      </trkpt>
      <trkpt lat="43.48024" lon="1.45399">
        <ele>205.3</ele>
        <time>2015-04-05T11:57:37.564Z</time>
      </trkpt>
      <trkpt lat="43.48058" lon="1.45386">
        <ele>208</ele>
        <time>2015-04-05T11:57:43.563Z</time>
      </trkpt>
      <trkpt lat="43.48085" lon="1.45383">
        <ele>209.5</ele>
        <time>2015-04-05T11:57:49.564Z</time>
      </trkpt>
      <trkpt lat="43.48083" lon="1.45411">
        <ele>205.6</ele>
        <time>2015-04-05T11:57:55.564Z</time>
      </trkpt>
      <trkpt lat="43.48065" lon="1.4543">
        <ele>204.3</ele>
        <time>2015-04-05T11:58:01.557Z</time>
      </trkpt>
      <trkpt lat="43.48042" lon="1.45446">
        <ele>202.9</ele>
        <time>2015-04-05T11:58:07.564Z</time>
      </trkpt>
      <trkpt lat="43.48014" lon="1.45469">
        <ele>201.8</ele>
        <time>2015-04-05T11:58:13.564Z</time>
      </trkpt>
      <trkpt lat="43.47975" lon="1.45491">
        <ele>200.9</ele>
        <time>2015-04-05T11:58:19.565Z</time>
      </trkpt>
      <trkpt lat="43.47937" lon="1.45511">
        <ele>200.1</ele>
        <time>2015-04-05T11:58:25.557Z</time>
      </trkpt>
      <trkpt lat="43.47918" lon="1.45524">
        <ele>199.8</ele>
        <time>2015-04-05T11:58:31.553Z</time>
      </trkpt>
      <trkpt lat="43.47897" lon="1.45539">
        <ele>199.8</ele>
        <time>2015-04-05T11:58:37.565Z</time>
      </trkpt>
      <trkpt lat="43.47878" lon="1.45564">
        <ele>199.6</ele>
        <time>2015-04-05T11:58:43.557Z</time>
      </trkpt>
      <trkpt lat="43.4786" lon="1.45584">
        <ele>200.2</ele>
        <time>2015-04-05T11:58:49.564Z</time>
      </trkpt>
      <trkpt lat="43.47837" lon="1.45602">
        <ele>201.5</ele>
        <time>2015-04-05T11:58:55.565Z</time>
      </trkpt>
      <trkpt lat="43.47808" lon="1.4561">
        <ele>202.7</ele>
        <time>2015-04-05T11:59:01.557Z</time>
      </trkpt>
      <trkpt lat="43.47782" lon="1.45621">
        <ele>204.1</ele>
        <time>2015-04-05T11:59:07.564Z</time>
      </trkpt>
      <trkpt lat="43.47749" lon="1.45632">
        <ele>205.8</ele>
        <time>2015-04-05T11:59:13.564Z</time>
      </trkpt>
      <trkpt lat="43.47726" lon="1.45641">
        <ele>207.5</ele>
        <time>2015-04-05T11:59:19.557Z</time>
      </trkpt>
      <trkpt lat="43.47713" lon="1.45645">
        <ele>208.8</ele>
        <time>2015-04-05T11:59:24.582Z</time>
      </trkpt>
      <trkpt lat="43.47684" lon="1.45657">
        <ele>208.3</ele>
        <time>2015-04-05T11:59:30.552Z</time>
      </trkpt>
      <trkpt lat="43.47656" lon="1.45683">
        <ele>210.8</ele>
        <time>2015-04-05T11:59:36.555Z</time>
      </trkpt>
      <trkpt lat="43.47635" lon="1.45698">
        <ele>212.3</ele>
        <time>2015-04-05T11:59:41.563Z</time>
      </trkpt>
      <trkpt lat="43.47608" lon="1.45718">
        <ele>214.5</ele>
        <time>2015-04-05T11:59:47.564Z</time>
      </trkpt>
      <trkpt lat="43.47587" lon="1.45732">
        <ele>215.8</ele>
        <time>2015-04-05T11:59:52.578Z</time>
      </trkpt>
      <trkpt lat="43.47556" lon="1.45748">
        <ele>216.3</ele>
        <time>2015-04-05T11:59:58.562Z</time>
      </trkpt>
      <trkpt lat="43.47534" lon="1.45763">
        <ele>215.1</ele>
        <time>2015-04-05T12:00:04.552Z</time>
      </trkpt>
      <trkpt lat="43.47518" lon="1.45774">
        <ele>213.3</ele>
        <time>2015-04-05T12:00:09.579Z</time>
      </trkpt>
      <trkpt lat="43.47496" lon="1.4579">
        <ele>212.8</ele>
        <time>2015-04-05T12:00:15.562Z</time>
      </trkpt>
      <trkpt lat="43.47477" lon="1.45803">
        <ele>209.9</ele>
        <time>2015-04-05T12:00:21.555Z</time>
      </trkpt>
      <trkpt lat="43.47464" lon="1.45819">
        <ele>209.5</ele>
        <time>2015-04-05T12:00:26.580Z</time>
      </trkpt>
      <trkpt lat="43.47455" lon="1.45832">
        <ele>210.5</ele>
        <time>2015-04-05T12:00:31.565Z</time>
      </trkpt>
      <trkpt lat="43.47444" lon="1.45851">
        <ele>212</ele>
        <time>2015-04-05T12:00:37.597Z</time>
      </trkpt>
      <trkpt lat="43.47438" lon="1.45854">
        <ele>212</ele>
        <time>2015-04-05T12:00:44.312Z</time>
      </trkpt>
      <trkpt lat="43.47431" lon="1.45864">
        <ele>210.6</ele>
        <time>2015-04-05T12:00:55.554Z</time>
      </trkpt>
      <trkpt lat="43.4743" lon="1.45865">
        <ele>209.8</ele>
        <time>2015-04-05T12:01:19.565Z</time>
      </trkpt>
      <trkpt lat="43.47423" lon="1.45875">
        <ele>208.3</ele>
        <time>2015-04-05T12:01:25.554Z</time>
      </trkpt>
      <trkpt lat="43.47423" lon="1.45866">
        <ele>207.1</ele>
        <time>2015-04-05T12:04:36.574Z</time>
      </trkpt>
      <trkpt lat="43.47432" lon="1.45869">
        <ele>203.7</ele>
        <time>2015-04-05T12:04:42.574Z</time>
      </trkpt>
      <trkpt lat="43.47429" lon="1.45867">
        <ele>192.2</ele>
        <time>2015-04-05T12:12:13.563Z</time>
      </trkpt>
      <trkpt lat="43.47421" lon="1.45869">
        <ele>201.8</ele>
        <time>2015-04-05T12:12:19.563Z</time>
      </trkpt>
      <trkpt lat="43.47416" lon="1.4587">
        <ele>201.8</ele>
        <time>2015-04-05T12:12:25.557Z</time>
      </trkpt>
      <trkpt lat="43.47408" lon="1.45872">
        <ele>202.2</ele>
        <time>2015-04-05T12:12:31.564Z</time>
      </trkpt>
      <trkpt lat="43.47404" lon="1.45875">
        <ele>203.2</ele>
        <time>2015-04-05T12:12:37.564Z</time>
      </trkpt>
      <trkpt lat="43.47392" lon="1.45869">
        <ele>204.3</ele>
        <time>2015-04-05T12:12:43.557Z</time>
      </trkpt>
      <trkpt lat="43.47371" lon="1.45863">
        <ele>204.8</ele>
        <time>2015-04-05T12:12:49.566Z</time>
      </trkpt>
      <trkpt lat="43.47342" lon="1.45861">
        <ele>204.8</ele>
        <time>2015-04-05T12:12:55.558Z</time>
      </trkpt>
      <trkpt lat="43.47318" lon="1.45866">
        <ele>205.6</ele>
        <time>2015-04-05T12:13:01.556Z</time>
      </trkpt>
      <trkpt lat="43.47297" lon="1.45876">
        <ele>207.2</ele>
        <time>2015-04-05T12:13:07.566Z</time>
      </trkpt>
      <trkpt lat="43.4728" lon="1.4589">
        <ele>208.7</ele>
        <time>2015-04-05T12:13:13.558Z</time>
      </trkpt>
      <trkpt lat="43.47259" lon="1.459">
        <ele>209.9</ele>
        <time>2015-04-05T12:13:19.564Z</time>
      </trkpt>
      <trkpt lat="43.47235" lon="1.45904">
        <ele>210.7</ele>
        <time>2015-04-05T12:13:25.565Z</time>
      </trkpt>
      <trkpt lat="43.47214" lon="1.45905">
        <ele>211.1</ele>
        <time>2015-04-05T12:13:31.617Z</time>
      </trkpt>
      <trkpt lat="43.47197" lon="1.45914">
        <ele>211.5</ele>
        <time>2015-04-05T12:13:37.558Z</time>
      </trkpt>
      <trkpt lat="43.47177" lon="1.45925">
        <ele>211.4</ele>
        <time>2015-04-05T12:13:43.557Z</time>
      </trkpt>
      <trkpt lat="43.47162" lon="1.45937">
        <ele>211.6</ele>
        <time>2015-04-05T12:13:49.554Z</time>
      </trkpt>
      <trkpt lat="43.47149" lon="1.45953">
        <ele>214</ele>
        <time>2015-04-05T12:13:55.554Z</time>
      </trkpt>
      <trkpt lat="43.47135" lon="1.45962">
        <ele>216.6</ele>
        <time>2015-04-05T12:14:01.554Z</time>
      </trkpt>
      <trkpt lat="43.4712" lon="1.45969">
        <ele>218.9</ele>
        <time>2015-04-05T12:14:07.566Z</time>
      </trkpt>
      <trkpt lat="43.47105" lon="1.45976">
        <ele>219.4</ele>
        <time>2015-04-05T12:14:13.557Z</time>
      </trkpt>
      <trkpt lat="43.47094" lon="1.45983">
        <ele>221.2</ele>
        <time>2015-04-05T12:14:19.565Z</time>
      </trkpt>
      <trkpt lat="43.47081" lon="1.45994">
        <ele>223.6</ele>
        <time>2015-04-05T12:14:25.565Z</time>
      </trkpt>
      <trkpt lat="43.47066" lon="1.46008">
        <ele>226</ele>
        <time>2015-04-05T12:14:31.564Z</time>
      </trkpt>
      <trkpt lat="43.47034" lon="1.46018">
        <ele>226.7</ele>
        <time>2015-04-05T12:14:37.564Z</time>
      </trkpt>
      <trkpt lat="43.47021" lon="1.46029">
        <ele>229.8</ele>
        <time>2015-04-05T12:14:43.557Z</time>
      </trkpt>
      <trkpt lat="43.47011" lon="1.4604">
        <ele>233.4</ele>
        <time>2015-04-05T12:14:49.565Z</time>
      </trkpt>
      <trkpt lat="43.4701" lon="1.46051">
        <ele>234.7</ele>
        <time>2015-04-05T12:14:55.565Z</time>
      </trkpt>
      <trkpt lat="43.47009" lon="1.46065">
        <ele>236.5</ele>
        <time>2015-04-05T12:15:01.569Z</time>
      </trkpt>
      <trkpt lat="43.47001" lon="1.4607">
        <ele>237.4</ele>
        <time>2015-04-05T12:15:07.556Z</time>
      </trkpt>
      <trkpt lat="43.46993" lon="1.4607">
        <ele>238.2</ele>
        <time>2015-04-05T12:15:13.553Z</time>
      </trkpt>
      <trkpt lat="43.46981" lon="1.4607">
        <ele>238.8</ele>
        <time>2015-04-05T12:15:19.557Z</time>
      </trkpt>
      <trkpt lat="43.46969" lon="1.46073">
        <ele>239.2</ele>
        <time>2015-04-05T12:15:25.565Z</time>
      </trkpt>
      <trkpt lat="43.46963" lon="1.46086">
        <ele>241.3</ele>
        <time>2015-04-05T12:15:31.564Z</time>
      </trkpt>
      <trkpt lat="43.46949" lon="1.46093">
        <ele>243.4</ele>
        <time>2015-04-05T12:15:37.554Z</time>
      </trkpt>
      <trkpt lat="43.46926" lon="1.46094">
        <ele>242.9</ele>
        <time>2015-04-05T12:15:42.566Z</time>
      </trkpt>
      <trkpt lat="43.46908" lon="1.46096">
        <ele>243.9</ele>
        <time>2015-04-05T12:15:48.563Z</time>
      </trkpt>
      <trkpt lat="43.46893" lon="1.46101">
        <ele>245.2</ele>
        <time>2015-04-05T12:15:54.561Z</time>
      </trkpt>
      <trkpt lat="43.46887" lon="1.46108">
        <ele>246.4</ele>
        <time>2015-04-05T12:15:59.552Z</time>
      </trkpt>
      <trkpt lat="43.46866" lon="1.46115">
        <ele>248.1</ele>
        <time>2015-04-05T12:16:05.562Z</time>
      </trkpt>
      <trkpt lat="43.46858" lon="1.46112">
        <ele>248.7</ele>
        <time>2015-04-05T12:16:11.564Z</time>
      </trkpt>
      <trkpt lat="43.46845" lon="1.46113">
        <ele>247.8</ele>
        <time>2015-04-05T12:16:17.563Z</time>
      </trkpt>
      <trkpt lat="43.46835" lon="1.46115">
        <ele>247</ele>
        <time>2015-04-05T12:16:23.556Z</time>
      </trkpt>
      <trkpt lat="43.46823" lon="1.46118">
        <ele>245.9</ele>
        <time>2015-04-05T12:16:28.581Z</time>
      </trkpt>
      <trkpt lat="43.46813" lon="1.4612">
        <ele>245.3</ele>
        <time>2015-04-05T12:16:34.565Z</time>
      </trkpt>
      <trkpt lat="43.46805" lon="1.46119">
        <ele>244.4</ele>
        <time>2015-04-05T12:16:40.564Z</time>
      </trkpt>
      <trkpt lat="43.46795" lon="1.46118">
        <ele>243.8</ele>
        <time>2015-04-05T12:16:46.555Z</time>
      </trkpt>
      <trkpt lat="43.46791" lon="1.46117">
        <ele>243.8</ele>
        <time>2015-04-05T12:16:52.555Z</time>
      </trkpt>
      <trkpt lat="43.46784" lon="1.46118">
        <ele>244</ele>
        <time>2015-04-05T12:16:58.563Z</time>
      </trkpt>
      <trkpt lat="43.46772" lon="1.46122">
        <ele>243.6</ele>
        <time>2015-04-05T12:17:04.552Z</time>
      </trkpt>
      <trkpt lat="43.46758" lon="1.46122">
        <ele>243</ele>
        <time>2015-04-05T12:17:10.579Z</time>
      </trkpt>
      <trkpt lat="43.46751" lon="1.46121">
        <ele>243.2</ele>
        <time>2015-04-05T12:17:16.562Z</time>
      </trkpt>
      <trkpt lat="43.46741" lon="1.4612">
        <ele>243.2</ele>
        <time>2015-04-05T12:17:22.553Z</time>
      </trkpt>
      <trkpt lat="43.46733" lon="1.46119">
        <ele>243.7</ele>
        <time>2015-04-05T12:17:27.581Z</time>
      </trkpt>
      <trkpt lat="43.46723" lon="1.46112">
        <ele>243.5</ele>
        <time>2015-04-05T12:17:33.552Z</time>
      </trkpt>
      <trkpt lat="43.46715" lon="1.4611">
        <ele>243.8</ele>
        <time>2015-04-05T12:17:38.562Z</time>
      </trkpt>
      <trkpt lat="43.46705" lon="1.46109">
        <ele>243.6</ele>
        <time>2015-04-05T12:17:44.566Z</time>
      </trkpt>
      <trkpt lat="43.46697" lon="1.46109">
        <ele>243</ele>
        <time>2015-04-05T12:17:49.565Z</time>
      </trkpt>
      <trkpt lat="43.46689" lon="1.46109">
        <ele>243.5</ele>
        <time>2015-04-05T12:17:55.564Z</time>
      </trkpt>
      <trkpt lat="43.46684" lon="1.4611">
        <ele>243.4</ele>
        <time>2015-04-05T12:18:01.564Z</time>
      </trkpt>
      <trkpt lat="43.46677" lon="1.46111">
        <ele>243.4</ele>
        <time>2015-04-05T12:18:07.556Z</time>
      </trkpt>
      <trkpt lat="43.46671" lon="1.46114">
        <ele>244.2</ele>
        <time>2015-04-05T12:18:13.566Z</time>
      </trkpt>
      <trkpt lat="43.46664" lon="1.46117">
        <ele>245.2</ele>
        <time>2015-04-05T12:18:19.565Z</time>
      </trkpt>
      <trkpt lat="43.46659" lon="1.46126">
        <ele>246.3</ele>
        <time>2015-04-05T12:18:25.557Z</time>
      </trkpt>
      <trkpt lat="43.46651" lon="1.46132">
        <ele>247.9</ele>
        <time>2015-04-05T12:18:31.564Z</time>
      </trkpt>
      <trkpt lat="43.4664" lon="1.4614">
        <ele>248.3</ele>
        <time>2015-04-05T12:18:37.555Z</time>
      </trkpt>
      <trkpt lat="43.46631" lon="1.46145">
        <ele>249.2</ele>
        <time>2015-04-05T12:18:43.808Z</time>
      </trkpt>
      <trkpt lat="43.46625" lon="1.46152">
        <ele>250.7</ele>
        <time>2015-04-05T12:18:49.565Z</time>
      </trkpt>
      <trkpt lat="43.46619" lon="1.46158">
        <ele>252.5</ele>
        <time>2015-04-05T12:18:55.563Z</time>
      </trkpt>
      <trkpt lat="43.46612" lon="1.46163">
        <ele>254.5</ele>
        <time>2015-04-05T12:19:01.562Z</time>
      </trkpt>
      <trkpt lat="43.46599" lon="1.46172">
        <ele>255.5</ele>
        <time>2015-04-05T12:19:07.566Z</time>
      </trkpt>
      <trkpt lat="43.4659" lon="1.46179">
        <ele>256.9</ele>
        <time>2015-04-05T12:19:13.564Z</time>
      </trkpt>
      <trkpt lat="43.46582" lon="1.46184">
        <ele>257.3</ele>
        <time>2015-04-05T12:19:19.566Z</time>
      </trkpt>
      <trkpt lat="43.46573" lon="1.4619">
        <ele>256.7</ele>
        <time>2015-04-05T12:19:25.565Z</time>
      </trkpt>
      <trkpt lat="43.46565" lon="1.46198">
        <ele>256.8</ele>
        <time>2015-04-05T12:19:31.557Z</time>
      </trkpt>
      <trkpt lat="43.46559" lon="1.46202">
        <ele>257.2</ele>
        <time>2015-04-05T12:19:37.557Z</time>
      </trkpt>
      <trkpt lat="43.46555" lon="1.46211">
        <ele>258.2</ele>
        <time>2015-04-05T12:19:43.565Z</time>
      </trkpt>
      <trkpt lat="43.46553" lon="1.46225">
        <ele>259.1</ele>
        <time>2015-04-05T12:19:49.557Z</time>
      </trkpt>
      <trkpt lat="43.46549" lon="1.46238">
        <ele>260.3</ele>
        <time>2015-04-05T12:19:55.557Z</time>
      </trkpt>
      <trkpt lat="43.46539" lon="1.4625">
        <ele>261.4</ele>
        <time>2015-04-05T12:20:01.566Z</time>
      </trkpt>
      <trkpt lat="43.46531" lon="1.46267">
        <ele>262.5</ele>
        <time>2015-04-05T12:20:07.566Z</time>
      </trkpt>
      <trkpt lat="43.46525" lon="1.46283">
        <ele>262.9</ele>
        <time>2015-04-05T12:20:13.564Z</time>
      </trkpt>
      <trkpt lat="43.46518" lon="1.46298">
        <ele>261.3</ele>
        <time>2015-04-05T12:20:19.566Z</time>
      </trkpt>
      <trkpt lat="43.4651" lon="1.46313">
        <ele>259.2</ele>
        <time>2015-04-05T12:20:25.567Z</time>
      </trkpt>
      <trkpt lat="43.46502" lon="1.46328">
        <ele>256.4</ele>
        <time>2015-04-05T12:20:31.566Z</time>
      </trkpt>
      <trkpt lat="43.46496" lon="1.46345">
        <ele>255.3</ele>
        <time>2015-04-05T12:20:37.564Z</time>
      </trkpt>
      <trkpt lat="43.4649" lon="1.46361">
        <ele>255.1</ele>
        <time>2015-04-05T12:20:43.558Z</time>
      </trkpt>
      <trkpt lat="43.46483" lon="1.46376">
        <ele>254.6</ele>
        <time>2015-04-05T12:20:49.565Z</time>
      </trkpt>
      <trkpt lat="43.46477" lon="1.4639">
        <ele>255.3</ele>
        <time>2015-04-05T12:20:55.564Z</time>
      </trkpt>
      <trkpt lat="43.46471" lon="1.46405">
        <ele>255.8</ele>
        <time>2015-04-05T12:21:01.565Z</time>
      </trkpt>
      <trkpt lat="43.46464" lon="1.46421">
        <ele>255.5</ele>
        <time>2015-04-05T12:21:07.565Z</time>
      </trkpt>
      <trkpt lat="43.46458" lon="1.46436">
        <ele>255.8</ele>
        <time>2015-04-05T12:21:13.553Z</time>
      </trkpt>
      <trkpt lat="43.46453" lon="1.46448">
        <ele>256.1</ele>
        <time>2015-04-05T12:21:19.557Z</time>
      </trkpt>
      <trkpt lat="43.46452" lon="1.46462">
        <ele>257.8</ele>
        <time>2015-04-05T12:21:25.565Z</time>
      </trkpt>
      <trkpt lat="43.46459" lon="1.46486">
        <ele>258</ele>
        <time>2015-04-05T12:21:31.557Z</time>
      </trkpt>
      <trkpt lat="43.46478" lon="1.46512">
        <ele>258.6</ele>
        <time>2015-04-05T12:21:37.563Z</time>
      </trkpt>
      <trkpt lat="43.46501" lon="1.46538">
        <ele>259.5</ele>
        <time>2015-04-05T12:21:43.565Z</time>
      </trkpt>
      <trkpt lat="43.46517" lon="1.46572">
        <ele>261.1</ele>
        <time>2015-04-05T12:21:49.557Z</time>
      </trkpt>
      <trkpt lat="43.46509" lon="1.4662">
        <ele>261</ele>
        <time>2015-04-05T12:21:55.556Z</time>
      </trkpt>
      <trkpt lat="43.46488" lon="1.46656">
        <ele>260.3</ele>
        <time>2015-04-05T12:22:01.564Z</time>
      </trkpt>
      <trkpt lat="43.46471" lon="1.46684">
        <ele>258.7</ele>
        <time>2015-04-05T12:22:07.564Z</time>
      </trkpt>
      <trkpt lat="43.4646" lon="1.46705">
        <ele>256.1</ele>
        <time>2015-04-05T12:22:13.564Z</time>
      </trkpt>
      <trkpt lat="43.46449" lon="1.46721">
        <ele>254.6</ele>
        <time>2015-04-05T12:22:18.571Z</time>
      </trkpt>
      <trkpt lat="43.46435" lon="1.46742">
        <ele>252.4</ele>
        <time>2015-04-05T12:22:24.555Z</time>
      </trkpt>
      <trkpt lat="43.46425" lon="1.46757">
        <ele>251.8</ele>
        <time>2015-04-05T12:22:29.577Z</time>
      </trkpt>
      <trkpt lat="43.46417" lon="1.46767">
        <ele>251.9</ele>
        <time>2015-04-05T12:22:34.565Z</time>
      </trkpt>
      <trkpt lat="43.46413" lon="1.46776">
        <ele>250.3</ele>
        <time>2015-04-05T12:22:46.561Z</time>
      </trkpt>
      <trkpt lat="43.4641" lon="1.46784">
        <ele>249.9</ele>
        <time>2015-04-05T12:22:51.563Z</time>
      </trkpt>
      <trkpt lat="43.46406" lon="1.46792">
        <ele>249.1</ele>
        <time>2015-04-05T12:23:02.392Z</time>
      </trkpt>
      <trkpt lat="43.46399" lon="1.46805">
        <ele>247.8</ele>
        <time>2015-04-05T12:23:09.563Z</time>
      </trkpt>
      <trkpt lat="43.46395" lon="1.46812">
        <ele>247.4</ele>
        <time>2015-04-05T12:23:15.553Z</time>
      </trkpt>
      <trkpt lat="43.46393" lon="1.4682">
        <ele>247</ele>
        <time>2015-04-05T12:23:20.563Z</time>
      </trkpt>
      <trkpt lat="43.4639" lon="1.46825">
        <ele>246.5</ele>
        <time>2015-04-05T12:23:26.553Z</time>
      </trkpt>
      <trkpt lat="43.46386" lon="1.4683">
        <ele>246.2</ele>
        <time>2015-04-05T12:23:31.565Z</time>
      </trkpt>
      <trkpt lat="43.46381" lon="1.46837">
        <ele>246</ele>
        <time>2015-04-05T12:23:37.617Z</time>
      </trkpt>
      <trkpt lat="43.46376" lon="1.46843">
        <ele>246</ele>
        <time>2015-04-05T12:23:43.553Z</time>
      </trkpt>
      <trkpt lat="43.46371" lon="1.46849">
        <ele>246.2</ele>
        <time>2015-04-05T12:23:49.565Z</time>
      </trkpt>
      <trkpt lat="43.46366" lon="1.46857">
        <ele>246</ele>
        <time>2015-04-05T12:23:55.566Z</time>
      </trkpt>
      <trkpt lat="43.46362" lon="1.46862">
        <ele>246.4</ele>
        <time>2015-04-05T12:24:01.564Z</time>
      </trkpt>
      <trkpt lat="43.46358" lon="1.46867">
        <ele>246.8</ele>
        <time>2015-04-05T12:24:07.577Z</time>
      </trkpt>
      <trkpt lat="43.46355" lon="1.46874">
        <ele>247</ele>
        <time>2015-04-05T12:24:13.557Z</time>
      </trkpt>
      <trkpt lat="43.46351" lon="1.46879">
        <ele>247.5</ele>
        <time>2015-04-05T12:24:19.561Z</time>
      </trkpt>
      <trkpt lat="43.46347" lon="1.46887">
        <ele>248.1</ele>
        <time>2015-04-05T12:24:31.564Z</time>
      </trkpt>
      <trkpt lat="43.46343" lon="1.46897">
        <ele>248.4</ele>
        <time>2015-04-05T12:24:37.564Z</time>
      </trkpt>
      <trkpt lat="43.4634" lon="1.469">
        <ele>249</ele>
        <time>2015-04-05T12:24:43.563Z</time>
      </trkpt>
      <trkpt lat="43.46339" lon="1.46901">
        <ele>249.4</ele>
        <time>2015-04-05T12:24:49.563Z</time>
      </trkpt>
      <trkpt lat="43.46334" lon="1.4691">
        <ele>249.6</ele>
        <time>2015-04-05T12:24:55.565Z</time>
      </trkpt>
      <trkpt lat="43.46328" lon="1.46921">
        <ele>250.1</ele>
        <time>2015-04-05T12:25:01.564Z</time>
      </trkpt>
      <trkpt lat="43.46319" lon="1.46931">
        <ele>250.9</ele>
        <time>2015-04-05T12:25:07.556Z</time>
      </trkpt>
      <trkpt lat="43.46312" lon="1.46942">
        <ele>251.3</ele>
        <time>2015-04-05T12:25:13.567Z</time>
      </trkpt>
      <trkpt lat="43.46304" lon="1.46954">
        <ele>252</ele>
        <time>2015-04-05T12:25:19.554Z</time>
      </trkpt>
      <trkpt lat="43.46298" lon="1.46964">
        <ele>253.4</ele>
        <time>2015-04-05T12:25:25.556Z</time>
      </trkpt>
      <trkpt lat="43.46292" lon="1.46972">
        <ele>254.9</ele>
        <time>2015-04-05T12:25:31.565Z</time>
      </trkpt>
      <trkpt lat="43.46288" lon="1.46981">
        <ele>256.5</ele>
        <time>2015-04-05T12:25:37.564Z</time>
      </trkpt>
      <trkpt lat="43.46297" lon="1.4699">
        <ele>258.3</ele>
        <time>2015-04-05T12:25:43.558Z</time>
      </trkpt>
      <trkpt lat="43.46317" lon="1.47003">
        <ele>260</ele>
        <time>2015-04-05T12:25:49.564Z</time>
      </trkpt>
      <trkpt lat="43.46341" lon="1.47018">
        <ele>261</ele>
        <time>2015-04-05T12:25:55.557Z</time>
      </trkpt>
      <trkpt lat="43.46367" lon="1.47037">
        <ele>261.6</ele>
        <time>2015-04-05T12:26:01.564Z</time>
      </trkpt>
      <trkpt lat="43.46396" lon="1.47053">
        <ele>261.7</ele>
        <time>2015-04-05T12:26:07.564Z</time>
      </trkpt>
      <trkpt lat="43.46421" lon="1.47077">
        <ele>261.7</ele>
        <time>2015-04-05T12:26:13.564Z</time>
      </trkpt>
      <trkpt lat="43.4644" lon="1.47118">
        <ele>261.9</ele>
        <time>2015-04-05T12:26:19.557Z</time>
      </trkpt>
      <trkpt lat="43.46457" lon="1.47158">
        <ele>261.5</ele>
        <time>2015-04-05T12:26:25.563Z</time>
      </trkpt>
      <trkpt lat="43.46474" lon="1.47196">
        <ele>261.7</ele>
        <time>2015-04-05T12:26:31.564Z</time>
      </trkpt>
      <trkpt lat="43.46491" lon="1.47227">
        <ele>261.7</ele>
        <time>2015-04-05T12:26:37.556Z</time>
      </trkpt>
      <trkpt lat="43.46506" lon="1.4725">
        <ele>262.6</ele>
        <time>2015-04-05T12:26:43.563Z</time>
      </trkpt>
      <trkpt lat="43.46516" lon="1.47265">
        <ele>263.6</ele>
        <time>2015-04-05T12:26:49.564Z</time>
      </trkpt>
      <trkpt lat="43.46524" lon="1.47278">
        <ele>265.7</ele>
        <time>2015-04-05T12:26:55.563Z</time>
      </trkpt>
      <trkpt lat="43.46532" lon="1.47287">
        <ele>267.7</ele>
        <time>2015-04-05T12:27:01.564Z</time>
      </trkpt>
      <trkpt lat="43.46543" lon="1.47297">
        <ele>269.2</ele>
        <time>2015-04-05T12:27:08.584Z</time>
      </trkpt>
      <trkpt lat="43.4656" lon="1.47316">
        <ele>269.4</ele>
        <time>2015-04-05T12:27:14.578Z</time>
      </trkpt>
      <trkpt lat="43.46578" lon="1.47338">
        <ele>271.4</ele>
        <time>2015-04-05T12:27:20.588Z</time>
      </trkpt>
      <trkpt lat="43.46596" lon="1.47365">
        <ele>274.7</ele>
        <time>2015-04-05T12:27:26.581Z</time>
      </trkpt>
      <trkpt lat="43.46644" lon="1.47435">
        <ele>275.6</ele>
        <time>2015-04-05T12:27:37.820Z</time>
      </trkpt>
      <trkpt lat="43.46672" lon="1.47474">
        <ele>272.2</ele>
        <time>2015-04-05T12:27:43.820Z</time>
      </trkpt>
      <trkpt lat="43.4669" lon="1.47492">
        <ele>268.2</ele>
        <time>2015-04-05T12:27:49.821Z</time>
      </trkpt>
      <trkpt lat="43.467" lon="1.47506">
        <ele>265.7</ele>
        <time>2015-04-05T12:27:55.813Z</time>
      </trkpt>
      <trkpt lat="43.46707" lon="1.47513">
        <ele>264.2</ele>
        <time>2015-04-05T12:28:00.836Z</time>
      </trkpt>
      <trkpt lat="43.46714" lon="1.47518">
        <ele>262.2</ele>
        <time>2015-04-05T12:28:06.820Z</time>
      </trkpt>
      <trkpt lat="43.46723" lon="1.47535">
        <ele>261.7</ele>
        <time>2015-04-05T12:28:12.810Z</time>
      </trkpt>
      <trkpt lat="43.46728" lon="1.47543">
        <ele>259.9</ele>
        <time>2015-04-05T12:28:18.821Z</time>
      </trkpt>
      <trkpt lat="43.46731" lon="1.47545">
        <ele>258.5</ele>
        <time>2015-04-05T12:28:24.813Z</time>
      </trkpt>
      <trkpt lat="43.46736" lon="1.47552">
        <ele>258.1</ele>
        <time>2015-04-05T12:28:30.821Z</time>
      </trkpt>
      <trkpt lat="43.4674" lon="1.47559">
        <ele>258.3</ele>
        <time>2015-04-05T12:28:35.812Z</time>
      </trkpt>
      <trkpt lat="43.46743" lon="1.47565">
        <ele>258.4</ele>
        <time>2015-04-05T12:28:41.821Z</time>
      </trkpt>
      <trkpt lat="43.46749" lon="1.47576">
        <ele>258.6</ele>
        <time>2015-04-05T12:28:46.820Z</time>
      </trkpt>
      <trkpt lat="43.46761" lon="1.47598">
        <ele>258.1</ele>
        <time>2015-04-05T12:28:52.811Z</time>
      </trkpt>
      <trkpt lat="43.46775" lon="1.47618">
        <ele>258.9</ele>
        <time>2015-04-05T12:28:58.821Z</time>
      </trkpt>
      <trkpt lat="43.46793" lon="1.47635">
        <ele>259.6</ele>
        <time>2015-04-05T12:29:04.817Z</time>
      </trkpt>
      <trkpt lat="43.46809" lon="1.47652">
        <ele>260.4</ele>
        <time>2015-04-05T12:29:10.823Z</time>
      </trkpt>
      <trkpt lat="43.46827" lon="1.47673">
        <ele>261</ele>
        <time>2015-04-05T12:29:16.823Z</time>
      </trkpt>
      <trkpt lat="43.46844" lon="1.47683">
        <ele>262.2</ele>
        <time>2015-04-05T12:29:22.822Z</time>
      </trkpt>
      <trkpt lat="43.46854" lon="1.47691">
        <ele>264.7</ele>
        <time>2015-04-05T12:29:28.821Z</time>
      </trkpt>
      <trkpt lat="43.46861" lon="1.47704">
        <ele>267.2</ele>
        <time>2015-04-05T12:29:34.814Z</time>
      </trkpt>
      <trkpt lat="43.46871" lon="1.47713">
        <ele>269.1</ele>
        <time>2015-04-05T12:29:39.821Z</time>
      </trkpt>
      <trkpt lat="43.46883" lon="1.47718">
        <ele>271.9</ele>
        <time>2015-04-05T12:29:44.824Z</time>
      </trkpt>
      <trkpt lat="43.46893" lon="1.47733">
        <ele>273.6</ele>
        <time>2015-04-05T12:29:50.824Z</time>
      </trkpt>
      <trkpt lat="43.46907" lon="1.47743">
        <ele>276.6</ele>
        <time>2015-04-05T12:29:56.813Z</time>
      </trkpt>
      <trkpt lat="43.46925" lon="1.47756">
        <ele>278.3</ele>
        <time>2015-04-05T12:30:02.823Z</time>
      </trkpt>
      <trkpt lat="43.46945" lon="1.4778">
        <ele>276.8</ele>
        <time>2015-04-05T12:30:08.823Z</time>
      </trkpt>
      <trkpt lat="43.46966" lon="1.47811">
        <ele>270.8</ele>
        <time>2015-04-05T12:30:14.816Z</time>
      </trkpt>
      <trkpt lat="43.4699" lon="1.47836">
        <ele>266.8</ele>
        <time>2015-04-05T12:30:20.823Z</time>
      </trkpt>
      <trkpt lat="43.47027" lon="1.47847">
        <ele>258.2</ele>
        <time>2015-04-05T12:30:26.824Z</time>
      </trkpt>
      <trkpt lat="43.4706" lon="1.47845">
        <ele>250.2</ele>
        <time>2015-04-05T12:30:32.822Z</time>
      </trkpt>
      <trkpt lat="43.47091" lon="1.47861">
        <ele>242.7</ele>
        <time>2015-04-05T12:30:38.822Z</time>
      </trkpt>
      <trkpt lat="43.4712" lon="1.47884">
        <ele>236.6</ele>
        <time>2015-04-05T12:30:44.815Z</time>
      </trkpt>
      <trkpt lat="43.47148" lon="1.47904">
        <ele>231.2</ele>
        <time>2015-04-05T12:30:50.823Z</time>
      </trkpt>
      <trkpt lat="43.47187" lon="1.47922">
        <ele>226.4</ele>
        <time>2015-04-05T12:30:56.823Z</time>
      </trkpt>
      <trkpt lat="43.4723" lon="1.4795">
        <ele>220.7</ele>
        <time>2015-04-05T12:31:02.823Z</time>
      </trkpt>
      <trkpt lat="43.47272" lon="1.47985">
        <ele>213.7</ele>
        <time>2015-04-05T12:31:08.822Z</time>
      </trkpt>
      <trkpt lat="43.47299" lon="1.48006">
        <ele>209.9</ele>
        <time>2015-04-05T12:31:14.815Z</time>
      </trkpt>
      <trkpt lat="43.47311" lon="1.48014">
        <ele>207.4</ele>
        <time>2015-04-05T12:31:20.817Z</time>
      </trkpt>
      <trkpt lat="43.47331" lon="1.48032">
        <ele>204.4</ele>
        <time>2015-04-05T12:31:26.822Z</time>
      </trkpt>
      <trkpt lat="43.4735" lon="1.48049">
        <ele>201.7</ele>
        <time>2015-04-05T12:31:32.822Z</time>
      </trkpt>
      <trkpt lat="43.47352" lon="1.48051">
        <ele>200.2</ele>
        <time>2015-04-05T12:31:38.822Z</time>
      </trkpt>
      <trkpt lat="43.47352" lon="1.48071">
        <ele>196.6</ele>
        <time>2015-04-05T12:31:44.823Z</time>
      </trkpt>
      <trkpt lat="43.47348" lon="1.48101">
        <ele>194.6</ele>
        <time>2015-04-05T12:31:50.823Z</time>
      </trkpt>
      <trkpt lat="43.47343" lon="1.48133">
        <ele>193.1</ele>
        <time>2015-04-05T12:31:56.823Z</time>
      </trkpt>
      <trkpt lat="43.47339" lon="1.48167">
        <ele>191.5</ele>
        <time>2015-04-05T12:32:02.816Z</time>
      </trkpt>
      <trkpt lat="43.47336" lon="1.48206">
        <ele>190</ele>
        <time>2015-04-05T12:32:08.822Z</time>
      </trkpt>
      <trkpt lat="43.47334" lon="1.48242">
        <ele>189.2</ele>
        <time>2015-04-05T12:32:14.824Z</time>
      </trkpt>
      <trkpt lat="43.47332" lon="1.4828">
        <ele>188.8</ele>
        <time>2015-04-05T12:32:20.824Z</time>
      </trkpt>
      <trkpt lat="43.4733" lon="1.48321">
        <ele>188.8</ele>
        <time>2015-04-05T12:32:26.824Z</time>
      </trkpt>
      <trkpt lat="43.4733" lon="1.48361">
        <ele>188.5</ele>
        <time>2015-04-05T12:32:32.823Z</time>
      </trkpt>
      <trkpt lat="43.47324" lon="1.48403">
        <ele>187.9</ele>
        <time>2015-04-05T12:32:38.824Z</time>
      </trkpt>
      <trkpt lat="43.47316" lon="1.48445">
        <ele>188.1</ele>
        <time>2015-04-05T12:32:44.823Z</time>
      </trkpt>
      <trkpt lat="43.47306" lon="1.48484">
        <ele>188.3</ele>
        <time>2015-04-05T12:32:50.823Z</time>
      </trkpt>
      <trkpt lat="43.47294" lon="1.48523">
        <ele>188.4</ele>
        <time>2015-04-05T12:32:56.816Z</time>
      </trkpt>
      <trkpt lat="43.47282" lon="1.48563">
        <ele>188</ele>
        <time>2015-04-05T12:33:02.823Z</time>
      </trkpt>
      <trkpt lat="43.47272" lon="1.486">
        <ele>188</ele>
        <time>2015-04-05T12:33:08.823Z</time>
      </trkpt>
      <trkpt lat="43.47263" lon="1.48639">
        <ele>189.3</ele>
        <time>2015-04-05T12:33:14.824Z</time>
      </trkpt>
      <trkpt lat="43.47255" lon="1.48679">
        <ele>189.8</ele>
        <time>2015-04-05T12:33:20.824Z</time>
      </trkpt>
      <trkpt lat="43.47247" lon="1.48724">
        <ele>189.3</ele>
        <time>2015-04-05T12:33:26.824Z</time>
      </trkpt>
      <trkpt lat="43.4724" lon="1.48765">
        <ele>190.2</ele>
        <time>2015-04-05T12:33:32.823Z</time>
      </trkpt>
      <trkpt lat="43.47237" lon="1.48807">
        <ele>190.9</ele>
        <time>2015-04-05T12:33:38.823Z</time>
      </trkpt>
      <trkpt lat="43.47236" lon="1.48852">
        <ele>191.3</ele>
        <time>2015-04-05T12:33:44.823Z</time>
      </trkpt>
      <trkpt lat="43.47236" lon="1.48892">
        <ele>193.8</ele>
        <time>2015-04-05T12:33:50.817Z</time>
      </trkpt>
      <trkpt lat="43.47236" lon="1.4893">
        <ele>195.2</ele>
        <time>2015-04-05T12:33:56.823Z</time>
      </trkpt>
      <trkpt lat="43.47237" lon="1.4897">
        <ele>195.6</ele>
        <time>2015-04-05T12:34:02.824Z</time>
      </trkpt>
      <trkpt lat="43.47236" lon="1.49009">
        <ele>196</ele>
        <time>2015-04-05T12:34:08.823Z</time>
      </trkpt>
      <trkpt lat="43.47231" lon="1.49045">
        <ele>196.4</ele>
        <time>2015-04-05T12:34:14.823Z</time>
      </trkpt>
      <trkpt lat="43.47228" lon="1.49077">
        <ele>198</ele>
        <time>2015-04-05T12:34:20.823Z</time>
      </trkpt>
      <trkpt lat="43.4722" lon="1.49107">
        <ele>197.9</ele>
        <time>2015-04-05T12:34:26.816Z</time>
      </trkpt>
      <trkpt lat="43.47223" lon="1.49142">
        <ele>199.7</ele>
        <time>2015-04-05T12:34:32.824Z</time>
      </trkpt>
      <trkpt lat="43.47216" lon="1.49177">
        <ele>199.1</ele>
        <time>2015-04-05T12:34:38.815Z</time>
      </trkpt>
      <trkpt lat="43.47203" lon="1.4921">
        <ele>198.9</ele>
        <time>2015-04-05T12:34:44.823Z</time>
      </trkpt>
      <trkpt lat="43.4719" lon="1.49242">
        <ele>198.9</ele>
        <time>2015-04-05T12:34:50.816Z</time>
      </trkpt>
      <trkpt lat="43.47179" lon="1.49273">
        <ele>199.8</ele>
        <time>2015-04-05T12:34:56.823Z</time>
      </trkpt>
      <trkpt lat="43.47167" lon="1.49309">
        <ele>200.3</ele>
        <time>2015-04-05T12:35:02.816Z</time>
      </trkpt>
      <trkpt lat="43.47157" lon="1.49336">
        <ele>200.4</ele>
        <time>2015-04-05T12:35:08.918Z</time>
      </trkpt>
      <trkpt lat="43.4715" lon="1.49363">
        <ele>200.7</ele>
        <time>2015-04-05T12:35:14.813Z</time>
      </trkpt>
      <trkpt lat="43.47142" lon="1.49393">
        <ele>201</ele>
        <time>2015-04-05T12:35:20.823Z</time>
      </trkpt>
      <trkpt lat="43.47132" lon="1.49428">
        <ele>199.7</ele>
        <time>2015-04-05T12:35:26.823Z</time>
      </trkpt>
      <trkpt lat="43.47123" lon="1.49465">
        <ele>199.3</ele>
        <time>2015-04-05T12:35:32.936Z</time>
      </trkpt>
      <trkpt lat="43.47114" lon="1.49497">
        <ele>198</ele>
        <time>2015-04-05T12:35:38.823Z</time>
      </trkpt>
      <trkpt lat="43.47104" lon="1.49531">
        <ele>197.2</ele>
        <time>2015-04-05T12:35:44.816Z</time>
      </trkpt>
      <trkpt lat="43.47097" lon="1.4956">
        <ele>197.5</ele>
        <time>2015-04-05T12:35:50.824Z</time>
      </trkpt>
      <trkpt lat="43.47092" lon="1.4958">
        <ele>198.8</ele>
        <time>2015-04-05T12:35:56.812Z</time>
      </trkpt>
      <trkpt lat="43.47088" lon="1.49604">
        <ele>200.7</ele>
        <time>2015-04-05T12:36:02.824Z</time>
      </trkpt>
      <trkpt lat="43.47082" lon="1.4963">
        <ele>202.4</ele>
        <time>2015-04-05T12:36:08.824Z</time>
      </trkpt>
      <trkpt lat="43.4708" lon="1.49667">
        <ele>203.2</ele>
        <time>2015-04-05T12:36:14.823Z</time>
      </trkpt>
      <trkpt lat="43.47078" lon="1.49704">
        <ele>203.7</ele>
        <time>2015-04-05T12:36:20.823Z</time>
      </trkpt>
      <trkpt lat="43.47075" lon="1.49734">
        <ele>204.6</ele>
        <time>2015-04-05T12:36:26.823Z</time>
      </trkpt>
      <trkpt lat="43.47071" lon="1.49768">
        <ele>205.2</ele>
        <time>2015-04-05T12:36:32.823Z</time>
      </trkpt>
      <trkpt lat="43.4707" lon="1.49802">
        <ele>207.6</ele>
        <time>2015-04-05T12:36:38.816Z</time>
      </trkpt>
      <trkpt lat="43.4707" lon="1.49833">
        <ele>209.8</ele>
        <time>2015-04-05T12:36:44.817Z</time>
      </trkpt>
      <trkpt lat="43.4707" lon="1.49859">
        <ele>212.4</ele>
        <time>2015-04-05T12:36:50.824Z</time>
      </trkpt>
      <trkpt lat="43.47068" lon="1.49891">
        <ele>212.1</ele>
        <time>2015-04-05T12:36:56.823Z</time>
      </trkpt>
      <trkpt lat="43.47067" lon="1.49928">
        <ele>212</ele>
        <time>2015-04-05T12:37:02.824Z</time>
      </trkpt>
      <trkpt lat="43.4707" lon="1.49963">
        <ele>211.6</ele>
        <time>2015-04-05T12:37:08.816Z</time>
      </trkpt>
      <trkpt lat="43.47087" lon="1.49985">
        <ele>212.2</ele>
        <time>2015-04-05T12:37:14.816Z</time>
      </trkpt>
      <trkpt lat="43.47092" lon="1.50009">
        <ele>212.2</ele>
        <time>2015-04-05T12:37:20.823Z</time>
      </trkpt>
      <trkpt lat="43.47093" lon="1.50029">
        <ele>212</ele>
        <time>2015-04-05T12:37:26.824Z</time>
      </trkpt>
      <trkpt lat="43.47095" lon="1.50052">
        <ele>213.3</ele>
        <time>2015-04-05T12:37:32.823Z</time>
      </trkpt>
      <trkpt lat="43.47095" lon="1.50076">
        <ele>214.7</ele>
        <time>2015-04-05T12:37:38.824Z</time>
      </trkpt>
      <trkpt lat="43.47093" lon="1.50097">
        <ele>215.4</ele>
        <time>2015-04-05T12:37:44.816Z</time>
      </trkpt>
      <trkpt lat="43.47096" lon="1.50126">
        <ele>216</ele>
        <time>2015-04-05T12:37:50.824Z</time>
      </trkpt>
      <trkpt lat="43.47097" lon="1.50154">
        <ele>215.6</ele>
        <time>2015-04-05T12:37:56.816Z</time>
      </trkpt>
      <trkpt lat="43.47097" lon="1.50181">
        <ele>215.1</ele>
        <time>2015-04-05T12:38:02.823Z</time>
      </trkpt>
      <trkpt lat="43.47101" lon="1.50207">
        <ele>215.1</ele>
        <time>2015-04-05T12:38:08.828Z</time>
      </trkpt>
      <trkpt lat="43.47102" lon="1.50234">
        <ele>215.2</ele>
        <time>2015-04-05T12:38:14.816Z</time>
      </trkpt>
      <trkpt lat="43.47106" lon="1.50258">
        <ele>215.6</ele>
        <time>2015-04-05T12:38:20.816Z</time>
      </trkpt>
      <trkpt lat="43.47111" lon="1.50283">
        <ele>215.9</ele>
        <time>2015-04-05T12:38:26.836Z</time>
      </trkpt>
      <trkpt lat="43.47108" lon="1.50308">
        <ele>215.9</ele>
        <time>2015-04-05T12:38:32.816Z</time>
      </trkpt>
      <trkpt lat="43.47098" lon="1.50337">
        <ele>215.7</ele>
        <time>2015-04-05T12:38:38.823Z</time>
      </trkpt>
      <trkpt lat="43.4709" lon="1.50363">
        <ele>215.1</ele>
        <time>2015-04-05T12:38:44.814Z</time>
      </trkpt>
      <trkpt lat="43.47087" lon="1.50385">
        <ele>214.3</ele>
        <time>2015-04-05T12:38:49.820Z</time>
      </trkpt>
      <trkpt lat="43.47079" lon="1.5041">
        <ele>212.7</ele>
        <time>2015-04-05T12:38:55.821Z</time>
      </trkpt>
      <trkpt lat="43.47073" lon="1.50434">
        <ele>212.5</ele>
        <time>2015-04-05T12:39:01.820Z</time>
      </trkpt>
      <trkpt lat="43.47068" lon="1.50454">
        <ele>211.3</ele>
        <time>2015-04-05T12:39:06.821Z</time>
      </trkpt>
      <trkpt lat="43.47063" lon="1.5048">
        <ele>211.5</ele>
        <time>2015-04-05T12:39:12.821Z</time>
      </trkpt>
      <trkpt lat="43.47058" lon="1.50505">
        <ele>212</ele>
        <time>2015-04-05T12:39:18.821Z</time>
      </trkpt>
      <trkpt lat="43.47054" lon="1.50529">
        <ele>211.6</ele>
        <time>2015-04-05T12:39:24.067Z</time>
      </trkpt>
      <trkpt lat="43.47051" lon="1.50556">
        <ele>211.7</ele>
        <time>2015-04-05T12:39:30.067Z</time>
      </trkpt>
      <trkpt lat="43.47049" lon="1.50567">
        <ele>212.1</ele>
        <time>2015-04-05T12:39:35.077Z</time>
      </trkpt>
      <trkpt lat="43.47048" lon="1.50573">
        <ele>211.8</ele>
        <time>2015-04-05T12:39:41.076Z</time>
      </trkpt>
      <trkpt lat="43.47045" lon="1.50579">
        <ele>211.8</ele>
        <time>2015-04-05T12:39:46.067Z</time>
      </trkpt>
      <trkpt lat="43.47043" lon="1.50586">
        <ele>211.7</ele>
        <time>2015-04-05T12:39:52.066Z</time>
      </trkpt>
      <trkpt lat="43.47158" lon="1.50037">
        <ele>212.1</ele>
        <time>2015-04-05T12:40:09.076Z</time>
      </trkpt>
      <trkpt lat="43.47126" lon="1.50207">
        <ele>213.5</ele>
        <time>2015-04-05T12:40:15.077Z</time>
      </trkpt>
      <trkpt lat="43.47103" lon="1.50326">
        <ele>214.1</ele>
        <time>2015-04-05T12:40:20.079Z</time>
      </trkpt>
      <trkpt lat="43.47082" lon="1.50433">
        <ele>214.3</ele>
        <time>2015-04-05T12:40:26.079Z</time>
      </trkpt>
      <trkpt lat="43.47062" lon="1.50517">
        <ele>214.7</ele>
        <time>2015-04-05T12:40:32.079Z</time>
      </trkpt>
      <trkpt lat="43.47007" lon="1.50675">
        <ele>216</ele>
        <time>2015-04-05T12:40:38.079Z</time>
      </trkpt>
      <trkpt lat="43.46998" lon="1.50696">
        <ele>215.4</ele>
        <time>2015-04-05T12:40:44.079Z</time>
      </trkpt>
      <trkpt lat="43.46989" lon="1.50719">
        <ele>213.9</ele>
        <time>2015-04-05T12:40:50.083Z</time>
      </trkpt>
      <trkpt lat="43.4698" lon="1.50744">
        <ele>214.1</ele>
        <time>2015-04-05T12:40:56.072Z</time>
      </trkpt>
      <trkpt lat="43.46974" lon="1.50769">
        <ele>214.5</ele>
        <time>2015-04-05T12:41:02.078Z</time>
      </trkpt>
      <trkpt lat="43.46968" lon="1.50793">
        <ele>215.4</ele>
        <time>2015-04-05T12:41:08.078Z</time>
      </trkpt>
      <trkpt lat="43.4696" lon="1.50816">
        <ele>215.2</ele>
        <time>2015-04-05T12:41:14.079Z</time>
      </trkpt>
      <trkpt lat="43.4695" lon="1.50835">
        <ele>215.1</ele>
        <time>2015-04-05T12:41:20.078Z</time>
      </trkpt>
      <trkpt lat="43.4694" lon="1.50855">
        <ele>214.9</ele>
        <time>2015-04-05T12:41:26.071Z</time>
      </trkpt>
      <trkpt lat="43.46929" lon="1.50877">
        <ele>214.7</ele>
        <time>2015-04-05T12:41:32.114Z</time>
      </trkpt>
      <trkpt lat="43.46919" lon="1.50899">
        <ele>214.6</ele>
        <time>2015-04-05T12:41:38.079Z</time>
      </trkpt>
      <trkpt lat="43.46911" lon="1.50921">
        <ele>214.6</ele>
        <time>2015-04-05T12:41:44.078Z</time>
      </trkpt>
      <trkpt lat="43.46904" lon="1.50941">
        <ele>215.9</ele>
        <time>2015-04-05T12:41:50.078Z</time>
      </trkpt>
      <trkpt lat="43.46898" lon="1.5096">
        <ele>217.1</ele>
        <time>2015-04-05T12:41:56.068Z</time>
      </trkpt>
      <trkpt lat="43.46891" lon="1.50978">
        <ele>218.2</ele>
        <time>2015-04-05T12:42:02.078Z</time>
      </trkpt>
      <trkpt lat="43.46885" lon="1.50993">
        <ele>219.8</ele>
        <time>2015-04-05T12:42:08.079Z</time>
      </trkpt>
      <trkpt lat="43.4688" lon="1.5101">
        <ele>220.8</ele>
        <time>2015-04-05T12:42:13.077Z</time>
      </trkpt>
      <trkpt lat="43.46875" lon="1.51027">
        <ele>221.3</ele>
        <time>2015-04-05T12:42:19.078Z</time>
      </trkpt>
      <trkpt lat="43.46869" lon="1.51045">
        <ele>221.7</ele>
        <time>2015-04-05T12:42:25.077Z</time>
      </trkpt>
      <trkpt lat="43.46866" lon="1.51061">
        <ele>222</ele>
        <time>2015-04-05T12:42:31.069Z</time>
      </trkpt>
      <trkpt lat="43.46865" lon="1.51063">
        <ele>221.1</ele>
        <time>2015-04-05T12:42:37.069Z</time>
      </trkpt>
      <trkpt lat="43.46865" lon="1.5107">
        <ele>221.1</ele>
        <time>2015-04-05T12:42:42.093Z</time>
      </trkpt>
      <trkpt lat="43.46862" lon="1.51081">
        <ele>221.4</ele>
        <time>2015-04-05T12:43:11.066Z</time>
      </trkpt>
      <trkpt lat="43.46861" lon="1.51084">
        <ele>219.9</ele>
        <time>2015-04-05T12:43:16.078Z</time>
      </trkpt>
      <trkpt lat="43.46859" lon="1.51086">
        <ele>220.1</ele>
        <time>2015-04-05T12:43:22.077Z</time>
      </trkpt>
      <trkpt lat="43.46857" lon="1.51104">
        <ele>221.3</ele>
        <time>2015-04-05T12:43:28.076Z</time>
      </trkpt>
      <trkpt lat="43.46852" lon="1.51119">
        <ele>223.3</ele>
        <time>2015-04-05T12:43:34.076Z</time>
      </trkpt>
      <trkpt lat="43.46848" lon="1.51133">
        <ele>224.6</ele>
        <time>2015-04-05T12:43:39.263Z</time>
      </trkpt>
      <trkpt lat="43.46842" lon="1.51149">
        <ele>226.3</ele>
        <time>2015-04-05T12:43:45.070Z</time>
      </trkpt>
      <trkpt lat="43.46836" lon="1.51162">
        <ele>227.4</ele>
        <time>2015-04-05T12:43:50.097Z</time>
      </trkpt>
      <trkpt lat="43.4683" lon="1.51176">
        <ele>229.3</ele>
        <time>2015-04-05T12:43:56.099Z</time>
      </trkpt>
      <trkpt lat="43.46822" lon="1.51188">
        <ele>232.5</ele>
        <time>2015-04-05T12:44:02.080Z</time>
      </trkpt>
      <trkpt lat="43.46818" lon="1.51201">
        <ele>235.6</ele>
        <time>2015-04-05T12:44:08.069Z</time>
      </trkpt>
      <trkpt lat="43.46811" lon="1.51213">
        <ele>237.2</ele>
        <time>2015-04-05T12:44:13.094Z</time>
      </trkpt>
      <trkpt lat="43.46802" lon="1.51233">
        <ele>236</ele>
        <time>2015-04-05T12:44:18.909Z</time>
      </trkpt>
      <trkpt lat="43.46792" lon="1.51251">
        <ele>234.8</ele>
        <time>2015-04-05T12:44:24.913Z</time>
      </trkpt>
      <trkpt lat="43.46781" lon="1.5127">
        <ele>233.8</ele>
        <time>2015-04-05T12:44:30.909Z</time>
      </trkpt>
      <trkpt lat="43.46772" lon="1.5129">
        <ele>232.6</ele>
        <time>2015-04-05T12:44:36.920Z</time>
      </trkpt>
      <trkpt lat="43.46762" lon="1.51309">
        <ele>232.7</ele>
        <time>2015-04-05T12:44:42.910Z</time>
      </trkpt>
      <trkpt lat="43.46754" lon="1.51323">
        <ele>232.3</ele>
        <time>2015-04-05T12:44:47.940Z</time>
      </trkpt>
      <trkpt lat="43.46744" lon="1.51342">
        <ele>232.7</ele>
        <time>2015-04-05T12:44:53.920Z</time>
      </trkpt>
      <trkpt lat="43.46733" lon="1.51361">
        <ele>232.6</ele>
        <time>2015-04-05T12:44:59.919Z</time>
      </trkpt>
      <trkpt lat="43.46726" lon="1.51384">
        <ele>232.9</ele>
        <time>2015-04-05T12:45:05.912Z</time>
      </trkpt>
      <trkpt lat="43.4672" lon="1.51404">
        <ele>232.5</ele>
        <time>2015-04-05T12:45:10.936Z</time>
      </trkpt>
      <trkpt lat="43.46712" lon="1.5143">
        <ele>232.4</ele>
        <time>2015-04-05T12:45:16.912Z</time>
      </trkpt>
      <trkpt lat="43.46707" lon="1.51451">
        <ele>233.1</ele>
        <time>2015-04-05T12:45:21.920Z</time>
      </trkpt>
      <trkpt lat="43.46703" lon="1.51473">
        <ele>233.8</ele>
        <time>2015-04-05T12:45:27.909Z</time>
      </trkpt>
      <trkpt lat="43.467" lon="1.51488">
        <ele>234.5</ele>
        <time>2015-04-05T12:45:32.937Z</time>
      </trkpt>
      <trkpt lat="43.46697" lon="1.51504">
        <ele>235.1</ele>
        <time>2015-04-05T12:45:38.921Z</time>
      </trkpt>
      <trkpt lat="43.46693" lon="1.51519">
        <ele>236.4</ele>
        <time>2015-04-05T12:45:44.911Z</time>
      </trkpt>
      <trkpt lat="43.4669" lon="1.51533">
        <ele>237.3</ele>
        <time>2015-04-05T12:45:49.940Z</time>
      </trkpt>
      <trkpt lat="43.46686" lon="1.51552">
        <ele>237.8</ele>
        <time>2015-04-05T12:45:55.914Z</time>
      </trkpt>
      <trkpt lat="43.46681" lon="1.5157">
        <ele>239</ele>
        <time>2015-04-05T12:46:01.913Z</time>
      </trkpt>
      <trkpt lat="43.46679" lon="1.51586">
        <ele>239.7</ele>
        <time>2015-04-05T12:46:06.941Z</time>
      </trkpt>
      <trkpt lat="43.46675" lon="1.51604">
        <ele>240.7</ele>
        <time>2015-04-05T12:46:12.920Z</time>
      </trkpt>
      <trkpt lat="43.46672" lon="1.51621">
        <ele>241.3</ele>
        <time>2015-04-05T12:46:18.913Z</time>
      </trkpt>
      <trkpt lat="43.46669" lon="1.51636">
        <ele>241.8</ele>
        <time>2015-04-05T12:46:23.920Z</time>
      </trkpt>
      <trkpt lat="43.46665" lon="1.51653">
        <ele>242.6</ele>
        <time>2015-04-05T12:46:29.934Z</time>
      </trkpt>
      <trkpt lat="43.46661" lon="1.5167">
        <ele>242.8</ele>
        <time>2015-04-05T12:46:35.910Z</time>
      </trkpt>
      <trkpt lat="43.46658" lon="1.51684">
        <ele>243.1</ele>
        <time>2015-04-05T12:46:40.938Z</time>
      </trkpt>
      <trkpt lat="43.46655" lon="1.51697">
        <ele>244.6</ele>
        <time>2015-04-05T12:46:46.910Z</time>
      </trkpt>
      <trkpt lat="43.46654" lon="1.51709">
        <ele>245.9</ele>
        <time>2015-04-05T12:46:52.920Z</time>
      </trkpt>
      <trkpt lat="43.46657" lon="1.51718">
        <ele>247.2</ele>
        <time>2015-04-05T12:46:58.920Z</time>
      </trkpt>
      <trkpt lat="43.46665" lon="1.51711">
        <ele>248.4</ele>
        <time>2015-04-05T12:47:04.909Z</time>
      </trkpt>
      <trkpt lat="43.46673" lon="1.517">
        <ele>249.1</ele>
        <time>2015-04-05T12:47:09.938Z</time>
      </trkpt>
      <trkpt lat="43.46684" lon="1.51685">
        <ele>249.6</ele>
        <time>2015-04-05T12:47:15.910Z</time>
      </trkpt>
      <trkpt lat="43.46693" lon="1.51669">
        <ele>250.3</ele>
        <time>2015-04-05T12:47:21.919Z</time>
      </trkpt>
      <trkpt lat="43.46704" lon="1.51653">
        <ele>250.4</ele>
        <time>2015-04-05T12:47:27.915Z</time>
      </trkpt>
      <trkpt lat="43.46716" lon="1.51636">
        <ele>250.4</ele>
        <time>2015-04-05T12:47:33.911Z</time>
      </trkpt>
      <trkpt lat="43.46728" lon="1.5162">
        <ele>250.9</ele>
        <time>2015-04-05T12:47:39.921Z</time>
      </trkpt>
      <trkpt lat="43.4674" lon="1.51606">
        <ele>251.4</ele>
        <time>2015-04-05T12:47:45.909Z</time>
      </trkpt>
      <trkpt lat="43.46749" lon="1.51594">
        <ele>252.5</ele>
        <time>2015-04-05T12:47:50.920Z</time>
      </trkpt>
      <trkpt lat="43.46759" lon="1.51581">
        <ele>252.6</ele>
        <time>2015-04-05T12:47:55.922Z</time>
      </trkpt>
      <trkpt lat="43.46771" lon="1.51567">
        <ele>252.9</ele>
        <time>2015-04-05T12:48:01.922Z</time>
      </trkpt>
      <trkpt lat="43.46782" lon="1.51553">
        <ele>253.2</ele>
        <time>2015-04-05T12:48:07.922Z</time>
      </trkpt>
      <trkpt lat="43.46795" lon="1.51543">
        <ele>255.6</ele>
        <time>2015-04-05T12:48:13.922Z</time>
      </trkpt>
      <trkpt lat="43.4681" lon="1.51537">
        <ele>256.5</ele>
        <time>2015-04-05T12:48:19.912Z</time>
      </trkpt>
      <trkpt lat="43.46826" lon="1.51535">
        <ele>254.8</ele>
        <time>2015-04-05T12:48:25.914Z</time>
      </trkpt>
      <trkpt lat="43.4684" lon="1.51538">
        <ele>256.2</ele>
        <time>2015-04-05T12:48:31.911Z</time>
      </trkpt>
      <trkpt lat="43.46853" lon="1.51541">
        <ele>257.1</ele>
        <time>2015-04-05T12:48:37.914Z</time>
      </trkpt>
      <trkpt lat="43.46865" lon="1.51546">
        <ele>258.9</ele>
        <time>2015-04-05T12:48:43.930Z</time>
      </trkpt>
      <trkpt lat="43.46879" lon="1.51552">
        <ele>259.1</ele>
        <time>2015-04-05T12:48:49.922Z</time>
      </trkpt>
      <trkpt lat="43.46899" lon="1.5156">
        <ele>260.2</ele>
        <time>2015-04-05T12:48:55.985Z</time>
      </trkpt>
      <trkpt lat="43.46932" lon="1.51573">
        <ele>261</ele>
        <time>2015-04-05T12:49:01.922Z</time>
      </trkpt>
      <trkpt lat="43.46968" lon="1.51576">
        <ele>260.5</ele>
        <time>2015-04-05T12:49:07.921Z</time>
      </trkpt>
      <trkpt lat="43.46994" lon="1.51573">
        <ele>259.7</ele>
        <time>2015-04-05T12:49:13.912Z</time>
      </trkpt>
      <trkpt lat="43.47011" lon="1.51563">
        <ele>259.3</ele>
        <time>2015-04-05T12:49:18.937Z</time>
      </trkpt>
      <trkpt lat="43.47027" lon="1.51548">
        <ele>259.3</ele>
        <time>2015-04-05T12:49:24.919Z</time>
      </trkpt>
      <trkpt lat="43.47041" lon="1.51532">
        <ele>259.7</ele>
        <time>2015-04-05T12:49:30.921Z</time>
      </trkpt>
      <trkpt lat="43.47051" lon="1.51513">
        <ele>260.4</ele>
        <time>2015-04-05T12:49:36.910Z</time>
      </trkpt>
      <trkpt lat="43.4706" lon="1.515">
        <ele>261.4</ele>
        <time>2015-04-05T12:49:42.921Z</time>
      </trkpt>
      <trkpt lat="43.47068" lon="1.51484">
        <ele>263.3</ele>
        <time>2015-04-05T12:49:48.913Z</time>
      </trkpt>
      <trkpt lat="43.47079" lon="1.51464">
        <ele>265</ele>
        <time>2015-04-05T12:49:54.913Z</time>
      </trkpt>
      <trkpt lat="43.47086" lon="1.51443">
        <ele>266.2</ele>
        <time>2015-04-05T12:50:00.920Z</time>
      </trkpt>
      <trkpt lat="43.47093" lon="1.51423">
        <ele>267.3</ele>
        <time>2015-04-05T12:50:06.921Z</time>
      </trkpt>
      <trkpt lat="43.47102" lon="1.51403">
        <ele>268.8</ele>
        <time>2015-04-05T12:50:12.911Z</time>
      </trkpt>
      <trkpt lat="43.4711" lon="1.51385">
        <ele>269.7</ele>
        <time>2015-04-05T12:50:17.921Z</time>
      </trkpt>
      <trkpt lat="43.47123" lon="1.51363">
        <ele>270.6</ele>
        <time>2015-04-05T12:50:23.922Z</time>
      </trkpt>
      <trkpt lat="43.47137" lon="1.51332">
        <ele>271.3</ele>
        <time>2015-04-05T12:50:29.919Z</time>
      </trkpt>
      <trkpt lat="43.47146" lon="1.51308">
        <ele>271.8</ele>
        <time>2015-04-05T12:50:34.920Z</time>
      </trkpt>
      <trkpt lat="43.47156" lon="1.51279">
        <ele>272.8</ele>
        <time>2015-04-05T12:50:40.920Z</time>
      </trkpt>
      <trkpt lat="43.47172" lon="1.51256">
        <ele>273.7</ele>
        <time>2015-04-05T12:50:46.909Z</time>
      </trkpt>
      <trkpt lat="43.47185" lon="1.51245">
        <ele>275.1</ele>
        <time>2015-04-05T12:50:51.915Z</time>
      </trkpt>
      <trkpt lat="43.47197" lon="1.51233">
        <ele>276.8</ele>
        <time>2015-04-05T12:50:56.919Z</time>
      </trkpt>
      <trkpt lat="43.4721" lon="1.51219">
        <ele>279</ele>
        <time>2015-04-05T12:51:02.910Z</time>
      </trkpt>
      <trkpt lat="43.47225" lon="1.51205">
        <ele>280.3</ele>
        <time>2015-04-05T12:51:07.921Z</time>
      </trkpt>
      <trkpt lat="43.47246" lon="1.51188">
        <ele>279.9</ele>
        <time>2015-04-05T12:51:13.922Z</time>
      </trkpt>
      <trkpt lat="43.47265" lon="1.51171">
        <ele>279.3</ele>
        <time>2015-04-05T12:51:19.916Z</time>
      </trkpt>
      <trkpt lat="43.47286" lon="1.51154">
        <ele>279.1</ele>
        <time>2015-04-05T12:51:25.915Z</time>
      </trkpt>
      <trkpt lat="43.47305" lon="1.51135">
        <ele>277.2</ele>
        <time>2015-04-05T12:51:31.915Z</time>
      </trkpt>
      <trkpt lat="43.47324" lon="1.51116">
        <ele>276.8</ele>
        <time>2015-04-05T12:51:37.922Z</time>
      </trkpt>
      <trkpt lat="43.47344" lon="1.51098">
        <ele>276.1</ele>
        <time>2015-04-05T12:51:43.922Z</time>
      </trkpt>
      <trkpt lat="43.47363" lon="1.5108">
        <ele>275.1</ele>
        <time>2015-04-05T12:51:49.914Z</time>
      </trkpt>
      <trkpt lat="43.47378" lon="1.51067">
        <ele>275.1</ele>
        <time>2015-04-05T12:51:54.926Z</time>
      </trkpt>
      <trkpt lat="43.47394" lon="1.51054">
        <ele>275.6</ele>
        <time>2015-04-05T12:52:00.913Z</time>
      </trkpt>
      <trkpt lat="43.4741" lon="1.5104">
        <ele>276.6</ele>
        <time>2015-04-05T12:52:06.913Z</time>
      </trkpt>
      <trkpt lat="43.4742" lon="1.51029">
        <ele>276</ele>
        <time>2015-04-05T12:52:11.918Z</time>
      </trkpt>
      <trkpt lat="43.47433" lon="1.51013">
        <ele>273.8</ele>
        <time>2015-04-05T12:52:17.910Z</time>
      </trkpt>
      <trkpt lat="43.47446" lon="1.51002">
        <ele>274.7</ele>
        <time>2015-04-05T12:52:22.911Z</time>
      </trkpt>
      <trkpt lat="43.47461" lon="1.50988">
        <ele>275.7</ele>
        <time>2015-04-05T12:52:28.920Z</time>
      </trkpt>
      <trkpt lat="43.47471" lon="1.5097">
        <ele>276.4</ele>
        <time>2015-04-05T12:52:34.921Z</time>
      </trkpt>
      <trkpt lat="43.47483" lon="1.50951">
        <ele>278</ele>
        <time>2015-04-05T12:52:40.917Z</time>
      </trkpt>
      <trkpt lat="43.47494" lon="1.50934">
        <ele>279.9</ele>
        <time>2015-04-05T12:52:46.914Z</time>
      </trkpt>
      <trkpt lat="43.47502" lon="1.50916">
        <ele>281.5</ele>
        <time>2015-04-05T12:52:52.914Z</time>
      </trkpt>
      <trkpt lat="43.47503" lon="1.50905">
        <ele>283</ele>
        <time>2015-04-05T12:52:58.916Z</time>
      </trkpt>
      <trkpt lat="43.47507" lon="1.50902">
        <ele>282.7</ele>
        <time>2015-04-05T12:53:03.924Z</time>
      </trkpt>
      <trkpt lat="43.47513" lon="1.50899">
        <ele>281.2</ele>
        <time>2015-04-05T12:53:09.912Z</time>
      </trkpt>
      <trkpt lat="43.47514" lon="1.50891">
        <ele>275.4</ele>
        <time>2015-04-05T12:54:13.923Z</time>
      </trkpt>
      <trkpt lat="43.47518" lon="1.50887">
        <ele>273.3</ele>
        <time>2015-04-05T12:54:19.916Z</time>
      </trkpt>
      <trkpt lat="43.4752" lon="1.50883">
        <ele>272.8</ele>
        <time>2015-04-05T12:54:24.923Z</time>
      </trkpt>
      <trkpt lat="43.47524" lon="1.50877">
        <ele>272.3</ele>
        <time>2015-04-05T12:54:30.922Z</time>
      </trkpt>
      <trkpt lat="43.47526" lon="1.5087">
        <ele>271.7</ele>
        <time>2015-04-05T12:54:36.914Z</time>
      </trkpt>
      <trkpt lat="43.47528" lon="1.50865">
        <ele>271.3</ele>
        <time>2015-04-05T12:54:41.915Z</time>
      </trkpt>
      <trkpt lat="43.47532" lon="1.50855">
        <ele>270.4</ele>
        <time>2015-04-05T12:54:58.018Z</time>
      </trkpt>
      <trkpt lat="43.47533" lon="1.50851">
        <ele>270.5</ele>
        <time>2015-04-05T12:55:03.015Z</time>
      </trkpt>
      <trkpt lat="43.47535" lon="1.50845">
        <ele>270.6</ele>
        <time>2015-04-05T12:55:08.117Z</time>
      </trkpt>
      <trkpt lat="43.47541" lon="1.50839">
        <ele>270.7</ele>
        <time>2015-04-05T12:55:14.922Z</time>
      </trkpt>
      <trkpt lat="43.47542" lon="1.50834">
        <ele>270.8</ele>
        <time>2015-04-05T12:55:20.913Z</time>
      </trkpt>
      <trkpt lat="43.47549" lon="1.5083">
        <ele>271.2</ele>
        <time>2015-04-05T12:55:25.924Z</time>
      </trkpt>
      <trkpt lat="43.47554" lon="1.50822">
        <ele>271.4</ele>
        <time>2015-04-05T12:55:36.921Z</time>
      </trkpt>
      <trkpt lat="43.47557" lon="1.50818">
        <ele>271.4</ele>
        <time>2015-04-05T12:55:42.921Z</time>
      </trkpt>
      <trkpt lat="43.4756" lon="1.50812">
        <ele>270.9</ele>
        <time>2015-04-05T12:55:48.921Z</time>
      </trkpt>
      <trkpt lat="43.47563" lon="1.50806">
        <ele>270.4</ele>
        <time>2015-04-05T12:55:54.913Z</time>
      </trkpt>
      <trkpt lat="43.47568" lon="1.50795">
        <ele>269.8</ele>
        <time>2015-04-05T12:56:05.921Z</time>
      </trkpt>
      <trkpt lat="43.4757" lon="1.50794">
        <ele>269.6</ele>
        <time>2015-04-05T12:56:11.910Z</time>
      </trkpt>
      <trkpt lat="43.47575" lon="1.50783">
        <ele>269.4</ele>
        <time>2015-04-05T12:56:17.916Z</time>
      </trkpt>
      <trkpt lat="43.4758" lon="1.50778">
        <ele>269.7</ele>
        <time>2015-04-05T12:56:28.915Z</time>
      </trkpt>
      <trkpt lat="43.47584" lon="1.50773">
        <ele>269.8</ele>
        <time>2015-04-05T12:56:33.926Z</time>
      </trkpt>
      <trkpt lat="43.47586" lon="1.50768">
        <ele>270.8</ele>
        <time>2015-04-05T12:56:56.921Z</time>
      </trkpt>
      <trkpt lat="43.47594" lon="1.50755">
        <ele>271.1</ele>
        <time>2015-04-05T12:57:01.924Z</time>
      </trkpt>
      <trkpt lat="43.47605" lon="1.50737">
        <ele>270.8</ele>
        <time>2015-04-05T12:57:07.925Z</time>
      </trkpt>
      <trkpt lat="43.4762" lon="1.50715">
        <ele>272.2</ele>
        <time>2015-04-05T12:57:13.916Z</time>
      </trkpt>
      <trkpt lat="43.47636" lon="1.50693">
        <ele>271.8</ele>
        <time>2015-04-05T12:57:19.923Z</time>
      </trkpt>
      <trkpt lat="43.47649" lon="1.50672">
        <ele>272.3</ele>
        <time>2015-04-05T12:57:25.916Z</time>
      </trkpt>
      <trkpt lat="43.47668" lon="1.50649">
        <ele>272.9</ele>
        <time>2015-04-05T12:57:31.923Z</time>
      </trkpt>
      <trkpt lat="43.47688" lon="1.50635">
        <ele>274.1</ele>
        <time>2015-04-05T12:57:37.915Z</time>
      </trkpt>
      <trkpt lat="43.47707" lon="1.50611">
        <ele>274.6</ele>
        <time>2015-04-05T12:57:43.922Z</time>
      </trkpt>
      <trkpt lat="43.47727" lon="1.5059">
        <ele>276.8</ele>
        <time>2015-04-05T12:57:49.922Z</time>
      </trkpt>
      <trkpt lat="43.47754" lon="1.50564">
        <ele>276.9</ele>
        <time>2015-04-05T12:57:55.922Z</time>
      </trkpt>
      <trkpt lat="43.47789" lon="1.50538">
        <ele>272</ele>
        <time>2015-04-05T12:58:01.914Z</time>
      </trkpt>
      <trkpt lat="43.4782" lon="1.50535">
        <ele>266.5</ele>
        <time>2015-04-05T12:58:07.922Z</time>
      </trkpt>
      <trkpt lat="43.47856" lon="1.50547">
        <ele>263.9</ele>
        <time>2015-04-05T12:58:13.921Z</time>
      </trkpt>
      <trkpt lat="43.47901" lon="1.5053">
        <ele>257.8</ele>
        <time>2015-04-05T12:58:19.916Z</time>
      </trkpt>
      <trkpt lat="43.47941" lon="1.50496">
        <ele>253.6</ele>
        <time>2015-04-05T12:58:25.914Z</time>
      </trkpt>
      <trkpt lat="43.47973" lon="1.50469">
        <ele>250.3</ele>
        <time>2015-04-05T12:58:30.938Z</time>
      </trkpt>
      <trkpt lat="43.48008" lon="1.50443">
        <ele>246.6</ele>
        <time>2015-04-05T12:58:36.919Z</time>
      </trkpt>
      <trkpt lat="43.48026" lon="1.50429">
        <ele>245.1</ele>
        <time>2015-04-05T12:58:42.920Z</time>
      </trkpt>
      <trkpt lat="43.4806" lon="1.50423">
        <ele>246.7</ele>
        <time>2015-04-05T12:58:48.913Z</time>
      </trkpt>
      <trkpt lat="43.48093" lon="1.50417">
        <ele>248.2</ele>
        <time>2015-04-05T12:58:54.920Z</time>
      </trkpt>
      <trkpt lat="43.48126" lon="1.50415">
        <ele>250</ele>
        <time>2015-04-05T12:59:00.919Z</time>
      </trkpt>
      <trkpt lat="43.48157" lon="1.50411">
        <ele>253.9</ele>
        <time>2015-04-05T12:59:06.919Z</time>
      </trkpt>
      <trkpt lat="43.48183" lon="1.50405">
        <ele>257.3</ele>
        <time>2015-04-05T12:59:12.912Z</time>
      </trkpt>
      <trkpt lat="43.48205" lon="1.50401">
        <ele>261.6</ele>
        <time>2015-04-05T12:59:18.919Z</time>
      </trkpt>
      <trkpt lat="43.48223" lon="1.50396">
        <ele>267.1</ele>
        <time>2015-04-05T12:59:24.919Z</time>
      </trkpt>
      <trkpt lat="43.4824" lon="1.50395">
        <ele>267.5</ele>
        <time>2015-04-05T12:59:29.920Z</time>
      </trkpt>
      <trkpt lat="43.48263" lon="1.50404">
        <ele>265.2</ele>
        <time>2015-04-05T12:59:35.921Z</time>
      </trkpt>
      <trkpt lat="43.48284" lon="1.50418">
        <ele>263.4</ele>
        <time>2015-04-05T12:59:41.913Z</time>
      </trkpt>
      <trkpt lat="43.48302" lon="1.50444">
        <ele>261.5</ele>
        <time>2015-04-05T12:59:47.938Z</time>
      </trkpt>
      <trkpt lat="43.48319" lon="1.50478">
        <ele>258.8</ele>
        <time>2015-04-05T12:59:53.920Z</time>
      </trkpt>
      <trkpt lat="43.48334" lon="1.50516">
        <ele>257.5</ele>
        <time>2015-04-05T12:59:59.919Z</time>
      </trkpt>
      <trkpt lat="43.48349" lon="1.50557">
        <ele>256.6</ele>
        <time>2015-04-05T13:00:05.911Z</time>
      </trkpt>
      <trkpt lat="43.48363" lon="1.50597">
        <ele>256.7</ele>
        <time>2015-04-05T13:00:11.920Z</time>
      </trkpt>
      <trkpt lat="43.48377" lon="1.50636">
        <ele>257.1</ele>
        <time>2015-04-05T13:00:17.920Z</time>
      </trkpt>
      <trkpt lat="43.4839" lon="1.50674">
        <ele>257.7</ele>
        <time>2015-04-05T13:00:23.920Z</time>
      </trkpt>
      <trkpt lat="43.48403" lon="1.50715">
        <ele>258.2</ele>
        <time>2015-04-05T13:00:29.913Z</time>
      </trkpt>
      <trkpt lat="43.48414" lon="1.50757">
        <ele>257.2</ele>
        <time>2015-04-05T13:00:35.920Z</time>
      </trkpt>
      <trkpt lat="43.48423" lon="1.508">
        <ele>255.7</ele>
        <time>2015-04-05T13:00:41.921Z</time>
      </trkpt>
      <trkpt lat="43.4844" lon="1.50891">
        <ele>253</ele>
        <time>2015-04-05T13:00:52.953Z</time>
      </trkpt>
      <trkpt lat="43.48449" lon="1.50956">
        <ele>250</ele>
        <time>2015-04-05T13:00:58.922Z</time>
      </trkpt>
      <trkpt lat="43.48455" lon="1.51015">
        <ele>247.2</ele>
        <time>2015-04-05T13:01:03.921Z</time>
      </trkpt>
      <trkpt lat="43.48466" lon="1.51084">
        <ele>244.8</ele>
        <time>2015-04-05T13:01:09.920Z</time>
      </trkpt>
      <trkpt lat="43.48492" lon="1.51126">
        <ele>242.6</ele>
        <time>2015-04-05T13:01:14.930Z</time>
      </trkpt>
      <trkpt lat="43.48533" lon="1.51161">
        <ele>238.3</ele>
        <time>2015-04-05T13:01:20.913Z</time>
      </trkpt>
      <trkpt lat="43.48573" lon="1.51188">
        <ele>234.6</ele>
        <time>2015-04-05T13:01:25.938Z</time>
      </trkpt>
      <trkpt lat="43.48623" lon="1.51222">
        <ele>230.5</ele>
        <time>2015-04-05T13:01:31.921Z</time>
      </trkpt>
      <trkpt lat="43.48671" lon="1.51255">
        <ele>227</ele>
        <time>2015-04-05T13:01:37.915Z</time>
      </trkpt>
      <trkpt lat="43.48718" lon="1.51285">
        <ele>223.4</ele>
        <time>2015-04-05T13:01:43.921Z</time>
      </trkpt>
      <trkpt lat="43.48764" lon="1.51307">
        <ele>220.4</ele>
        <time>2015-04-05T13:01:49.936Z</time>
      </trkpt>
      <trkpt lat="43.4881" lon="1.51285">
        <ele>217.5</ele>
        <time>2015-04-05T13:01:55.915Z</time>
      </trkpt>
      <trkpt lat="43.48852" lon="1.51332">
        <ele>216.6</ele>
        <time>2015-04-05T13:02:01.923Z</time>
      </trkpt>
      <trkpt lat="43.48894" lon="1.51395">
        <ele>215.6</ele>
        <time>2015-04-05T13:02:07.922Z</time>
      </trkpt>
      <trkpt lat="43.48937" lon="1.51456">
        <ele>212.2</ele>
        <time>2015-04-05T13:02:13.922Z</time>
      </trkpt>
      <trkpt lat="43.48974" lon="1.51521">
        <ele>207.8</ele>
        <time>2015-04-05T13:02:19.911Z</time>
      </trkpt>
      <trkpt lat="43.49004" lon="1.51568">
        <ele>205.1</ele>
        <time>2015-04-05T13:02:25.921Z</time>
      </trkpt>
      <trkpt lat="43.49031" lon="1.51607">
        <ele>203.2</ele>
        <time>2015-04-05T13:02:31.914Z</time>
      </trkpt>
      <trkpt lat="43.49064" lon="1.51655">
        <ele>201.5</ele>
        <time>2015-04-05T13:02:37.923Z</time>
      </trkpt>
      <trkpt lat="43.49088" lon="1.51676">
        <ele>200.7</ele>
        <time>2015-04-05T13:02:43.922Z</time>
      </trkpt>
      <trkpt lat="43.49103" lon="1.51656">
        <ele>200.2</ele>
        <time>2015-04-05T13:02:49.922Z</time>
      </trkpt>
      <trkpt lat="43.49112" lon="1.51643">
        <ele>200.6</ele>
        <time>2015-04-05T13:02:55.922Z</time>
      </trkpt>
      <trkpt lat="43.49116" lon="1.51635">
        <ele>200.8</ele>
        <time>2015-04-05T13:03:01.922Z</time>
      </trkpt>
      <trkpt lat="43.49126" lon="1.51616">
        <ele>201.2</ele>
        <time>2015-04-05T13:03:07.922Z</time>
      </trkpt>
      <trkpt lat="43.4913" lon="1.5161">
        <ele>200.6</ele>
        <time>2015-04-05T13:03:31.908Z</time>
      </trkpt>
      <trkpt lat="43.4913" lon="1.51595">
        <ele>197.3</ele>
        <time>2015-04-05T13:03:37.912Z</time>
      </trkpt>
      <trkpt lat="43.4913" lon="1.5159">
        <ele>197.4</ele>
        <time>2015-04-05T13:03:43.915Z</time>
      </trkpt>
      <trkpt lat="43.48774" lon="1.5131">
        <ele>198.4</ele>
        <time>2015-04-05T13:03:55.912Z</time>
      </trkpt>
      <trkpt lat="43.48919" lon="1.51427">
        <ele>198.7</ele>
        <time>2015-04-05T13:04:01.913Z</time>
      </trkpt>
      <trkpt lat="43.49008" lon="1.5149">
        <ele>198.1</ele>
        <time>2015-04-05T13:04:07.910Z</time>
      </trkpt>
      <trkpt lat="43.49009" lon="1.51482">
        <ele>198.1</ele>
        <time>2015-04-05T13:04:13.344Z</time>
      </trkpt>
      <trkpt lat="43.49089" lon="1.51527">
        <ele>199.4</ele>
        <time>2015-04-05T13:04:18.919Z</time>
      </trkpt>
      <trkpt lat="43.49121" lon="1.51544">
        <ele>198.5</ele>
        <time>2015-04-05T13:04:41.910Z</time>
      </trkpt>
      <trkpt lat="43.49128" lon="1.51547">
        <ele>198.5</ele>
        <time>2015-04-05T13:04:52.916Z</time>
      </trkpt>
      <trkpt lat="43.49135" lon="1.51569">
        <ele>198.5</ele>
        <time>2015-04-05T13:04:58.642Z</time>
      </trkpt>
      <trkpt lat="43.49133" lon="1.51558">
        <ele>196.7</ele>
        <time>2015-04-05T13:05:44.911Z</time>
      </trkpt>
      <trkpt lat="43.49133" lon="1.51554">
        <ele>196.7</ele>
        <time>2015-04-05T13:05:49.923Z</time>
      </trkpt>
      <trkpt lat="43.49132" lon="1.51564">
        <ele>196.7</ele>
        <time>2015-04-05T13:06:01.337Z</time>
      </trkpt>
    </trkseg>
  </trk>
</gpx>